[[{"header":{"parameterUnit":"m.s-1","parameterCategory":1,"la1":31.0,"la2":29.5877,"lo1":-88.7671,"lo2":-86.6584,"dy":0.0162,"dx":0.0185,"nx":115,"ny":88,"refTime":"2023-09-03T18:00:00:Z","depth":0,"parameterNumber":2,"parameterNumberName":"U-component_of_WINDS"},"data":[0.0,0.0,0.0,0.0,0.0,0.0,0.0,0.0,0.0,0.0,0.0,0.0,0.0,0.0,0.0,0.0,0.0,0.0,0.0,0.0,0.0,0.0,0.0,0.0,0.0,0.0,0.0,0.0,0.0,0.0,0.0,0.0,0.0,0.0,0.0,0.0,0.0,0.0,0.0,0.0,0.0,0.0,0.0,0.0,0.0,0.0,0.0,0.0,0.0,0.0,0.0,0.0,0.0,0.0,0.0,0.0,0.0,0.0,0.0,0.0,0.0,0.0,0.0,0.0,0.0,0.0,0.0,0.0,0.0,0.0,0.0,0.0,0.0,0.0,0.0,0.0,0.0,0.0,0.0,0.0,0.0,0.0,0.0,0.0,0.0,0.0,0.0,0.0,0.0,0.0,0.0,0.0,0.0,0.0,0.0,0.0,0.0,0.0,0.0,0.0,0.0,0.0,0.0,0.0,0.0,0.0,0.0,0.0,0.0,0.0,0.0,0.0,0.0,0.0,0.0,0.0,0.0,0.0,0.0,0.0,0.0,0.0,0.0,0.0,0.0,0.0,0.0,0.0,0.0,0.0,0.0,0.0,0.0,0.0,0.0,0.0,0.0,0.0,0.0,0.0,0.0,0.0,0.0,0.0,0.0,0.0,0.0,0.0,0.0,0.0,0.0,0.0,0.0,0.0,0.0,0.0,0.0,0.0,0.0,0.0,0.0,0.0,0.0,0.0,0.0,0.0,0.0,0.0,0.0,0.0,0.0,0.0,0.0,0.0,0.0,0.0,0.0,0.0,0.0,0.0,0.0,0.0,0.0,0.0,0.0,0.0,0.0,0.0,0.0,0.0,0.0,0.0,0.0,0.0,0.0,0.0,0.0,0.0,0.0,0.0,0.0,0.0,0.0,0.0,0.0,0.0,0.0,0.0,0.0,0.0,0.0,0.0,0.0,0.0,0.0,0.0,0.0,0.0,0.0,0.0,0.0,0.0,0.0,0.0,0.0,0.0,0.0,0.0,0.0,0.0,0.0,0.0,0.0,0.0,0.0,0.0,0.0,0.0,0.0,0.0,0.0,0.0,0.0,0.0,0.0,0.0,0.0,0.0,0.0,0.0,0.0,0.0,0.0,0.0,0.0,0.0,0.0,0.0,0.0,0.0,0.0,0.0,0.0,0.0,0.0,0.0,0.0,0.0,0.0,0.0,0.0,0.0,0.0,0.0,0.0,0.0,0.0,0.0,0.0,0.0,0.0,0.0,0.0,0.0,0.0,0.0,0.0,0.0,0.0,0.0,0.0,0.0,0.0,0.0,0.0,0.0,0.0,0.0,0.0,0.0,0.0,0.0,0.0,0.0,0.0,0.0,0.0,0.0,0.0,0.0,0.0,0.0,0.0,0.0,0.0,0.0,0.0,0.0,0.0,0.0,0.0,0.0,0.0,0.0,0.0,0.0,0.0,0.0,0.0,0.0,0.0,0.0,0.0,0.0,0.0,0.0,0.0,0.0,0.0,0.0,0.0,0.0,0.0,0.0,0.0,0.0,0.0,0.0,0.0,0.0,0.0,0.0,0.0,0.0,0.0,0.0,0.0,0.0,0.0,0.0,0.0,0.0,0.0,0.0,0.0,0.0,0.0,0.0,0.0,0.0,0.0,0.0,0.0,0.0,0.0,0.0,0.0,0.0,0.0,0.0,0.0,0.0,0.0,0.0,0.0,0.0,0.0,0.0,0.0,0.0,0.0,0.0,0.0,0.0,0.0,0.0,0.0,0.0,0.0,0.0,0.0,0.0,0.0,0.0,0.0,0.0,0.0,0.0,0.0,0.0,0.0,0.0,0.0,0.0,0.0,0.0,0.0,0.0,0.0,0.0,0.0,0.0,0.0,0.0,0.0,0.0,0.0,0.0,0.0,0.0,0.0,0.0,0.0,0.0,0.0,0.0,0.0,0.0,0.0,0.0,0.0,0.0,0.0,0.0,0.0,0.0,0.0,0.0,0.0,0.0,0.0,0.0,0.0,0.0,0.0,0.0,0.0,0.0,0.0,0.0,0.0,0.0,0.0,0.0,0.0,0.0,0.0,0.0,0.0,0.0,0.0,0.0,0.0,0.0,0.0,0.0,0.0,0.0,0.0,0.0,0.0,0.0,0.0,0.0,0.0,0.0,0.0,0.0,0.0,0.0,0.0,0.0,0.0,0.0,0.0,0.0,0.0,0.0,0.0,0.0,0.0,0.0,0.0,0.0,0.0,0.0,0.0,0.0,0.0,0.0,0.0,0.0,0.0,0.0,0.0,0.0,0.0,0.0,0.0,0.0,0.0,0.0,0.0,0.0,0.0,0.0,0.0,0.0,0.0,0.0,0.0,0.0,0.0,0.0,0.0,0.0,0.0,0.0,0.0,0.0,0.0,0.0,0.0,0.0,0.0,0.0,0.0,0.0,0.0,0.0,0.0,0.0,0.0,0.0,0.0,0.0,0.0,0.0,0.0,0.0,0.0,0.0,0.0,0.0,0.0,0.0,0.0,0.0,0.0,0.0,0.0,0.0,0.0,0.0,0.0,0.0,0.0,0.0,0.0,0.0,0.0,0.0,0.0,0.0,0.0,0.0,0.0,0.0,0.0,0.0,0.0,0.0,0.0,0.0,0.0,0.0,0.0,0.0,0.0,0.0,0.0,0.0,0.0,0.0,0.0,0.0,0.0,0.0,0.0,0.0,0.0,0.0,0.0,0.0,0.0,0.0,0.0,0.0,0.0,0.0,0.0,0.0,0.0,0.0,0.0,0.0,0.0,0.0,0.0,0.0,0.0,0.0,0.0,0.0,0.0,0.0,0.0,0.0,0.0,0.0,0.0,0.0,0.0,0.0,0.0,0.0,0.0,0.0,0.0,0.0,0.0,0.0,0.0,0.0,0.0,0.0,0.0,0.0,0.0,0.0,0.0,0.0,0.0,0.0,0.0,0.0,0.0,0.0,0.0,0.0,0.0,0.0,0.0,0.0,0.0,0.0,0.0,0.0,0.0,0.0,0.0,0.0,0.0,0.0,0.0,0.0,0.0,0.0,0.0,0.0,0.0,0.0,0.0,0.0,0.0,0.0,0.0,0.0,0.0,0.0,0.0,0.0,0.0,0.0,0.0,0.0,0.0,0.0,0.0,0.0,0.0,0.0,0.0,0.0,0.0,0.0,0.0,0.0,0.0,0.0,0.0,0.0,0.0,0.0,0.0,0.0,0.0,0.0,0.0,0.0,0.0,0.0,0.0,0.0,0.0,0.0,0.0,0.0,0.0,0.0,0.0,0.0,0.0,0.0,0.0,0.0,0.0,0.0,0.0,0.0,0.0,0.0,0.0,0.0,0.0,0.0,0.0,0.0,0.0,0.0,0.0,0.0,0.0,0.0,0.0,0.0,0.0,0.0,0.0,0.0,0.0,0.0,0.0,0.0,0.0,0.0,0.0,0.0,0.0,0.0,0.0,0.0,0.0,0.0,0.0,0.0,0.0,0.0,0.0,0.0,0.0,0.0,0.0,0.0,0.0,0.0,0.0,0.0,0.0,0.0,0.0,0.0,0.0,0.0,0.0,0.0,0.0,0.0,0.0,0.0,0.0,0.0,0.0,0.0,0.0,0.0,0.0,0.0,0.0,0.0,0.0,0.0,0.0,0.0,0.0,0.0,0.0,0.0,0.0,0.0,0.0,0.0,0.0,0.0,0.0,0.0,0.0,0.0,0.0,0.0,0.0,0.0,0.0,0.0,0.0,0.0,0.0,0.0,0.0,0.0,0.0,0.0,0.0,0.0,0.0,0.0,0.0,0.0,0.0,0.0,0.0,0.0,0.0,0.0,0.0,0.0,0.0,0.0,0.0,0.0,0.0,0.0,0.0,0.0,0.0,0.0,0.0,0.0,0.0,0.0,0.0,0.0,0.0,0.0,0.0,0.0,0.0,0.0,0.0,0.0,0.0,0.0,0.0,0.0,0.0,0.0,0.0,0.0,0.0,0.0,0.0,0.0,0.0,0.0,0.0,0.0,0.0,0.0,0.0,0.0,0.0,0.0,0.0,0.0,0.0,0.0,0.0,0.0,0.0,0.0,0.0,0.0,0.0,0.0,0.0,0.0,0.0,0.0,0.0,0.0,0.0,0.0,0.0,0.0,0.0,0.0,0.0,0.0,0.0,0.0,0.0,0.0,0.0,0.0,0.0,0.0,0.0,0.0,0.0,0.0,0.0,0.0,0.0,0.0,0.0,0.0,0.0,0.0,0.0,0.0,0.0,0.0,0.0,0.0,0.0,0.0,2.1752,0.0,0.0,0.0,0.0,0.0,0.0,0.0,0.0,0.0,0.0,0.0,0.0,0.0,0.0,0.0,0.0,0.0,0.0,0.0,0.0,0.0,0.0,0.0,0.0,0.0,0.0,0.0,0.0,0.0,0.0,0.0,0.0,0.0,0.0,0.0,0.0,0.0,0.0,0.0,0.0,0.0,0.0,0.0,0.0,0.0,0.0,0.0,0.0,0.0,0.0,0.0,0.0,0.0,0.0,0.0,0.0,0.0,0.0,0.0,0.0,0.0,0.0,0.0,0.0,0.0,0.0,0.0,0.0,0.0,0.0,0.0,0.0,0.0,0.0,0.0,0.0,0.0,0.0,0.0,0.0,0.0,0.0,0.0,0.0,0.0,0.0,0.0,0.0,0.0,0.0,0.0,0.0,0.0,0.0,0.0,0.0,0.0,0.0,0.0,0.0,0.0,0.0,0.0,0.0,0.0,0.0,0.0,0.0,0.0,0.0,2.2918,2.2784,2.128,1.9968,1.8967,0.0,0.0,0.0,0.0,0.0,0.0,0.0,0.0,0.0,0.0,0.0,0.0,0.0,0.0,0.0,0.0,0.0,0.0,0.0,0.0,0.0,0.0,0.0,0.0,0.0,0.0,0.0,0.0,0.0,0.0,0.0,0.0,0.0,0.0,0.0,0.0,0.0,0.0,0.0,0.0,0.0,0.0,0.0,0.0,0.0,0.0,0.0,0.0,0.0,0.0,0.0,0.0,0.0,0.0,0.0,0.0,0.0,0.0,0.0,0.0,0.0,0.0,0.0,0.0,0.0,0.0,0.0,0.0,0.0,0.0,0.0,0.0,0.0,0.0,0.0,0.0,0.0,0.0,0.0,0.0,0.0,0.0,0.0,0.0,0.0,0.0,0.0,0.0,0.0,0.0,0.0,0.0,0.0,0.0,0.0,0.0,0.0,0.0,0.0,0.0,0.0,0.0,0.0,0.0,0.0,0.0,0.0,0.0,0.0,0.0,0.0,0.0,1.7735,1.6728,1.7104,0.0,0.0,0.0,0.0,0.0,0.0,0.0,0.0,0.0,0.0,0.0,0.0,0.0,0.0,0.0,0.0,0.0,0.0,0.0,0.0,0.0,0.0,0.0,0.0,0.0,0.0,0.0,0.0,0.0,0.0,0.0,0.0,0.0,0.0,0.0,0.0,0.0,0.0,0.0,0.0,0.0,0.0,0.0,0.0,0.0,0.0,0.0,0.0,0.0,0.0,0.0,0.0,0.0,0.0,0.0,0.0,0.0,0.0,0.0,0.0,0.0,0.0,0.0,0.0,0.0,0.0,0.0,0.0,0.0,0.0,0.0,0.0,0.0,0.0,0.0,0.0,0.0,0.0,0.0,0.0,0.0,0.0,0.0,0.0,0.0,0.0,0.0,0.0,0.0,0.0,0.0,0.0,0.0,0.0,0.0,0.0,0.0,0.0,0.0,0.0,0.0,0.0,0.0,0.0,0.0,0.0,0.0,0.0,0.0,0.0,1.692,1.6975,1.6985,0.0,1.7317,0.0,0.0,0.0,0.0,0.0,0.0,0.0,0.0,0.0,0.0,0.0,0.0,0.0,0.0,0.0,0.0,0.0,0.0,0.0,0.0,0.0,0.0,0.0,0.0,0.0,0.0,0.0,0.0,0.0,0.0,0.0,0.0,0.0,0.0,0.0,0.0,0.0,0.0,0.0,0.0,0.0,0.0,0.0,0.0,0.0,0.0,0.0,0.0,0.0,0.0,0.0,0.0,0.0,0.0,0.0,0.0,0.0,0.0,0.0,0.0,0.0,0.0,0.0,0.0,0.0,0.0,0.0,0.0,0.0,0.0,0.0,0.0,0.0,0.0,0.0,0.0,0.0,0.0,0.0,0.0,0.0,0.0,0.0,0.0,0.0,0.0,0.0,0.0,0.0,0.0,0.0,0.0,0.0,0.0,0.0,0.0,0.0,0.0,0.0,0.0,0.0,0.0,0.0,0.0,0.0,0.0,0.0,0.0,0.0,0.0,1.6792,1.6853,1.4149,1.2744,0.0,0.0,0.0,0.0,0.0,0.0,0.0,0.0,0.0,0.0,0.0,0.0,0.0,0.0,0.0,0.0,0.0,0.0,0.0,0.0,0.0,0.0,0.0,0.0,0.0,0.0,0.0,0.0,0.0,0.0,0.0,0.0,0.0,0.0,0.0,0.0,0.0,0.0,0.0,0.0,0.0,0.0,0.0,0.0,0.0,0.0,0.0,0.0,0.0,0.0,0.0,0.0,0.0,0.0,0.0,0.0,0.0,0.0,0.0,0.0,0.0,0.0,0.0,0.0,0.0,0.0,0.0,0.0,0.0,0.0,0.0,0.0,0.0,0.0,0.0,0.0,0.0,0.0,0.0,0.0,0.0,0.0,0.0,0.0,0.0,0.0,0.0,0.0,0.0,0.0,0.0,0.0,0.0,0.0,0.0,0.0,0.0,0.0,0.0,0.0,0.0,0.0,0.0,0.0,0.0,0.0,0.0,0.0,0.0,0.0,1.7206,1.5019,1.4908,1.1372,0.9595,0.9995,0.0,0.0,0.0,0.0,0.0,0.0,0.0,0.0,0.0,0.0,0.0,0.0,0.0,0.0,0.0,0.0,0.0,0.0,0.0,0.0,0.0,0.0,0.0,0.0,0.0,0.0,0.0,0.0,0.0,0.0,0.0,0.0,0.0,0.0,0.0,0.0,0.0,0.0,0.0,0.0,0.0,0.0,0.0,0.0,0.0,0.0,0.0,0.0,0.0,0.0,0.0,0.0,0.0,0.0,0.0,0.0,0.0,0.0,0.0,0.0,0.0,0.0,0.0,0.0,0.0,0.0,0.0,0.0,0.0,0.0,0.0,0.0,0.0,0.0,0.0,0.0,0.0,0.0,0.0,0.0,0.0,0.0,0.0,0.0,0.0,0.0,0.0,0.0,0.0,0.0,0.0,0.0,0.0,0.0,0.0,0.0,0.0,0.0,0.0,0.0,0.0,0.0,0.0,0.0,0.0,0.0,0.0,0.0,1.3606,1.1253,1.0124,1.0411,0.9447,0.9438,0.0,0.0,0.0,0.0,0.0,0.0,0.0,0.0,0.0,0.0,0.0,0.0,0.0,0.0,0.0,0.0,0.0,0.0,0.0,0.0,0.0,0.0,0.0,0.0,0.0,0.0,0.0,0.0,0.0,0.0,0.0,0.0,0.0,0.0,0.0,0.0,0.0,0.0,0.0,0.0,0.0,0.0,0.0,0.0,0.0,0.0,0.0,0.0,0.0,0.0,0.0,0.0,0.0,0.0,0.0,0.0,0.0,0.0,0.0,0.0,0.0,0.0,0.0,0.0,0.0,0.0,0.0,0.0,0.0,0.0,0.0,0.0,0.0,0.0,0.0,0.0,0.0,0.0,0.0,0.0,0.0,0.0,0.0,0.0,0.0,0.0,0.0,0.0,0.0,0.0,0.0,0.0,0.0,0.0,0.0,0.0,0.0,0.0,0.0,0.0,0.0,0.0,0.0,0.0,0.0,0.0,0.0,0.0,0.0,1.771,1.4281,1.173,1.0349,1.0097,1.0174,0.0,0.0,0.0,0.0,0.0,0.0,0.0,0.0,0.0,0.0,0.0,0.0,0.0,0.0,0.0,0.0,0.0,0.0,0.0,0.0,0.0,0.0,0.0,0.0,0.0,0.0,0.0,0.0,0.0,0.0,0.0,0.0,0.0,0.0,0.0,0.0,0.0,0.0,0.0,0.0,0.0,0.0,0.0,0.0,0.0,0.0,0.0,0.0,0.0,0.0,0.0,0.0,0.0,0.0,0.0,0.0,0.0,0.0,0.0,0.0,0.0,0.0,0.0,0.0,0.0,0.0,0.0,0.0,0.0,0.0,0.0,0.0,0.0,0.0,0.0,0.0,0.0,0.0,0.0,0.0,0.0,0.0,0.0,0.0,0.0,0.0,0.0,0.0,0.0,0.0,0.0,0.0,0.0,0.0,0.0,0.0,0.0,0.0,0.0,0.0,0.0,0.0,0.0,0.0,0.0,0.0,0.0,0.0,0.0,1.7312,0.0,1.2118,1.0606,1.0431,1.0376,0.0,0.0,0.0,0.0,0.0,0.0,0.0,0.0,0.0,0.0,0.0,0.0,0.0,0.0,0.0,0.0,0.0,0.0,0.0,0.0,0.0,0.0,0.0,0.0,0.0,0.0,0.0,0.0,0.0,0.0,0.0,0.0,0.0,0.0,0.0,0.0,0.0,0.0,0.0,0.0,0.0,0.0,0.0,0.0,0.0,0.0,0.0,0.0,0.0,0.0,0.0,0.0,0.0,0.0,0.0,0.0,0.0,0.0,0.0,0.0,0.0,0.0,0.0,0.0,0.0,0.0,0.0,0.0,0.0,0.0,0.0,0.0,0.0,0.0,0.0,0.0,0.0,0.0,0.0,0.0,0.0,0.0,0.0,0.0,0.0,0.0,0.0,0.0,0.0,0.0,0.0,0.0,0.0,0.0,0.0,0.0,0.0,0.0,0.0,0.0,0.0,0.0,0.0,0.0,0.0,0.0,0.0,0.0,1.5089,1.085,1.0709,1.0726,1.0682,1.0179,0.9902,0.0,0.0,0.0,0.0,0.0,0.0,0.0,0.0,0.0,0.0,0.0,0.0,0.0,0.0,0.0,0.0,0.0,0.0,0.0,0.0,0.0,0.0,0.0,0.0,0.0,0.0,0.0,0.0,0.0,0.0,0.0,0.0,0.0,0.0,0.0,0.0,0.0,0.0,0.0,0.0,0.0,0.0,0.0,0.0,0.0,0.0,0.0,0.0,0.0,0.0,0.0,0.0,0.0,0.0,0.0,0.0,0.0,0.0,0.0,0.0,0.0,0.0,0.0,0.0,0.0,0.0,0.0,0.0,0.0,0.0,0.0,0.0,0.0,0.0,0.0,0.0,0.0,0.0,0.0,0.0,0.0,0.0,0.0,0.0,0.0,0.0,0.0,0.0,0.0,0.0,0.0,0.0,0.0,0.0,0.0,0.0,0.0,0.0,0.0,0.0,0.0,0.0,0.0,0.0,0.0,0.0,0.0,0.0,0.0,1.081,1.0884,1.0964,1.0862,1.0797,1.0649,0.0,0.0,0.0,0.0,0.0,0.0,0.0,0.0,0.0,0.0,0.0,0.0,0.0,0.0,0.0,0.0,0.0,0.0,0.0,0.0,0.0,0.0,0.0,0.0,0.0,0.0,0.0,0.0,0.0,0.0,0.0,0.0,0.0,0.0,0.0,0.0,0.0,0.0,0.0,0.0,0.0,0.0,0.0,0.0,0.0,0.0,0.0,0.0,0.0,0.0,0.0,0.0,0.0,0.0,0.0,0.0,0.0,0.0,0.0,0.0,0.0,0.0,0.0,0.0,0.0,0.0,0.0,0.0,0.0,0.0,0.0,0.0,0.0,0.0,0.0,0.0,0.0,0.0,0.0,0.0,0.0,0.0,0.0,0.0,0.0,0.0,0.0,0.0,0.0,0.0,0.0,0.0,0.0,0.0,0.0,0.0,0.0,0.0,0.0,0.0,0.0,0.0,0.0,0.0,0.0,0.0,0.0,0.0,0.0,1.1825,1.1716,1.1746,1.174,1.1858,1.178,1.1533,0.0,0.0,0.0,0.0,0.0,0.0,0.0,0.0,0.0,0.0,0.0,0.0,0.0,0.0,0.0,0.0,0.0,0.0,0.0,0.0,0.0,0.0,0.0,0.0,0.0,0.0,0.0,0.0,0.0,0.0,0.0,0.0,0.0,0.0,0.0,0.0,0.0,0.0,0.0,0.0,0.0,0.0,0.0,0.0,0.0,0.0,0.0,0.0,0.0,0.0,0.0,0.0,0.0,0.0,0.0,0.0,0.0,0.0,0.0,0.0,0.0,0.0,0.0,0.0,0.0,0.0,0.0,0.0,0.0,0.0,0.0,0.0,0.0,0.0,0.0,0.0,0.0,0.0,0.0,0.0,0.0,0.0,0.0,0.0,0.0,0.0,0.0,0.0,0.0,0.0,0.0,0.0,0.0,0.0,0.0,0.0,0.0,0.0,0.0,0.0,0.0,0.0,0.0,0.0,0.0,0.0,0.0,0.0,1.3365,1.3028,1.2995,1.3208,1.3137,1.3076,0.0,0.0,0.0,0.0,0.0,0.0,0.0,0.0,0.0,0.0,0.0,0.0,0.0,0.0,0.0,0.0,0.0,0.0,0.0,0.0,0.0,0.0,0.0,0.0,0.0,0.0,0.0,0.0,0.0,0.0,0.0,0.0,0.0,0.0,0.0,0.0,0.0,0.0,0.0,0.0,0.0,0.0,0.0,0.0,0.0,0.0,0.0,0.0,0.0,0.0,0.0,0.0,0.0,0.0,0.0,0.0,0.0,0.0,0.0,0.0,0.0,0.0,0.0,0.0,0.0,0.0,0.0,0.0,0.0,0.0,0.0,0.0,0.0,0.0,0.0,0.0,0.0,0.0,0.0,0.0,0.0,0.0,0.0,0.0,0.0,0.0,0.0,0.0,0.0,0.0,0.0,0.0,0.0,0.0,0.0,0.0,0.0,0.0,0.0,0.0,0.0,0.0,0.0,0.0,0.0,0.0,0.0,0.0,0.0,1.5005,1.4926,1.4576,1.3819,1.3893,1.3813,0.0,0.0,0.0,0.0,0.0,0.0,0.0,0.0,0.0,0.0,0.0,0.0,0.0,0.0,0.0,0.0,0.0,0.0,0.0,0.0,0.0,0.0,0.0,0.0,0.0,0.0,0.0,0.0,0.0,0.0,0.0,0.0,0.0,0.0,0.0,0.0,0.0,0.0,0.0,0.0,0.0,0.0,0.0,0.0,0.0,0.0,0.0,0.0,0.0,0.0,0.0,0.0,0.0,0.0,0.0,0.0,0.0,0.0,0.0,0.0,0.0,0.0,0.0,0.0,0.0,0.0,0.0,0.0,0.0,0.0,0.0,0.0,0.0,0.0,0.0,0.0,0.0,0.0,0.0,0.0,0.0,0.0,0.0,0.0,0.0,0.0,0.0,0.0,0.0,0.0,0.0,0.0,0.0,0.0,0.0,0.0,0.0,0.0,0.0,0.0,0.0,0.0,0.0,0.0,0.0,0.0,0.0,0.0,1.7697,1.5954,1.5853,1.5536,1.4923,1.4969,1.4886,0.0,0.0,0.0,0.0,0.0,0.0,0.0,0.0,0.0,0.0,0.0,0.0,0.0,0.0,0.0,0.0,0.0,0.0,0.0,0.0,0.0,0.0,0.0,0.0,0.0,0.0,0.0,0.0,0.0,0.0,0.0,0.0,0.0,0.0,0.0,0.0,0.0,0.0,0.0,0.0,0.0,0.0,0.0,0.0,0.0,0.0,0.0,0.0,0.0,0.0,0.0,0.0,0.0,0.0,0.0,0.0,0.0,0.0,0.0,0.0,0.0,0.0,0.0,0.0,0.0,0.0,0.0,0.0,0.0,0.0,0.0,0.0,0.0,0.0,0.0,0.0,0.0,0.0,0.0,0.0,0.0,0.0,0.0,0.0,0.0,0.0,0.0,0.0,0.0,0.0,0.0,0.0,0.0,0.0,0.0,0.0,0.0,0.0,0.0,0.0,0.0,0.0,0.0,0.0,0.0,0.0,0.0,0.0,1.7937,1.6635,1.622,1.6153,1.6262,1.6175,1.6088,0.0,0.0,0.0,0.0,0.0,0.0,0.0,0.0,0.0,0.0,0.0,0.0,0.0,0.0,0.0,0.0,0.0,0.0,0.0,0.0,0.0,0.0,0.0,0.0,0.0,0.0,0.0,0.0,0.0,0.0,0.0,0.0,0.0,0.0,0.0,0.0,0.0,0.0,0.0,0.0,0.0,0.0,0.0,0.0,0.0,0.0,0.0,0.0,0.0,0.0,0.0,0.0,0.0,0.0,0.0,0.0,0.0,0.0,0.0,0.0,0.0,0.0,0.0,0.0,0.0,0.0,0.0,0.0,0.0,0.0,0.0,0.0,0.0,0.0,0.0,0.0,0.0,0.0,0.0,0.0,0.0,0.0,0.0,0.0,0.0,0.0,0.0,0.0,0.0,0.0,0.0,0.0,0.0,0.0,0.0,0.0,0.0,0.0,0.0,0.0,0.0,0.0,0.0,0.0,0.0,0.0,0.0,0.0,1.8066,1.716,1.6652,1.6527,1.6815,1.6778,1.6491,0.0,0.0,0.0,0.0,0.0,0.0,0.0,0.0,0.0,0.0,0.0,0.0,0.0,0.0,0.0,0.0,0.0,0.0,0.0,0.0,0.0,0.0,0.0,0.0,0.0,0.0,0.0,0.0,0.0,0.0,0.0,0.0,0.0,0.0,0.0,0.0,0.0,0.0,0.0,0.0,0.0,0.0,0.0,0.0,0.0,0.0,0.0,0.0,0.9872,0.0,0.0,0.0,0.0,0.0,0.0,0.0,0.0,0.0,0.0,0.0,0.0,0.0,0.0,0.0,0.0,0.0,0.0,0.0,0.0,0.0,0.0,0.0,0.0,0.0,0.0,0.0,0.0,0.0,0.0,0.0,0.0,0.0,0.0,0.0,0.0,0.0,0.0,0.0,0.0,0.0,0.0,0.0,0.0,0.0,0.0,0.0,0.0,0.0,0.0,0.0,0.0,0.0,0.0,0.0,0.0,0.0,0.0,0.0,1.832,1.7764,1.7181,1.6905,1.6977,1.7102,1.6947,0.0,0.0,0.0,0.0,0.0,0.0,0.0,0.0,0.0,0.0,0.0,0.0,0.0,0.0,0.0,0.0,0.0,0.0,0.0,0.0,0.0,0.0,0.0,0.0,0.0,0.0,0.0,0.0,0.0,0.0,0.0,0.0,0.0,0.0,0.0,0.0,0.0,0.0,0.0,0.0,0.0,0.0,0.0,0.0,0.0,0.0,0.0,0.0,0.0,0.0,0.0,0.0,0.0,0.0,0.0,0.0,0.0,0.0,0.0,0.0,0.0,0.0,0.0,0.0,0.0,0.0,0.0,0.0,0.0,0.0,0.0,0.0,0.0,0.0,0.0,0.0,0.0,0.0,0.0,0.0,0.0,0.0,0.0,0.0,0.0,0.0,0.0,0.0,0.0,0.0,0.0,0.0,0.0,0.0,0.0,0.0,0.0,0.0,0.0,0.0,0.0,0.0,0.0,0.0,0.0,0.0,0.0,1.9102,1.8597,1.8411,1.774,1.7335,1.7262,1.7421,1.7393,1.7128,0.0,0.0,0.0,0.0,0.0,0.0,0.0,0.0,0.0,0.0,0.0,0.0,0.0,0.0,0.0,0.0,0.0,0.0,0.0,0.0,0.0,0.0,0.0,0.0,0.0,0.0,0.0,0.0,0.0,0.0,0.0,0.0,0.0,0.0,0.0,0.0,0.0,0.0,0.6453,0.6496,0.0,0.0,0.0,0.0,0.0,0.0,0.0,0.0,1.019,0.0,0.0,0.0,0.0,0.0,0.0,0.0,0.0,0.0,0.0,0.0,0.0,0.0,0.0,0.0,0.0,0.0,0.0,0.0,0.0,0.0,0.0,0.0,0.0,0.0,0.0,0.0,0.0,0.0,0.0,0.0,0.0,0.0,0.0,0.0,0.0,0.0,0.0,0.0,0.0,0.0,0.0,0.0,0.0,0.0,0.0,0.0,0.0,0.0,0.0,0.0,0.0,0.0,0.0,0.0,0.0,1.9508,1.8874,1.866,1.8944,1.8152,1.7921,1.8318,1.7787,1.7679,1.7988,0.0,0.0,0.0,0.0,0.0,0.0,0.0,0.0,0.0,0.0,0.0,0.0,0.0,0.0,0.0,0.0,0.0,0.0,0.0,0.0,0.0,0.0,0.0,0.0,0.0,0.0,0.0,0.0,0.0,0.0,0.0,0.0,0.0,0.0,0.0,0.0,0.0,0.0,0.0,0.6992,0.7083,0.0,0.0,0.0,0.0,0.0,0.0,0.0,0.0,1.0659,0.0,0.0,0.0,0.0,0.0,0.0,0.0,0.0,0.0,0.0,0.0,0.0,0.0,0.0,0.0,0.0,0.0,0.0,0.0,0.0,0.0,0.0,0.0,0.0,0.0,0.0,0.0,0.0,0.0,0.0,0.0,0.0,0.0,0.0,0.0,0.0,0.0,0.0,0.0,0.0,0.0,0.0,0.0,0.0,0.0,0.0,0.0,0.0,0.0,0.0,0.0,0.0,0.0,0.0,0.0,1.9064,1.8266,1.8177,1.875,1.8197,1.8113,1.8587,1.8305,1.8201,0.0,0.0,0.0,0.0,0.0,0.0,0.0,0.0,0.0,0.0,0.0,0.0,0.0,0.0,0.0,0.0,0.0,0.0,0.0,0.0,0.0,0.0,0.0,0.0,0.0,0.0,0.0,0.0,0.0,0.0,0.0,0.0,0.0,0.0,0.0,0.0,0.0,0.0,0.0,0.0,0.7496,0.781,0.8187,0.0,0.0,0.0,0.0,0.0,0.0,1.1259,1.1569,0.0,0.0,0.0,0.0,0.0,0.0,0.0,0.0,0.0,0.0,0.0,0.0,0.0,0.0,0.0,0.0,0.0,0.0,0.0,0.0,0.0,0.0,0.0,0.0,0.0,0.0,0.0,0.0,0.0,0.0,0.0,0.0,0.0,0.0,0.0,0.0,0.0,0.0,0.0,0.0,0.0,0.0,0.0,0.0,0.0,0.0,0.0,0.0,0.0,0.0,0.0,0.0,0.0,0.0,0.0,1.88,1.7814,1.7688,1.8454,1.818,1.8254,1.8737,1.8798,1.8616,0.0,0.0,0.0,0.0,0.0,0.0,0.0,0.0,0.0,0.0,0.0,0.0,0.0,0.0,0.0,0.0,0.0,0.0,0.0,0.0,0.0,0.0,0.0,0.0,0.0,0.0,0.0,0.0,0.0,0.0,0.0,0.0,0.0,0.0,0.0,0.0,0.0,0.0,0.0,0.0,0.0,0.837,0.9023,0.8957,0.0,0.0,0.0,0.0,1.1098,1.1918,0.0,0.0,0.0,0.0,0.0,0.0,0.0,0.0,0.0,0.0,0.0,0.0,0.0,0.0,0.0,0.0,0.0,0.0,0.0,0.0,0.0,0.0,0.0,0.0,0.0,0.0,0.0,0.0,0.0,0.0,0.0,0.0,0.0,0.0,0.0,0.0,0.0,0.0,0.0,0.0,0.0,0.0,0.0,0.0,0.0,0.0,0.0,0.0,0.0,0.0,0.0,0.0,0.0,0.0,0.0,0.0,1.8962,1.7867,1.7688,1.8429,1.8178,1.8419,1.9286,1.8974,1.886,0.0,0.0,0.0,0.0,0.0,0.0,0.0,0.0,0.0,0.0,0.0,0.0,0.0,0.0,0.0,0.0,0.0,0.0,0.0,0.0,0.0,0.0,0.0,0.0,0.0,0.0,0.0,0.0,0.0,0.0,0.0,0.0,0.0,0.0,0.0,0.0,0.0,0.0,0.0,0.0,0.0,0.8568,0.9435,0.9492,0.9931,0.0,0.0,1.128,1.2307,1.2372,0.0,0.0,0.0,0.0,0.0,0.0,0.0,0.0,0.0,0.0,0.0,0.0,0.0,0.0,0.0,0.0,0.0,0.0,0.0,0.0,0.0,0.0,0.0,0.0,0.0,0.0,0.0,0.0,0.0,0.0,0.0,0.0,0.0,0.0,0.0,0.0,0.0,0.0,0.0,0.0,0.0,0.0,0.0,0.0,0.0,0.0,0.0,0.0,0.0,0.0,0.0,0.0,0.0,0.0,0.0,1.9328,1.9081,1.8315,1.7902,1.7918,1.7863,1.8108,1.8706,1.8534,1.8641,0.0,0.0,0.0,0.0,0.0,0.0,0.0,0.0,0.0,0.0,0.0,0.0,0.0,0.0,0.0,0.0,0.0,0.0,0.0,0.0,0.0,0.0,0.0,0.0,0.0,0.0,0.0,0.0,0.0,0.0,0.0,0.0,0.0,0.0,0.0,0.0,0.0,0.0,0.0,0.0,0.0,0.0,1.0494,1.0696,0.0,0.0,0.0,1.1969,1.2609,0.0,0.0,0.0,0.0,0.0,0.0,0.0,0.0,0.0,0.0,0.0,0.0,0.0,0.0,0.0,0.0,0.0,0.0,0.0,0.0,0.0,0.0,0.0,0.0,0.0,0.0,0.0,0.0,0.0,0.0,0.0,0.0,0.0,0.0,0.0,0.0,0.0,0.0,0.0,0.0,0.0,0.0,0.0,0.0,0.0,0.0,0.0,0.0,0.0,0.0,0.0,0.0,0.0,0.0,0.0,0.0,0.0,1.9429,1.8758,1.8299,1.8038,1.8158,1.839,1.8738,1.8822,0.0,0.0,0.0,0.0,0.0,0.0,0.0,0.0,0.0,0.0,0.0,0.0,0.0,0.0,0.0,0.0,0.0,0.0,0.0,0.0,0.0,0.0,0.0,0.0,0.0,0.0,0.0,1.3563,0.0,0.0,0.0,0.0,0.0,0.0,0.0,0.0,0.0,0.0,0.0,0.0,0.0,0.0,1.0623,1.1576,1.1943,1.2291,0.0,0.0,1.2632,1.2957,1.3334,1.3563,0.0,0.0,0.0,0.0,0.0,0.0,0.0,0.0,0.0,0.0,0.0,0.0,0.0,0.0,0.0,0.0,0.0,0.0,0.0,0.0,0.0,0.0,0.0,0.0,0.0,0.0,0.0,0.0,0.0,0.0,0.0,0.0,0.0,0.0,0.0,0.0,0.0,0.0,0.0,0.0,0.0,0.0,0.0,0.0,0.0,0.0,0.0,0.0,0.0,0.0,0.0,0.0,0.0,0.0,0.0,2.0094,1.8999,1.8758,1.9438,1.9588,1.9868,2.0258,2.0542,2.0294,0.0,0.0,0.0,0.0,0.0,0.0,0.0,0.0,0.0,0.0,0.0,0.0,0.0,0.0,0.0,0.0,0.0,0.0,0.0,0.0,0.0,0.0,0.0,0.0,0.0,0.0,0.0,0.0,0.0,0.0,0.0,0.0,0.0,0.0,0.0,0.0,0.0,0.0,0.0,0.0,0.0,1.1862,1.2423,1.2943,1.3236,0.0,0.0,1.3331,1.3821,1.3726,1.3705,1.3884,0.0,0.0,0.0,0.0,0.0,0.0,0.0,0.0,0.0,0.0,0.0,0.0,0.0,0.0,0.0,0.0,0.0,0.0,0.0,0.0,0.0,0.0,0.0,0.0,0.0,0.0,0.0,0.0,0.0,0.0,0.0,0.0,0.0,0.0,0.0,0.0,0.0,0.0,0.0,0.0,0.0,0.0,0.0,0.0,0.0,0.0,0.0,0.0,0.0,0.0,0.0,0.0,0.0,2.0708,2.0695,1.9829,1.9391,1.9416,1.9501,1.9743,2.014,2.0377,2.0275,0.0,0.0,0.0,0.0,0.0,0.0,0.0,0.0,0.0,0.0,0.0,0.0,0.0,0.0,0.0,0.0,0.0,0.0,0.0,0.0,0.0,0.0,0.0,0.0,0.0,0.0,0.0,0.0,1.4605,1.4563,1.4756,0.0,0.0,0.0,0.0,0.0,0.0,0.0,0.0,0.0,0.0,1.2524,1.3097,1.3634,0.0,0.0,1.3684,1.3742,1.3973,1.4057,1.4186,1.4419,1.4233,0.0,0.0,0.0,0.0,0.0,0.0,0.0,0.0,0.0,0.0,0.0,0.0,0.0,0.0,0.0,0.0,0.0,0.0,0.0,0.0,0.0,0.0,0.0,0.0,0.0,0.0,0.0,0.0,0.0,0.0,0.0,0.0,0.0,0.0,0.0,0.0,0.0,0.0,0.0,0.0,0.0,0.0,0.0,0.0,0.0,0.0,0.0,0.0,0.0,0.0,0.0,0.0,2.0845,2.0979,2.0372,1.9903,1.965,1.9674,1.9892,2.0318,2.048,2.0567,0.0,0.0,0.0,0.0,0.0,0.0,0.0,0.0,0.0,0.0,0.0,0.0,0.0,0.0,0.0,0.0,0.0,0.0,0.0,0.0,0.0,0.0,0.0,0.0,0.0,0.0,0.0,0.0,1.5482,1.5323,1.4699,0.0,0.0,0.0,0.0,0.0,0.0,0.0,0.0,0.0,0.0,1.3446,1.3804,1.4133,1.4294,1.4201,1.3967,1.3894,1.428,1.4419,1.4605,1.4789,0.0,0.0,0.0,0.0,0.0,0.0,0.0,0.0,0.0,0.0,0.0,0.0,0.0,0.0,0.0,0.0,0.0,0.0,0.0,0.0,0.0,0.0,0.0,0.0,0.0,0.0,0.0,0.0,0.0,0.0,2.1361,0.0,0.0,0.0,0.0,0.0,0.0,0.0,0.0,0.0,0.0,0.0,0.0,0.0,0.0,0.0,0.0,0.0,0.0,0.0,0.0,0.0,0.0,2.0459,2.1006,2.0472,2.0227,2.0343,2.0368,2.057,2.1029,2.1267,2.1412,2.1476,0.0,0.0,0.0,0.0,0.0,0.0,0.0,0.0,0.0,0.0,0.0,0.0,0.0,0.0,0.0,0.0,0.0,0.0,0.0,0.0,0.0,0.0,0.0,0.0,0.0,0.0,1.53,1.6152,1.629,0.0,0.0,0.0,0.0,0.0,0.0,0.0,0.0,0.0,0.0,1.4914,1.463,1.4699,1.4503,1.4411,1.4665,1.3878,1.3684,1.4869,1.496,1.496,0.0,0.0,0.0,0.0,0.0,0.0,0.0,0.0,0.0,0.0,0.0,0.0,0.0,0.0,0.0,0.0,0.0,0.0,0.0,0.0,0.0,0.0,0.0,0.0,0.0,0.0,0.0,2.008,2.0271,0.0,0.0,0.0,0.0,0.0,0.0,0.0,0.0,0.0,0.0,0.0,2.0409,2.0523,0.0,0.0,0.0,0.0,0.0,0.0,0.0,0.0,0.0,0.0,0.0,0.0,2.0746,2.0845,2.0156,1.9995,2.0376,2.0122,2.0228,2.0694,2.1623,2.2329,2.2755,0.0,0.0,0.0,0.0,0.0,0.0,0.0,0.0,0.0,0.0,0.0,0.0,0.0,0.0,0.0,0.0,0.0,0.0,0.0,0.0,0.0,0.0,0.0,0.0,0.0,1.5344,0.0,0.0,0.0,0.0,0.0,0.0,0.0,0.0,0.0,0.0,0.0,1.4762,1.5146,1.5229,1.5318,1.5552,1.5427,1.5355,0.0,0.0,0.0,0.0,0.0,0.0,0.0,0.0,0.0,0.0,0.0,0.0,0.0,0.0,1.6696,1.5363,1.4935,1.4788,1.4788,0.0,0.0,0.0,0.0,0.0,0.0,0.0,0.0,0.0,0.0,0.0,0.0,0.0,0.0,1.9747,0.0,2.0346,0.0,0.0,0.0,0.0,0.0,0.0,0.0,0.0,2.0118,1.9978,1.9978,2.0131,2.022,0.0,2.0169,2.0308,0.0,0.0,0.0,0.0,0.0,0.0,0.0,0.0,2.0696,2.056,1.9952,1.9794,2.0005,1.9612,1.9642,2.0196,2.1694,2.2547,2.2613,2.1843,2.1347,0.0,0.0,0.0,0.0,0.0,0.0,0.0,0.0,0.0,0.0,0.0,0.0,0.0,0.0,0.0,0.0,0.0,0.0,0.0,0.0,0.0,0.0,0.0,1.5731,0.0,0.0,0.0,0.0,0.0,0.0,0.0,0.0,0.0,1.6114,1.5894,1.5856,1.6076,1.5854,1.5763,1.6046,0.0,0.0,0.0,0.0,0.0,0.0,0.0,1.5579,1.5944,1.6471,1.6842,1.6943,1.7478,1.7919,1.8081,0.0,0.0,1.6404,1.5956,1.5839,1.5829,1.5924,1.5977,1.5871,1.5903,1.5977,0.0,0.0,0.0,0.0,0.0,0.0,0.0,0.0,1.9747,1.9786,0.0,1.9991,0.0,0.0,0.0,0.0,0.0,1.9823,0.0,0.0,1.9617,1.9617,1.9617,1.9978,2.0169,2.0182,2.0003,1.9991,1.9991,1.9991,0.0,0.0,0.0,0.0,0.0,0.0,2.0195,2.0182,1.9914,1.9643,1.9399,1.8886,1.893,1.9661,2.1445,2.2062,2.1312,2.2584,2.2854,2.1807,2.0735,0.0,0.0,0.0,0.0,0.0,0.0,0.0,0.0,0.0,0.0,0.0,0.0,0.0,0.0,0.0,0.0,0.0,0.0,0.0,0.0,1.6592,0.0,0.0,0.0,0.0,0.0,0.0,0.0,0.0,0.0,0.0,1.7746,1.6936,1.6747,1.7792,0.0,0.0,0.0,0.0,1.6288,1.6718,1.5933,1.5536,1.6204,1.6212,1.6156,1.6093,0.0,0.0,1.8013,1.8482,1.8614,1.8193,1.8139,1.8084,1.8061,1.7544,1.7213,1.7213,1.683,1.6721,1.7093,1.6885,1.6688,1.8762,0.0,0.0,0.0,0.0,1.9186,1.9291,1.9512,1.9081,1.8975,1.9028,1.95,0.0,0.0,0.0,0.0,0.0,0.0,1.9617,1.9565,1.9303,1.9198,1.9198,1.9303,1.9356,1.9344,1.9291,1.9448,1.9708,1.9708,1.9965,2.0422,0.0,0.0,0.0,0.0,2.0131,2.0042,1.9862,1.9656,1.942,1.904,1.9166,1.9815,2.0906,2.187,2.2634,2.3081,2.3163,2.2823,2.1111,0.0,0.0,0.0,0.0,0.0,0.0,0.0,0.0,0.0,0.0,0.0,0.0,0.0,0.0,0.0,0.0,0.0,0.0,0.0,1.6904,1.6996,1.6873,0.0,0.0,0.0,0.0,0.0,0.0,0.0,0.0,0.0,1.7564,1.7665,1.7584,0.0,0.0,1.6764,1.6888,1.6779,1.7031,1.8059,1.7417,0.0,0.0,1.7677,1.7424,1.7819,1.832,1.8854,1.9333,1.9101,1.8744,1.8637,1.8302,1.8084,1.8084,1.7975,1.7843,1.7831,1.773,1.7684,1.7809,1.7718,1.7684,1.8548,1.8255,1.8845,1.9133,1.9069,1.8922,1.8987,1.921,1.8881,1.8774,1.8774,1.9198,1.9303,1.9133,1.9565,0.0,0.0,0.0,1.9344,1.9356,1.9105,1.8987,1.8987,1.8987,1.8987,1.8987,1.9291,1.9448,1.9617,2.0016,2.022,2.0271,0.0,0.0,2.0549,2.041,2.0233,2.0093,1.9978,1.9759,1.946,1.8987,1.8809,1.9059,1.9956,2.1077,2.2396,2.3001,2.3571,2.4112,2.1972,2.0685,0.0,0.0,0.0,0.0,0.0,0.0,0.0,0.0,0.0,0.0,0.0,1.6458,1.6646,0.0,0.0,0.0,1.6681,1.7079,1.7454,1.7318,0.0,0.0,0.0,0.0,0.0,0.0,0.0,1.7262,1.7683,1.8118,1.8486,1.9009,1.8948,1.7784,1.7793,1.7914,1.7953,0.0,1.828,1.9039,1.8714,1.852,1.8918,1.8621,1.8478,1.8935,1.9243,1.953,1.9889,1.9592,1.9146,1.8839,1.8572,1.8313,1.815,1.8084,1.8084,1.8084,1.8084,1.8084,1.8084,1.8084,1.8084,1.8483,1.7831,1.8018,1.829,1.856,1.8572,1.8721,1.8987,1.8987,1.8987,1.8987,1.8987,1.8987,1.8987,1.8987,0.0,1.8987,1.8987,1.8987,1.8987,1.8987,1.8987,1.8987,1.8987,1.8987,1.8987,1.9643,1.985,1.9656,2.0673,2.0921,2.0409,2.0472,2.0536,2.0712,2.0549,2.0398,2.022,2.0093,1.9875,1.9565,1.8762,1.8116,1.7776,1.8891,1.9976,2.0953,2.2357,2.3746,2.4993,2.2809,2.164,2.1885,0.0,0.0,0.0,0.0,0.0,0.0,0.0,0.0,0.0,0.0,0.0,0.0,0.0,0.0,0.0,1.6715,0.0,1.8202,1.7593,0.0,0.0,0.0,1.618,1.6047,1.6611,1.7186,1.761,0.0,0.0,2.0041,2.0657,2.0555,1.9256,1.9253,1.9338,1.9169,1.943,1.974,1.9822,1.9785,1.9617,1.9385,1.9272,1.9256,1.9594,1.9768,1.9928,2.0041,1.9991,1.9695,1.9093,1.8851,1.8744,1.8302,1.8247,1.8193,1.8247,1.8193,1.8139,1.8193,1.8247,1.829,1.8483,1.8655,1.8267,1.805,1.7941,1.8104,1.8483,1.8987,1.8987,1.8987,1.8987,1.8987,1.8987,1.8987,1.8987,1.8987,1.8987,1.8987,1.8987,1.8987,1.8987,1.8987,1.8987,1.8987,1.8987,1.904,1.95,1.9656,1.9656,2.0459,2.0759,2.056,2.0871,2.0885,2.0699,2.0636,2.0472,2.022,2.0093,1.9823,1.9473,1.8934,1.8476,1.8018,1.9176,1.9843,1.9913,2.1009,2.1792,2.2088,2.05,1.9438,1.9123,1.8425,0.0,0.0,0.0,0.0,0.0,0.0,0.0,0.0,0.0,1.6467,1.6723,0.0,1.6546,0.0,1.763,1.8198,1.8878,1.847,0.0,0.0,1.8404,1.8347,1.8115,1.8584,1.8975,1.908,1.939,1.9792,2.026,2.0855,2.1069,2.071,2.033,1.9918,1.9631,1.9614,1.998,2.0701,2.0582,2.0446,2.0674,2.0302,1.9948,2.0065,2.0291,2.0505,2.0523,2.0258,1.994,1.9747,1.946,1.921,1.9105,1.9105,1.9105,1.9052,1.8839,1.8637,1.8637,1.8839,1.9146,1.7831,1.7952,1.7831,1.771,1.7611,1.8267,1.8548,1.8602,1.8602,1.8602,1.8602,1.859,1.8602,1.8602,1.859,1.8762,1.8987,1.8987,1.8987,1.8987,1.8987,1.8987,1.8987,1.8987,1.8987,1.904,1.9408,1.9617,1.9668,2.0409,2.0795,2.0809,2.1118,2.1166,2.0983,2.0835,2.0599,2.0347,2.0144,1.9888,1.9565,1.9158,1.8679,1.8255,1.8665,1.9123,1.9487,2.0086,2.0885,2.1872,2.02,1.9228,1.9318,1.8254,1.7165,0.0,0.0,0.0,0.0,0.0,0.0,0.0,0.0,0.0,0.0,0.0,1.7035,1.7915,1.8113,1.8364,1.8846,1.8545,1.8414,1.8508,1.8878,1.9061,1.8898,1.9338,1.9738,1.9927,2.0249,2.0578,2.104,2.1641,2.1967,2.186,2.1549,2.11,2.0602,2.0544,2.0868,2.14,2.1476,2.1496,2.1756,2.1055,2.0459,2.0573,2.0586,2.0612,2.0712,2.0485,2.0258,2.0055,1.9798,1.9604,1.9473,1.942,1.942,1.942,1.9356,1.9263,1.9117,1.921,1.9473,1.7112,1.6786,1.7168,1.7379,1.7501,1.8429,1.8548,1.8093,1.8104,1.8093,1.8038,1.8093,1.8104,1.8093,1.8093,1.8441,1.8999,1.8987,1.8987,1.9052,1.8987,1.8987,1.9052,1.8987,1.8987,1.9052,1.9408,1.9617,1.9565,2.0396,2.0894,2.0944,2.1251,2.1423,2.1423,2.1122,2.0788,2.0511,2.0195,1.999,1.9798,1.9344,1.8815,1.8387,1.803,1.8265,1.9236,1.9284,2.0218,2.2146,2.0353,1.9586,2.0335,1.8439,1.7082,0.0,1.6557,0.0,0.0,0.0,0.0,0.0,0.0,0.0,0.0,1.7214,1.765,1.8513,1.849,1.8457,1.8659,1.8507,1.8405,1.8405,1.89,1.9212,1.9212,1.961,2.0117,2.0583,2.1076,2.1579,2.2033,2.2614,2.2797,2.2572,2.2483,2.2165,2.163,2.1608,2.1784,2.1859,2.2245,2.2299,2.2135,2.1479,2.0957,2.0944,2.0822,2.0599,2.0699,2.0699,2.0599,2.0207,2.0105,1.9952,1.9629,1.9577,1.9629,1.9668,1.9901,1.9952,1.9617,1.9577,1.9565,1.7123,1.7457,1.7078,1.719,1.7667,1.7886,1.7995,1.8093,1.8213,1.7995,1.76,1.805,1.8201,1.8093,1.8093,1.8441,1.8999,1.8987,1.904,1.9182,1.904,1.9052,1.917,1.9052,1.9052,1.917,1.946,1.946,1.9275,2.0547,2.0993,2.0709,2.1361,2.165,2.1554,0.0,0.0,0.0,2.0283,2.0016,1.9798,1.9604,1.9251,1.8732,1.8637,0.0,1.8064,1.8017,1.8141,1.8352,1.7981,0.0,0.0,0.0,0.0,0.0,0.0,0.0,0.0,0.0,0.0,0.0,1.7195,1.7243,1.7352,1.7946,1.8387,1.8591,1.9145,1.9522,1.9572,1.9535,1.9497,1.9497,1.9986,2.0283,2.0345,2.0743,2.1293,2.1773,2.1978,2.2186,2.261,2.2844,2.2843,2.2661,2.2615,2.237,2.1807,2.1956,2.2118,2.2139,2.2251,2.2289,2.2183,2.1855,2.1444,2.1153,2.1166,2.1095,2.0799,2.0699,2.0699,2.0536,2.0536,2.0536,2.0448,2.0448,2.0435,2.0636,2.0736,2.0623,2.0055,2.0169,2.0549,1.7311,0.0,1.7616,1.7781,0.0,1.828,1.8135,1.7834,1.7933,1.7667,1.7157,1.771,1.7995,1.7929,1.7875,1.8375,1.921,1.9198,1.921,1.9275,1.9239,1.9251,1.9275,1.9251,1.9251,1.9328,1.9708,1.985,1.9759,2.0845,2.1348,2.1299,2.165,2.1902,2.2077,2.1698,2.1229,2.0762,2.0536,2.0321,2.0207,1.985,1.95,1.904,0.0,0.0,0.0,0.0,0.0,0.0,0.0,0.0,0.0,0.0,0.0,1.7278,1.7038,1.7114,1.7481,1.7413,1.7537,1.8001,1.8154,1.8085,1.792,1.8544,1.8992,1.9108,1.9521,1.9798,1.9798,1.9798,1.9798,1.985,2.0308,2.061,2.066,2.1091,2.1527,2.1841,2.2109,2.2388,2.2678,2.2888,2.2947,2.2843,2.2783,2.2615,2.23,2.2175,2.2218,2.2369,2.241,2.2446,2.2482,2.2231,2.1983,2.1766,2.1431,2.1215,2.1082,2.0835,2.0699,2.0699,2.0699,2.0699,2.0699,2.0699,2.0749,2.0848,2.0848,2.0749,2.0422,2.0736,2.1095,1.7595,1.7595,1.8139,1.8323,1.8384,1.8676,1.8376,1.7739,0.0,0.0,0.0,1.749,1.7765,1.7831,1.7831,1.8441,1.9368,1.9519,1.9568,1.9568,1.9695,1.9731,1.9768,1.9731,1.9731,1.9756,2.0142,2.0335,2.0437,2.1242,2.1807,2.1996,2.1935,2.2137,2.2477,2.2077,2.1664,2.1229,2.0809,2.0623,2.061,2.0105,1.9695,1.9331,1.9093,1.8732,1.8302,1.8247,1.8589,1.9301,1.8361,1.8105,1.8853,1.7991,1.7445,1.7434,1.7434,1.7656,1.8139,1.8193,1.8464,1.904,1.9093,1.8911,1.8566,1.9047,1.9485,1.9602,1.972,1.9798,1.9798,1.9798,1.9798,1.9798,2.0308,2.061,2.066,2.1028,2.1382,2.1602,2.1921,2.2128,2.2328,2.2678,2.2992,2.2947,2.2888,2.2857,2.263,2.2341,2.2289,2.2511,2.2579,2.2664,2.2798,2.2661,2.2417,2.2374,2.1813,2.1334,2.1264,2.1082,2.0848,2.0699,2.0699,2.0699,2.0699,2.0699,2.0699,2.0762,2.0749,2.0799,2.0898,2.118,2.1423,1.8027,1.7915,1.8038,1.8038,1.8038,1.7915,1.8179,1.8583,1.7581,1.7056,1.7,1.7589,1.8081,1.8352,1.8363,1.8762,1.9393,1.9846,2.0175,0.0,2.0724,2.0958,2.1002,2.089,2.0946,2.1008,2.0942,2.0912,2.1134,2.164,2.1935,2.203,2.231,2.2417,2.2278,2.217,2.2137,2.203,2.1202,2.0696,2.061,2.0321,2.0016,1.9747,1.9708,1.9396,1.8881,1.8798,1.8625,1.8505,1.8207,1.8123,1.8235,1.8077,1.7975,1.7975,1.7975,1.8139,1.8506,1.8637,1.8893,1.9316,1.9368,1.9279,1.9125,1.9279,1.9433,1.9602,1.9733,1.9798,1.9798,1.9798,1.9798,1.985,2.0245,2.066,2.0696,2.0795,2.1091,2.1602,2.1396,2.1431,2.1888,2.2278,2.2523,2.2569,2.2692,2.2797,2.2571,2.2358,2.2331,2.2537,2.2618,2.2688,2.283,2.2979,2.276,2.2449,2.2434,2.2095,2.1458,2.1313,2.118,2.0749,2.0749,2.0699,2.0699,2.0699,2.0749,2.0898,2.0947,2.1033,2.1423,2.1616,2.1664,1.8903,1.885,1.885,1.8839,1.8828,1.8512,1.8584,1.8841,1.8029,1.7787,1.809,1.8577,1.8953,1.9235,1.9638,2.0092,2.0686,2.0882,2.1037,2.1129,2.1312,2.1493,2.166,2.1617,2.1617,2.169,2.1548,2.1666,2.1944,2.2261,2.248,2.2692,2.2918,2.2828,2.2495,2.2495,2.2449,2.2417,2.1779,2.1348,2.1153,2.0871,2.0573,2.0245,2.0029,1.9772,1.9436,1.9263,1.9052,1.8869,1.8732,1.8572,1.8464,1.8302,1.8182,1.8084,1.8084,1.8302,1.8679,1.8999,1.921,1.9368,1.942,1.942,1.9433,1.946,1.9577,1.9681,1.9759,1.985,1.9901,1.9888,1.9952,2.0016,2.0271,2.0422,2.0459,2.0472,2.0673,2.1019,2.1104,2.1237,2.1568,2.1855,2.2091,2.2077,2.2356,2.2449,2.2263,2.2344,2.2429,2.2412,2.2383,2.2492,2.2702,2.2769,2.2778,2.2775,2.2646,2.2434,2.2016,2.1935,2.1568,2.118,2.1095,2.0947,2.0799,2.0699,2.0749,2.0812,2.0947,2.1131,2.1326,2.1554,2.1793,1.9868,1.9868,1.9868,1.9868,1.9835,1.9479,1.9307,1.9338,1.8908,1.8942,1.936,1.9616,1.9831,2.0122,2.0824,2.1344,2.1771,2.1886,2.1949,2.1962,2.2076,2.2209,2.239,2.2377,2.2313,2.2244,2.2181,2.2275,2.2509,2.2593,2.2799,2.3172,2.3304,2.3216,2.2934,2.2889,2.2859,2.2783,2.2431,2.2091,2.1712,2.1423,2.1068,2.0759,2.0385,2.0131,1.9952,1.9668,1.9525,1.9525,1.9251,1.904,1.8958,1.8667,1.8506,1.841,1.841,1.8572,1.8958,1.9263,1.9473,1.9512,1.9525,1.9577,1.9668,1.9668,1.9708,1.9811,1.9888,1.9939,2.0003,2.0067,2.008,2.0169,2.022,2.0233,2.0283,2.0296,2.0347,2.0549,2.0871,2.1104,2.1277,2.1506,2.1712,2.1855,2.2016,2.2109,2.2016,2.2342,2.2404,2.2374,2.2266,2.2276,2.2475,2.2574,2.2693,2.2964,2.2832,2.2655,2.2572,2.2342,2.2016,2.1636,2.141,2.1326,2.0983,2.0835,2.0848,2.0898,2.1046,2.1131,2.1277,2.165,2.1949,2.0635,2.0775,2.0775,2.07,2.0506,2.0451,2.0482,2.0621,2.0437,2.0501,2.0619,2.0261,2.0401,2.0905,2.163,2.1946,2.2095,2.2475,2.2706,2.277,2.3173,2.3462,2.341,2.3436,2.3251,2.2963,2.2856,2.2613,2.2383,2.2337,2.248,2.2934,2.3377,2.3566,2.3508,2.3451,2.3407,2.3422,2.3112,2.2661,2.1996,2.1568,2.1326,2.1131,2.0858,2.066,2.051,2.0182,1.9939,1.9939,1.9577,1.9368,1.9316,1.9316,1.9316,1.9263,1.9263,1.9368,1.9512,1.9565,1.9656,1.9747,1.9759,1.9823,1.9926,1.999,1.999,1.999,2.0105,2.0156,2.0182,2.0181,2.0218,2.022,2.0233,2.0283,2.0448,2.0461,2.0511,2.0662,2.0749,2.0762,2.0848,2.1082,2.1375,2.1602,2.1793,2.1935,2.2156,2.2249,2.2285,2.2461,2.2386,2.2236,2.2281,2.2451,2.2553,2.268,2.2968,2.2936,2.2717,2.2709,2.2649,2.2095,2.1766,2.1602,2.1506,2.1313,2.1046,2.118,2.1326,2.1423,2.165,2.203,2.2263,2.1031,2.1083,2.1094,2.1031,2.0955,2.0955,2.1031,2.1031,2.0955,2.1031,2.1112,2.1353,2.1655,2.2012,2.2635,2.3096,2.3393,2.3558,2.3676,2.3676,2.391,2.4086,2.4203,2.4216,2.4173,2.4053,2.3298,2.2987,2.3156,2.2998,2.3054,2.3334,2.3782,2.3994,2.3894,2.3839,2.3769,2.3683,2.3494,2.326,2.2934,2.2402,2.1949,2.1554,2.1299,2.1068,2.0835,2.051,2.0271,2.0131,1.9978,1.9772,1.9512,1.9512,1.946,1.942,1.9565,1.9656,1.9708,1.9862,1.9978,2.0016,2.0016,2.0067,2.0131,2.0246,2.0309,2.0309,2.0233,2.022,2.0347,2.037,2.0395,2.0485,2.0562,2.0625,2.0738,2.0775,2.0799,2.0848,2.0875,2.0825,2.0825,2.0848,2.0871,2.1055,2.1264,2.165,2.1732,2.2109,2.2342,2.2324,2.24,2.2404,2.2263,2.2147,2.2277,2.2528,2.2746,2.2769,2.2884,2.2995,2.2979,2.2515,2.2282,2.2109,2.1955,2.1602,2.1277,2.1458,2.141,2.1458,2.1746,2.2123,2.2324,2.1221,2.1273,2.1273,2.1273,2.1348,2.1336,2.1411,2.1612,2.1612,2.16,2.1663,2.2211,2.2628,2.2932,2.3543,2.3956,2.4073,2.435,2.4408,2.435,2.4408,2.465,2.4765,2.4821,2.4854,2.4763,2.3892,2.3639,2.4099,2.3919,2.3849,2.4094,2.4364,2.4492,2.4395,2.4328,2.4353,2.448,2.4295,2.4195,2.4109,2.3629,2.2973,2.2292,2.1888,2.1589,2.141,2.1019,2.0723,2.0536,2.0385,2.0169,1.9914,1.9811,1.972,1.9565,1.9759,1.9914,1.9914,2.0118,2.0271,2.0283,2.0283,2.0321,2.0321,2.0435,2.0549,2.0575,2.0448,2.0498,2.0562,2.061,2.066,2.0749,2.0861,2.0938,2.0924,2.0947,2.0997,2.0997,2.0974,2.0924,2.0924,2.0848,2.0723,2.0723,2.1019,2.1313,2.141,2.2016,2.2466,2.2296,2.2575,2.2547,2.228,2.2108,2.2148,2.2303,2.2524,2.2666,2.2937,2.3085,2.3215,2.2832,2.2834,2.2799,2.2558,2.2156,2.1793,2.1888,2.1921,2.1874,2.2109,2.2402,2.254,2.1313,2.1553,2.1553,2.1491,2.1553,2.1553,2.1951,2.2432,2.2543,2.2555,2.2555,2.2616,2.2921,2.339,2.406,2.406,2.3688,2.4492,2.4708,2.4408,2.4821,2.509,2.5356,2.5342,2.519,2.4992,2.4716,2.461,2.4664,2.4654,2.4803,2.5195,2.5249,2.5217,2.5226,2.5195,2.5417,2.5964,2.5774,2.5676,2.5634,2.528,2.4442,2.3423,2.2709,2.2406,2.2328,2.1732,2.1375,2.1326,2.0871,2.056,2.0523,2.0321,2.0131,2.0029,2.0131,2.0182,2.022,2.0372,2.0422,2.0422,2.0523,2.061,2.0623,2.0623,2.0736,2.0875,2.0898,2.0911,2.0924,2.0885,2.0885,2.0934,2.0983,2.0997,2.0983,2.1046,2.0997,2.0983,2.1046,2.1046,2.1046,2.0997,2.0983,2.0983,2.1046,2.118,2.1602,2.2063,2.242,2.2663,2.2799,2.2743,2.2309,2.2191,2.218,2.23,2.2403,2.2477,2.2661,2.2841,2.2998,2.3077,2.2842,2.2843,2.2995,2.2979,2.2694,2.2663,2.2754,2.2799,2.248,2.2949,2.3038,2.0828,2.0944,2.0933,2.0933,2.0944,2.0944,2.1388,2.2013,2.2013,2.2285,2.2678,2.28,2.2909,2.315,2.4002,2.4176,2.3969,2.465,2.4892,2.4821,2.5384,2.5784,2.5825,2.5879,2.5943,2.5954,2.536,2.5062,2.5206,2.5741,2.6162,2.6392,2.6677,2.6864,2.6848,2.6752,2.6872,2.7065,2.6901,2.6802,2.6755,2.6208,2.5639,2.5197,2.3746,2.2949,2.2754,2.248,2.2189,2.186,2.1541,2.1202,2.0894,2.061,2.0523,2.066,2.0772,2.0921,2.1068,2.1068,2.1019,2.1033,2.0934,2.097,2.1068,2.1118,2.1215,2.1375,2.1471,2.152,2.1458,2.1251,2.0993,2.0983,2.1082,2.1131,2.1131,2.118,2.1229,2.1277,2.1313,2.1375,2.1326,2.1326,2.1471,2.1602,2.1506,2.1554,2.1793,2.2203,2.2466,2.2434,2.2873,2.3142,2.2603,2.2407,2.2305,2.2295,2.2327,2.2359,2.2477,2.2555,2.2695,2.297,2.2807,2.2907,2.3157,2.3143,2.2963,2.2785,2.292,2.3157,2.2754,2.326,2.329,2.0582,2.0582,2.0582,2.0571,2.0571,2.0571,2.0996,2.1741,2.1729,2.2199,2.286,2.3042,2.309,2.321,2.378,2.4015,2.4015,2.465,2.4991,2.5104,2.5729,2.6165,2.6433,2.6433,2.6592,2.6782,2.6426,2.6229,2.6453,2.7133,2.7556,2.7756,2.7981,2.8083,2.8083,2.7987,2.8069,2.8208,2.8217,2.8176,2.8111,2.7583,2.713,2.668,2.5228,2.399,2.3421,2.3231,2.2965,2.2512,2.2296,2.1908,2.1417,2.114,2.1104,2.1202,2.1313,2.1458,2.1616,2.1602,2.1616,2.1602,2.1458,2.1471,2.1616,2.1616,2.1712,2.1793,2.1841,2.1935,2.1935,2.167,2.1382,2.1361,2.141,2.141,2.1506,2.1616,2.1664,2.1712,2.1759,2.1759,2.1712,2.1759,2.1855,2.203,2.1949,2.1935,2.203,2.2388,2.2512,2.2249,2.2949,2.3216,2.3083,2.2962,2.2765,2.2673,2.2507,2.2456,2.2431,2.2465,2.2512,2.278,2.2952,2.3124,2.3193,2.3199,2.3026,2.2725,2.3143,2.361,2.3465,2.3551,2.3595,2.0582,2.0506,2.0582,2.0442,2.0366,2.0302,2.0985,2.1865,2.199,2.2457,2.315,2.333,2.345,2.3569,2.3675,2.3628,2.3793,2.4549,2.4991,2.5133,2.5715,2.6365,2.7026,2.7078,2.7115,2.7218,2.7799,2.8227,2.8467,2.8666,2.8943,2.9204,2.8976,2.8903,2.8762,2.8891,2.9147,2.9594,2.9688,2.9761,2.9744,2.9324,2.8761,2.8066,2.6976,2.5839,2.456,2.4036,2.3666,2.3334,2.3068,2.2649,2.2175,2.2002,2.1888,2.1746,2.1746,2.1855,2.1888,2.1996,2.203,2.203,2.2077,2.2077,2.1996,2.1996,2.203,2.2077,2.2091,2.2137,2.2278,2.2217,2.2123,2.2184,2.1888,2.1902,2.2077,2.217,2.217,2.217,2.217,2.2184,2.2217,2.217,2.2231,2.231,2.231,2.231,2.2278,2.2709,2.2785,2.2634,2.3054,2.348,2.3581,2.361,2.3348,2.3167,2.2926,2.2786,2.2751,2.2762,2.2652,2.2802,2.2625,2.2758,2.3019,2.3043,2.3309,2.3244,2.3702,2.3939,2.3861,2.3866,2.4061,1.9933,1.9933,1.9933,1.9868,1.9868,1.9857,2.0302,2.1083,2.1568,2.2183,2.2811,2.3327,2.3577,2.3628,2.376,2.3819,2.3819,2.4229,2.4492,2.4851,2.5797,2.6418,2.6736,2.7167,2.7386,2.7575,2.8158,2.8764,2.9194,2.9551,2.9996,3.0356,3.0348,3.0342,3.0369,3.0437,3.0588,3.0723,3.0774,3.0752,3.0589,3.004,2.9555,2.9226,2.8445,2.769,2.6983,2.5552,2.4679,2.4395,2.3991,2.3376,2.283,2.2618,2.2618,2.2632,2.2663,2.2768,2.2814,2.2663,2.2572,2.248,2.2402,2.237,2.2417,2.2417,2.2509,2.2692,2.2752,2.2797,2.2904,2.2754,2.2586,2.2231,2.2217,2.2217,2.237,2.2402,2.2402,2.2434,2.248,2.2572,2.2618,2.2618,2.2663,2.2859,2.2814,2.2723,2.2904,2.3127,2.326,2.2979,2.348,2.3739,2.3653,2.3824,2.3952,2.3809,2.3591,2.343,2.3369,2.3211,2.3075,2.2826,2.2612,2.2679,2.2873,2.3223,2.3632,2.3639,2.3842,2.3957,2.3972,2.4337,2.4872,2.0064,2.0194,2.0183,2.0118,2.0064,2.0064,2.0313,2.085,2.1499,2.2157,2.2738,2.3386,2.3767,2.3852,2.3982,2.4099,2.4171,2.4287,2.439,2.4637,2.5508,2.6229,2.6654,2.7321,2.764,2.7875,2.8511,2.9088,2.954,3.014,3.0675,3.1095,3.119,3.1196,3.1308,3.1308,3.1308,3.1308,3.1291,3.1269,3.1106,3.0717,3.0441,3.0263,2.964,2.9139,2.8721,2.7339,2.6221,2.5536,2.4804,2.4158,2.3694,2.3493,2.3377,2.3421,2.3348,2.3304,2.3392,2.3246,2.3143,2.3009,2.2934,2.2889,2.2949,2.2994,2.3098,2.3231,2.329,2.3319,2.3348,2.329,2.3024,2.2754,2.2618,2.2678,2.2783,2.2859,2.292,2.2965,2.3009,2.3054,2.3098,2.3068,2.3113,2.3304,2.326,2.3201,2.3392,2.3538,2.3436,2.3436,2.3653,2.3724,2.3638,2.3979,2.4467,2.4451,2.4297,2.4277,2.4214,2.4024,2.386,2.3423,2.3152,2.3525,2.3767,2.4269,2.4662,2.442,2.4393,2.5273,2.5873,2.6098,2.6448,2.0839,2.1169,2.1169,2.1031,2.0839,2.0828,2.0955,2.1158,2.1764,2.238,2.2957,2.3577,2.4015,2.4176,2.4247,2.4376,2.4492,2.4563,2.4563,2.4708,2.5189,2.5837,2.6864,2.7625,2.8005,2.8152,2.8716,2.9241,2.9673,3.0251,3.0982,3.1346,3.1385,3.1479,3.1517,3.1517,3.1517,3.15,3.15,3.15,3.1479,3.1483,3.1355,3.121,3.0598,3.0166,2.9875,2.911,2.8002,2.6659,2.5488,2.4942,2.4823,2.442,2.4173,2.4147,2.3867,2.3724,2.3681,2.3724,2.3638,2.3508,2.3551,2.3595,2.3508,2.3508,2.3523,2.3508,2.3551,2.3566,2.3551,2.3551,2.3508,2.3551,2.3246,2.3172,2.3451,2.3581,2.3551,2.3595,2.3638,2.3638,2.3638,2.3581,2.3581,2.3653,2.3681,2.3724,2.3767,2.3852,2.3739,2.3867,2.4147,2.4188,2.4214,2.4354,2.4831,2.5091,2.4958,2.4902,2.4894,2.4673,2.4658,2.4227,2.3983,2.4355,2.4584,2.4912,2.5337,2.5379,2.5978,2.7197,2.7512,2.7353,2.7528,2.1094,2.1233,2.1233,2.1158,2.1094,2.1094,2.1158,2.1279,2.187,2.2399,2.2969,2.3541,2.3897,2.3956,2.4363,2.4319,2.4261,2.4492,2.4721,2.4892,2.5118,2.5892,2.7004,2.7875,2.8299,2.8348,2.8716,2.9121,2.9544,2.9793,3.0326,3.11,3.1157,3.1312,3.1634,3.1688,3.1726,3.1726,3.1726,3.1688,3.1596,3.1614,3.1521,3.1428,3.124,3.11,3.1011,3.0292,2.8908,2.7092,2.615,2.5551,2.5307,2.5137,2.4942,2.4839,2.4735,2.4599,2.4379,2.4338,2.4147,2.3681,2.3852,2.3809,2.3493,2.3739,2.3739,2.3653,2.3595,2.3595,2.3595,2.3595,2.3681,2.3894,2.3724,2.361,2.3797,2.3925,2.3994,2.3994,2.3937,2.4021,2.4078,2.4036,2.3994,2.412,2.423,2.4338,2.4338,2.4461,2.4492,2.4639,2.4839,2.4879,2.4918,2.4934,2.5169,2.5642,2.5642,2.5438,2.5335,2.5157,2.5271,2.5288,2.5045,2.5248,2.5058,2.5101,2.5547,2.6498,2.6887,2.7663,2.7581,2.7486,2.8108,2.1474,2.1612,2.1612,2.1612,2.1612,2.1612,2.1537,2.1533,2.2056,2.2587,2.3113,2.3742,2.4218,2.465,2.4935,2.4935,2.4765,2.5005,2.523,2.5397,2.5715,2.639,2.7225,2.8122,2.8556,2.8589,2.8763,2.9106,2.9499,2.9589,3.0054,3.0642,3.0821,3.1004,3.1295,3.1559,3.1634,3.1709,3.1819,3.1893,3.1802,3.1802,3.1746,3.1671,3.1671,3.1651,3.1473,3.0731,2.9384,2.7808,2.6978,2.6449,2.5917,2.5701,2.5589,2.5454,2.5323,2.5114,2.4902,2.4823,2.4583,2.4105,2.4147,2.3937,2.3681,2.3824,2.3909,2.3653,2.3724,2.3724,2.3638,2.3724,2.3979,2.4245,2.4204,2.4135,2.4193,2.4276,2.4302,2.4328,2.4354,2.4436,2.4533,2.4517,2.4558,2.4655,2.4719,2.4784,2.4823,2.5091,2.5262,2.5323,2.5362,2.5362,2.5346,2.54,2.5438,2.5864,2.6118,2.5974,2.6016,2.5842,2.5936,2.6081,2.6033,2.6017,2.5967,2.63,2.7424,2.8091,2.8053,2.816,2.8365,2.8435,2.8991,2.1925,2.2197,2.2197,2.2197,2.2123,2.2197,2.1999,2.1874,2.2318,2.2837,2.3267,2.3981,2.4543,2.555,2.5439,2.5729,2.5729,2.5674,2.5825,2.6042,2.6418,2.6982,2.7449,2.8268,2.8684,2.8779,2.8889,2.9152,2.9409,2.9617,2.9924,3.0309,3.0435,3.0543,3.0828,3.11,3.1351,3.1579,3.1819,3.2001,3.2037,3.2037,3.1965,3.1858,3.1821,3.1802,3.1554,3.0945,2.9894,2.8285,2.7994,2.7464,2.6805,2.6374,2.6112,2.597,2.5754,2.5513,2.5329,2.5291,2.5075,2.4623,2.4477,2.423,2.3937,2.3979,2.3994,2.3696,2.3894,2.3867,2.3724,2.3894,2.4204,2.4426,2.4508,2.4589,2.4523,2.4564,2.467,2.4655,2.4839,2.4942,2.4997,2.5075,2.5169,2.5091,2.5192,2.5307,2.5384,2.5551,2.5642,2.5663,2.5701,2.5754,2.5791,2.5864,2.5864,2.6046,2.6365,2.6504,2.6791,2.674,2.674,2.6771,2.6891,2.7165,2.7391,2.8112,2.898,2.9218,2.8875,2.9505,3.0169,3.0075,3.0381,2.2123,2.2197,2.2197,2.2197,2.2197,2.2197,2.2185,2.2123,2.2221,2.258,2.31,2.3748,2.4178,2.4509,2.5425,2.5715,2.5536,2.5825,2.5988,2.6297,2.6959,2.7393,2.778,2.8301,2.859,2.8842,2.8982,2.9121,2.9259,2.9335,2.9515,2.9881,2.9968,3.0182,3.0502,3.0764,3.1044,3.1351,3.1579,3.1819,3.202,3.2037,3.1984,3.1858,3.1858,3.1912,3.1948,3.1737,3.1093,3.0193,2.9348,2.8662,2.7825,2.7535,2.7142,2.6617,2.6378,2.6203,2.5994,2.5811,2.5572,2.5005,2.4744,2.4623,2.4266,2.4188,2.4078,2.3824,2.3824,2.3782,2.3696,2.4214,2.441,2.4385,2.4558,2.4655,2.4508,2.4751,2.495,2.5013,2.5246,2.5438,2.5438,2.5476,2.5513,2.5513,2.5626,2.5775,2.5901,2.6026,2.601,2.6046,2.6101,2.6154,2.6206,2.6277,2.626,2.633,2.6572,2.6808,2.7135,2.7525,2.7448,2.7639,2.7897,2.811,2.8227,2.859,2.915,2.9396,2.9746,3.0185,3.0647,3.1011,3.141,2.1999,2.1726,2.2061,2.1999,2.18,2.2061,2.2197,2.2197,2.2197,2.2543,2.31,2.3554,2.4032,2.4768,2.5467,2.5756,2.5988,2.6218,2.6394,2.6592,2.6974,2.7269,2.7645,2.8027,2.8431,2.892,2.9075,2.9091,2.9091,2.9137,2.9259,2.947,2.9515,2.9677,3.0011,3.0293,3.0526,3.0845,3.1218,3.1449,3.16,3.1765,3.1765,3.1637,3.1579,3.1634,3.1617,3.1709,3.1465,3.1067,3.0656,2.9863,2.8834,2.856,2.8116,2.7435,2.7197,2.6718,2.6338,2.599,2.5626,2.4942,2.4704,2.4379,2.4131,2.4036,2.3925,2.3696,2.3696,2.3739,2.3739,2.3958,2.417,2.4302,2.4436,2.4492,2.441,2.4735,2.4997,2.513,2.54,2.5659,2.5733,2.568,2.5848,2.5848,2.5974,2.6118,2.617,2.6293,2.6364,2.6434,2.6486,2.6555,2.6606,2.664,2.6657,2.6708,2.6842,2.7006,2.7181,2.7656,2.8115,2.82,2.8248,2.854,2.8676,2.9036,2.9643,3.0401,3.0825,3.0804,3.1054,3.1673,3.2034,2.18,2.1198,2.1862,2.18,2.1262,2.1862,2.2197,2.2247,2.2247,2.2592,2.316,2.3314,2.4168,2.5217,2.5577,2.6096,2.6606,2.6727,2.6727,2.6779,2.6832,2.7144,2.7473,2.781,2.8334,2.9029,2.9167,2.9213,2.9259,2.9198,2.935,2.9259,2.9259,2.947,2.9633,2.9821,3.0192,3.0502,3.0828,3.1067,3.1162,3.1317,3.1261,3.1257,3.1157,3.1173,3.1213,3.1291,3.1312,3.1423,3.1559,3.0874,2.996,2.9361,2.8966,2.8078,2.7832,2.7361,2.6632,2.6188,2.5702,2.4739,2.4441,2.4219,2.3909,2.3824,2.3754,2.3668,2.3653,2.3782,2.3797,2.399,2.4033,2.4139,2.4219,2.4261,2.4302,2.4558,2.4759,2.4918,2.5192,2.5438,2.5642,2.5717,2.5957,2.6173,2.6277,2.6364,2.6364,2.6399,2.6347,2.6434,2.6452,2.6691,2.6792,2.6876,2.6892,2.6957,2.707,2.7166,2.7293,2.7587,2.7979,2.8258,2.8405,2.8866,2.9386,2.9878,3.0601,3.1515,3.1615,3.1312,3.1709,3.2391,3.259,2.1788,2.1135,2.1862,2.1788,2.1262,2.1851,2.2247,2.2359,2.2359,2.2555,2.2836,2.3458,2.4066,2.4867,2.5591,2.6165,2.6674,2.6794,2.6794,2.6832,2.6884,2.7144,2.7401,2.7675,2.8204,2.8858,2.9198,2.9425,2.9589,2.9661,2.9589,2.9677,2.9633,2.9677,2.9766,2.9984,3.0182,3.0377,3.0625,3.0788,3.0948,3.0891,3.0851,3.0845,3.0723,3.0723,3.0821,3.0804,3.0828,3.1061,3.1021,3.0813,3.0404,2.9972,2.9214,2.8439,2.8103,2.78,2.7248,2.6756,2.6412,2.5903,2.5168,2.4626,2.439,2.4135,2.3925,2.3839,2.3797,2.3839,2.3797,2.4098,2.4053,2.3988,2.4128,2.4212,2.4055,2.4204,2.4517,2.4623,2.4902,2.5192,2.54,2.5551,2.561,2.5742,2.5795,2.5848,2.5848,2.5885,2.5905,2.6066,2.6295,2.6589,2.6876,2.699,2.7038,2.712,2.7215,2.731,2.7404,2.75,2.7762,2.8358,2.9095,2.979,3.0296,3.0658,3.125,3.1868,3.1832,3.1733,3.212,3.2574,3.2883,2.18,2.1198,2.1862,2.1851,2.1451,2.2037,2.2432,2.2555,2.2555,2.2604,2.28,2.309,2.3636,2.4253,2.4924,2.5797,2.6553,2.6794,2.6832,2.6884,2.6989,2.7093,2.7335,2.7625,2.8008,2.8463,2.8889,2.9364,2.9766,2.9793,2.9793,2.9793,2.9793,2.9793,2.9793,2.9897,3.007,3.0225,3.0351,3.0452,3.0617,3.0518,3.0477,3.0435,3.0309,3.0208,3.0251,3.041,3.0452,3.0593,3.0617,3.0518,3.0278,2.9988,2.9494,2.8803,2.8575,2.8233,2.7729,2.7154,2.6862,2.6477,2.5634,2.5124,2.4859,2.451,2.4112,2.4055,2.3997,2.4048,2.4381,2.4579,2.4716,2.4806,2.4754,2.4541,2.4392,2.4277,2.428,2.4426,2.4799,2.5075,2.5208,2.5285,2.5291,2.5329,2.5351,2.5368,2.5384,2.5443,2.5556,2.5832,2.6066,2.64,2.6725,2.6875,2.6989,2.7135,2.7247,2.7341,2.757,2.7652,2.8215,2.8942,2.9703,3.0071,3.0664,3.089,3.1583,3.2192,3.236,3.2458,3.2506,3.2709,3.2866,2.1851,2.1262,2.1987,2.1913,2.1451,2.2161,2.2482,2.2543,2.2678,2.2739,2.28,2.2848,2.3245,2.3917,2.4711,2.5618,2.6621,2.6674,2.6832,2.6937,2.7041,2.7093,2.7233,2.7524,2.791,2.8238,2.8496,2.8982,2.9528,2.975,2.9793,2.9837,2.9837,2.9941,2.9984,3.0027,2.9941,2.9984,3.0087,3.0189,3.0146,3.0146,3.0103,3.0103,2.9897,2.9793,2.981,2.9957,3.0044,3.013,3.0182,3.0123,2.9793,2.9705,2.9589,2.9328,2.9188,2.8611,2.8068,2.753,2.7295,2.6977,2.6193,2.5799,2.5524,2.5083,2.4453,2.4414,2.4313,2.4585,2.5102,2.5228,2.5424,2.5652,2.5424,2.515,2.4876,2.463,2.4338,2.4482,2.4822,2.4895,2.4895,2.4855,2.4815,2.4934,2.4997,2.5075,2.5075,2.5192,2.5307,2.561,2.5905,2.6189,2.6469,2.6708,2.6858,2.6989,2.707,2.7166,2.7497,2.7795,2.8355,2.8682,2.9064,2.946,3.0231,3.0987,3.1418,3.1974,3.2757,3.2883,3.2299,3.2149,3.2311,2.2223,2.1616,2.2359,2.1901,2.1049,2.2161,2.2408,2.2137,2.2653,2.2909,2.3017,2.3078,2.3424,2.4105,2.5133,2.577,2.6125,2.6515,2.6779,2.6884,2.7041,2.7093,2.7093,2.7437,2.776,2.8042,2.8207,2.8638,2.912,2.9483,2.975,2.9793,3.0027,3.0384,3.0199,3.0199,3.0426,3.0401,3.0274,3.0146,2.9941,2.9897,2.981,2.9738,2.9722,2.975,2.9633,2.9694,2.9738,2.9826,2.9722,2.9605,2.9515,2.956,2.9364,2.9239,2.9087,2.8993,2.8647,2.8176,2.7847,2.7559,2.6969,2.6658,2.6228,2.5843,2.5462,2.5973,2.549,2.5431,2.5905,2.594,2.597,2.6077,2.6169,2.5681,2.5316,2.505,2.4729,2.4438,2.4704,2.4513,2.44,2.4359,2.4359,2.4539,2.4645,2.471,2.4815,2.4974,2.513,2.5438,2.5738,2.603,2.626,2.6504,2.6657,2.6825,2.6956,2.7038,2.727,2.7518,2.7508,2.7857,2.8268,2.8868,2.971,3.0388,3.101,3.1501,3.1965,3.1881,3.1561,3.1575,3.1658,2.1963,2.2273,2.2543,2.2408,2.2013,2.2592,2.2714,2.2641,2.2896,2.3078,2.3065,2.3125,2.3484,2.4118,2.4694,2.5258,2.5839,2.6179,2.6553,2.6832,2.7041,2.7144,2.7248,2.7386,2.7625,2.7795,2.7894,2.7944,2.8463,2.8982,2.9393,2.9438,2.9617,2.9793,3.0054,3.0097,3.0241,3.0401,3.0401,3.03,3.0215,3.0087,3.0,2.987,2.987,2.9766,2.9722,2.9677,2.9649,2.9633,2.9515,2.9441,2.9305,2.9259,2.9213,2.9121,2.9121,2.9059,2.895,2.8698,2.8542,2.8369,2.7852,2.7319,2.6914,2.6486,2.6255,2.6489,2.6238,2.6377,2.6869,2.698,2.7257,2.7303,2.7072,2.6765,2.6257,2.5518,2.5219,2.4883,2.4537,2.4346,2.4197,2.4234,2.4317,2.4441,2.4564,2.463,2.4791,2.4934,2.5107,2.5317,2.5605,2.5848,2.6046,2.6277,2.6486,2.664,2.6891,2.6973,2.7006,2.712,2.7117,2.7227,2.7612,2.8303,2.9158,2.9876,3.0556,3.0802,3.1021,3.0802,3.0622,3.0606,3.0729,2.1639,2.2543,2.2531,2.2592,2.2714,2.2848,2.2884,2.2811,2.3065,2.3198,2.3198,2.3258,2.3543,2.3956,2.4234,2.4808,2.5495,2.5825,2.6258,2.6698,2.7041,2.7196,2.735,2.7452,2.7524,2.756,2.766,2.771,2.791,2.8286,2.8748,2.8889,2.9166,2.9303,2.9528,2.9617,2.975,2.9984,3.0027,3.0113,3.0199,3.013,3.013,3.0087,3.0044,2.9924,2.9897,2.9897,2.981,2.9738,2.9633,2.9515,2.938,2.935,2.9259,2.9213,2.9167,2.9091,2.9091,2.9028,2.9091,2.8933,2.8697,2.8084,2.7601,2.7214,2.7154,2.7342,2.702,2.7316,2.7782,2.7953,2.8093,2.8202,2.8202,2.7953,2.7579,2.6592,2.5641,2.5063,2.4686,2.4253,2.4161,2.4223,2.4261,2.4385,2.4467,2.4549,2.4751,2.495,2.5029,2.524,2.5432,2.5642,2.577,2.599,2.6206,2.6417,2.664,2.6708,2.6674,2.6742,2.6791,2.6956,2.7132,2.7552,2.824,2.9171,2.9973,2.9704,2.9546,2.9719,2.9689,2.9693,3.0002,2.1502,2.2113,2.2113,2.2175,2.2237,2.2811,2.275,2.2421,2.3078,2.3343,2.3403,2.3509,2.3556,2.3721,2.4118,2.4452,2.4694,2.5797,2.6122,2.6472,2.6989,2.7211,2.7299,2.7423,2.756,2.756,2.756,2.756,2.761,2.776,2.8076,2.8352,2.8654,2.8997,2.9166,2.9196,2.9257,2.9438,2.9393,2.9572,2.975,2.9837,2.9897,3.013,3.0258,3.0342,3.0146,3.0044,2.9897,2.987,2.9661,2.9528,2.9364,2.9289,2.9198,2.9167,2.9029,2.8951,2.8951,2.9045,2.9091,2.9075,2.898,2.8807,2.8463,2.8086,2.8119,2.8356,2.7936,2.8014,2.8451,2.8717,2.8606,2.8544,2.8388,2.8139,2.772,2.7179,2.6291,2.5421,2.4787,2.4279,2.3818,2.3827,2.4024,2.4135,2.4426,2.4523,2.4846,2.5005,2.5045,2.5139,2.5256,2.541,2.5448,2.5659,2.5917,2.6026,2.6154,2.6154,2.6099,2.6225,2.6469,2.6674,2.6858,2.7051,2.7289,2.7997,2.839,2.8106,2.8138,2.8629,2.8874,2.8907,2.9468,2.0279,2.0921,2.1302,2.1939,2.2738,2.3005,2.2944,2.2811,2.321,2.345,2.3522,2.3556,2.3616,2.3675,2.3793,2.4176,2.4509,2.4908,2.5398,2.5879,2.6329,2.6717,2.6899,2.7284,2.7503,2.7575,2.756,2.756,2.756,2.756,2.766,2.7944,2.8174,2.8367,2.8543,2.8873,2.9028,2.9044,2.909,2.9212,2.9257,2.9348,2.9393,2.9499,2.9572,2.9617,2.9499,2.9499,2.9454,2.9348,2.9241,2.9166,2.909,2.8967,2.8936,2.8889,2.8748,2.8653,2.87,2.8905,2.9091,2.9091,2.9091,2.9029,2.892,2.873,2.873,2.8778,2.8699,2.859,2.8841,2.8763,2.8552,2.8541,2.8369,2.8119,2.7791,2.7326,2.673,2.5788,2.4882,2.4104,2.3718,2.3363,2.3625,2.3897,2.4234,2.4523,2.4806,2.5021,2.4982,2.4966,2.5084,2.524,2.5333,2.547,2.568,2.5733,2.5787,2.586,2.5934,2.5934,2.617,2.633,2.6504,2.6657,2.6774,2.6858,2.7085,2.7382,2.7654,2.794,2.8073,2.821,2.9026,1.9584,2.042,2.0677,2.1565,2.275,2.3005,2.3125,2.3138,2.3271,2.3522,2.37,2.3688,2.3688,2.3747,2.3806,2.3982,2.4363,2.4637,2.4921,2.5425,2.5882,2.6264,2.6635,2.6937,2.7277,2.7488,2.756,2.756,2.756,2.756,2.761,2.761,2.761,2.7894,2.8076,2.84,2.8654,2.8669,2.8669,2.8795,2.8779,2.8826,2.9028,2.9074,2.9212,2.9212,2.9227,2.9227,2.9136,2.9028,2.8889,2.8811,2.8685,2.8653,2.8605,2.851,2.8462,2.8414,2.8429,2.8605,2.8889,2.8685,2.8826,2.8811,2.8764,2.8779,2.856,2.8622,2.8654,2.8763,2.8764,2.8427,2.8311,2.8238,2.8174,2.7905,2.7762,2.7436,2.6811,2.6131,2.522,2.4288,2.373,2.3362,2.3363,2.3668,2.4009,2.4317,2.4661,2.4822,2.4862,2.4846,2.4846,2.5045,2.524,2.5301,2.5416,2.5621,2.5675,2.586,2.5934,2.5881,2.5934,2.6222,2.6329,2.6277,2.6382,2.6538,2.6774,2.7083,2.7317,2.7547,2.7794,2.8053,2.8863,1.9901,2.0933,2.0484,2.0974,2.2237,2.2811,2.3078,2.3138,2.333,2.3582,2.3891,2.3891,2.3949,2.3995,2.3995,2.4112,2.4229,2.4607,2.4892,2.5046,2.5464,2.606,2.649,2.6794,2.7137,2.7488,2.756,2.756,2.756,2.756,2.756,2.756,2.761,2.7625,2.7625,2.761,2.766,2.7675,2.7725,2.7993,2.8207,2.8304,2.8559,2.8748,2.8811,2.8764,2.8748,2.8748,2.8654,2.8654,2.8654,2.8654,2.8764,2.8935,2.8842,2.8559,2.8811,2.8732,2.8493,2.851,2.8383,2.8222,2.8415,2.8415,2.811,2.8012,2.8094,2.824,2.8105,2.8044,2.799,2.7959,2.7925,2.7894,2.783,2.7665,2.7455,2.7375,2.6768,2.6198,2.5433,2.4665,2.3934,2.3429,2.3259,2.3407,2.3754,2.4109,2.4416,2.4539,2.4564,2.4605,2.4549,2.463,2.4791,2.4989,2.5146,2.5371,2.5486,2.5508,2.5605,2.5642,2.5807,2.6096,2.6007,2.5811,2.601,2.6206,2.6332,2.642,2.6954,2.7241,2.75,2.7841,2.8513,2.0677,2.1123,2.1302,2.1741,2.2298,2.2359,2.2677,2.3138,2.3378,2.37,2.4008,2.4067,2.4054,2.4112,2.4125,2.4125,2.4171,2.4171,2.4403,2.4474,2.5007,2.5549,2.6018,2.6529,2.698,2.7437,2.7575,2.756,2.756,2.7509,2.756,2.756,2.756,2.756,2.761,2.756,2.761,2.761,2.761,2.771,2.7845,2.7845,2.7944,2.8174,2.8091,2.8091,2.8091,2.8091,2.8042,2.8042,2.8027,2.8091,2.8238,2.8415,2.8334,2.8204,2.835,2.8494,2.8365,2.8334,2.8268,2.8155,2.8076,2.8061,2.7913,2.7913,2.7913,2.7849,2.7795,2.7795,2.7917,2.7658,2.7601,2.7503,2.7372,2.7167,2.6982,2.6967,2.6667,2.614,2.5458,2.4762,2.408,2.3557,2.3285,2.3157,2.3451,2.3754,2.4094,2.4151,2.4193,2.4234,2.4219,2.4219,2.4287,2.4533,2.471,2.4871,2.4871,2.4775,2.4934,2.5269,2.5307,2.5438,2.54,2.5362,2.5551,2.5701,2.5626,2.5779,2.6315,2.6708,2.6872,2.7225,2.7738,2.1313,2.1565,2.1803,2.2298,2.2738,2.2628,2.2823,2.3258,2.3509,2.3747,2.3995,2.4008,2.4067,2.4054,2.4125,2.4125,2.4125,2.4125,2.4125,2.4138,2.4458,2.5013,2.555,2.6125,2.6447,2.6997,2.7255,2.7255,2.7203,2.7255,2.7423,2.756,2.756,2.756,2.756,2.756,2.756,2.756,2.761,2.761,2.761,2.761,2.761,2.7625,2.7575,2.7524,2.7473,2.7386,2.7335,2.7335,2.7372,2.7423,2.764,2.7775,2.7775,2.7775,2.7725,2.786,2.786,2.776,2.769,2.769,2.7745,2.773,2.763,2.7444,2.7429,2.7479,2.753,2.753,2.7473,2.7246,2.7254,2.7144,2.7093,2.6884,2.6779,2.6765,2.6654,2.6147,2.5655,2.493,2.4254,2.376,2.3356,2.3243,2.3142,2.3436,2.3739,2.3797,2.3839,2.3882,2.3882,2.3882,2.3994,2.4219,2.4343,2.4426,2.441,2.441,2.4639,2.5059,2.4942,2.4847,2.4981,2.5075,2.5114,2.5153,2.5192,2.5346,2.5721,2.6049,2.6227,2.6654,2.7147,2.1815,2.231,2.1865,2.2433,2.3437,2.339,2.345,2.3628,2.3616,2.37,2.3949,2.3949,2.4008,2.4125,2.4125,2.4125,2.4125,2.4125,2.4125,2.4125,2.4236,2.4633,2.5174,2.5701,2.619,2.6283,2.6549,2.7152,2.6841,2.7049,2.7306,2.7524,2.756,2.756,2.756,2.756,2.756,2.756,2.756,2.756,2.756,2.756,2.756,2.7575,2.7524,2.7524,2.7524,2.7473,2.7473,2.7524,2.7524,2.7473,2.7575,2.7845,2.761,2.7473,2.7372,2.7372,2.7473,2.7473,2.7335,2.7437,2.7437,2.7335,2.7181,2.7026,2.7063,2.7011,2.7026,2.6974,2.6861,2.6875,2.6875,2.6884,2.6832,2.6779,2.6674,2.6606,2.6606,2.6237,2.5842,2.5192,2.4428,2.3865,2.3522,2.3204,2.3138,2.326,2.3523,2.3566,2.3625,2.3625,2.3581,2.3581,2.3711,2.3925,2.4036,2.412,2.4354,2.4379,2.4648,2.4648,2.4486,2.4486,2.4704,2.4784,2.4679,2.4759,2.4918,2.5114,2.5208,2.5535,2.5762,2.6173,2.6735,2.3065,2.3245,2.3053,2.3378,2.376,2.3878,2.3878,2.3819,2.3819,2.3891,2.4067,2.4054,2.4067,2.4125,2.4125,2.4125,2.4125,2.4125,2.4125,2.4125,2.4112,2.4765,2.5258,2.5687,2.6269,2.6759,2.7086,2.7152,2.7321,2.7306,2.7306,2.756,2.756,2.756,2.756,2.756,2.756,2.756,2.756,2.756,2.756,2.756,2.756,2.7575,2.7524,2.7473,2.7488,2.7423,2.7372,2.7321,2.7321,2.7321,2.774,2.784,2.774,2.7875,2.7675,2.7473,2.7795,2.7625,2.7437,2.7372,2.7372,2.7093,2.6899,2.6846,2.6794,2.6794,2.6794,2.6794,2.6779,2.6832,2.6832,2.6846,2.6779,2.6712,2.6606,2.6379,2.6312,2.5915,2.5477,2.5251,2.4483,2.4158,2.3817,2.3382,2.3187,2.3287,2.3349,2.3451,2.3494,2.3494,2.348,2.3523,2.3538,2.3711,2.3782,2.3852,2.4048,2.4158,2.409,2.4048,2.4006,2.409,2.4256,2.423,2.412,2.423,2.4461,2.4492,2.463,2.4981,2.5368,2.5873,2.6471,2.3628,2.376,2.376,2.3878,2.4008,2.4067,2.4067,2.4008,2.3949,2.4008,2.4125,2.4125,2.4125,2.4125,2.4125,2.4125,2.4125,2.4125,2.4125,2.4125,2.4125,2.4434,2.4978,2.5481,2.5797,2.6443,2.6864,2.6811,2.7203,2.7524,2.756,2.756,2.756,2.756,2.756,2.756,2.756,2.756,2.756,2.756,2.756,2.756,2.756,2.7575,2.7473,2.7488,2.7488,2.7372,2.7372,2.7372,2.7372,2.7423,2.764,2.759,2.759,2.7625,2.7539,2.7473,2.761,2.756,2.7509,2.7458,2.7218,2.6989,2.6899,2.6794,2.6794,2.6794,2.6794,2.6779,2.6832,2.6832,2.6832,2.6899,2.6765,2.6698,2.6418,2.615,2.5783,2.5343,2.5108,2.5033,2.4727,2.444,2.4048,2.3576,2.3384,2.3445,2.3458,2.3437,2.3481,2.3451,2.3523,2.3566,2.3566,2.3581,2.3653,2.3681,2.3724,2.3752,2.3595,2.3638,2.3767,2.3767,2.3724,2.3782,2.3882,2.3824,2.3952,2.407,2.4353,2.4833,2.5318,2.5814,2.6469,2.3582,2.376,2.3936,2.3923,2.4054,2.4054,2.4112,2.4125,2.4125,2.4125,2.4125,2.4125,2.4125,2.4125,2.4125,2.4125,2.4125,2.4125,2.4125,2.4125,2.4125,2.4332,2.462,2.4778,2.537,2.5384,2.5646,2.6336,2.6721,2.7049,2.7357,2.7509,2.756,2.756,2.756,2.756,2.756,2.756,2.756,2.756,2.756,2.756,2.756,2.756,2.756,2.7575,2.7575,2.7575,2.7575,2.7524,2.7458,2.7357,2.7152,2.7049,2.6997,2.6997,2.6893,2.6878,2.6982,2.6997,2.7011,2.7026,2.6989,2.6989,2.6937,2.6832,2.6779,2.6779,2.6794,2.6606,2.6553,2.6529,2.649,2.634,2.6204,2.596,2.5687,2.5412,2.5175,2.4867,2.4981,2.4806,2.4695,2.4396,2.4189,2.3751,2.3612,2.3646,2.3635,2.3603,2.354,2.3526,2.3494,2.3581,2.3566,2.3566,2.3595,2.3595,2.3595,2.3595,2.3595,2.3595,2.3595,2.3595,2.3638,2.3696,2.3754,2.3729,2.385,2.4173,2.4474,2.4821,2.5249,2.5837,2.6388,2.2494,2.2555,2.31,2.3339,2.3412,2.3865,2.4054,2.4125,2.4125,2.4112,2.4125,2.4125,2.4125,2.4125,2.4125,2.4125,2.4125,2.4125,2.4125,2.4125,2.4125,2.4287,2.462,2.4791,2.516,2.5522,2.5783,2.5906,2.6176,2.6616,2.6945,2.6997,2.7203,2.7408,2.7408,2.7408,2.7408,2.7357,2.7342,2.7408,2.7408,2.7509,2.756,2.756,2.756,2.756,2.756,2.756,2.7255,2.693,2.6878,2.6669,2.6229,2.6068,2.6,2.5946,2.6014,2.6054,2.6122,2.6351,2.6525,2.663,2.675,2.7026,2.7078,2.687,2.6779,2.6779,2.6727,2.65,2.6286,2.6221,2.6073,2.5839,2.5632,2.5287,2.4951,2.4738,2.458,2.4637,2.4738,2.4673,2.4485,2.4353,2.4191,2.4022,2.3895,2.3862,2.3811,2.3773,2.3714,2.3622,2.3555,2.3553,2.3568,2.3465,2.3363,2.3465,2.3508,2.3551,2.361,2.3363,2.3231,2.3508,2.3595,2.3524,2.3526,2.3715,2.3893,2.4147,2.4532,2.4867,2.5429,2.597,2.6489,2.2051,2.2175,2.247,2.2847,2.3088,2.316,2.3352,2.3603,2.3675,2.3793,2.4067,2.4125,2.4125,2.4125,2.4125,2.4125,2.4125,2.4125,2.4125,2.4125,2.4112,2.4287,2.4505,2.4677,2.4948,2.53,2.5673,2.5837,2.5797,2.6014,2.6351,2.6404,2.6707,2.6864,2.6864,2.6811,2.6864,2.6759,2.6864,2.6864,2.6967,2.7188,2.7509,2.756,2.756,2.756,2.756,2.756,2.7408,2.6982,2.6878,2.6336,2.596,2.5742,2.5618,2.5563,2.5563,2.5508,2.5563,2.5742,2.6014,2.6122,2.6229,2.6336,2.6229,2.6082,2.6486,2.6553,2.6779,2.6606,2.6218,2.6085,2.5798,2.5536,2.5412,2.5231,2.4738,2.4292,2.4189,2.4203,2.4261,2.4292,2.4218,2.4249,2.4096,2.4126,2.4014,2.3929,2.3928,2.395,2.385,2.3731,2.358,2.34,2.3276,2.3151,2.3054,2.3187,2.3437,2.3509,2.3524,2.3113,2.2905,2.3113,2.3171,2.3078,2.3126,2.3497,2.3746,2.4,2.4445,2.4898,2.5508,2.6041,2.6361,2.199,2.2113,2.2224,2.247,2.2907,2.247,2.2543,2.2907,2.2967,2.3339,2.3865,2.3923,2.3995,2.4125,2.4125,2.4125,2.4125,2.4125,2.4125,2.4125,2.4125,2.4171,2.4171,2.4229,2.4563,2.4878,2.5203,2.5356,2.5412,2.5632,2.5756,2.5797,2.5906,2.596,2.5906,2.596,2.6162,2.6054,2.6054,2.5946,2.6269,2.6759,2.7086,2.7291,2.7342,2.7342,2.7342,2.7342,2.7342,2.6864,2.6322,2.5797,2.5481,2.5203,2.5189,2.5077,2.509,2.5133,2.5245,2.5356,2.5453,2.5508,2.5508,2.5508,2.5453,2.5632,2.6042,2.6272,2.6486,2.6379,2.5988,2.5646,2.5412,2.5007,2.4951,2.4894,2.435,2.3852,2.3865,2.3819,2.3878,2.3878,2.3923,2.3969,2.4041,2.4054,2.3995,2.4019,2.3992,2.397,2.3906,2.3708,2.3529,2.3275,2.3189,2.3135,2.3152,2.3267,2.3504,2.3554,2.3408,2.2902,2.2601,2.2678,2.2672,2.28,2.3025,2.3336,2.3596,2.4002,2.4469,2.4984,2.5384,2.5821,2.6079,2.2051,2.2175,2.2652,2.2725,2.2408,2.2725,2.2652,2.2359,2.2347,2.2652,2.322,2.3352,2.3543,2.4125,2.4125,2.4125,2.4125,2.4125,2.4125,2.4125,2.4125,2.4125,2.4125,2.4112,2.4171,2.439,2.4563,2.4447,2.4751,2.5048,2.537,2.5632,2.6229,2.6336,2.6404,2.6297,2.596,2.5742,2.5563,2.5563,2.5673,2.6,2.6068,2.6162,2.6108,2.6108,2.6108,2.6162,2.5769,2.5287,2.4908,2.4708,2.4607,2.4549,2.4492,2.4536,2.4492,2.4492,2.4593,2.4751,2.4794,2.4851,2.4951,2.5287,2.5231,2.5231,2.5536,2.5591,2.5646,2.5412,2.5077,2.4894,2.461,2.4047,2.3767,2.3813,2.3531,2.3497,2.3569,2.3509,2.3497,2.3497,2.3556,2.3543,2.3556,2.3556,2.3556,2.356,2.3722,2.3838,2.3856,2.3672,2.336,2.3579,2.3622,2.3501,2.3491,2.3561,2.354,2.3473,2.3183,2.2559,2.2376,2.2597,2.278,2.2888,2.3117,2.3245,2.384,2.4281,2.4655,2.508,2.537,2.552,2.5591]},{"header":{"parameterUnit":"m.s-1","parameterCategory":1,"la1":31.0,"la2":29.5877,"lo1":-88.7671,"lo2":-86.6584,"dy":0.0162,"dx":0.0185,"nx":115,"ny":88,"refTime":"2023-09-03T18:00:00:Z","depth":0,"parameterNumber":3,"parameterNumberName":"V-component_of_WINDS"},"data":[0.0,0.0,0.0,0.0,0.0,0.0,0.0,0.0,0.0,0.0,0.0,0.0,0.0,0.0,0.0,0.0,0.0,0.0,0.0,0.0,0.0,0.0,0.0,0.0,0.0,0.0,0.0,0.0,0.0,0.0,0.0,0.0,0.0,0.0,0.0,0.0,0.0,0.0,0.0,0.0,0.0,0.0,0.0,0.0,0.0,0.0,0.0,0.0,0.0,0.0,0.0,0.0,0.0,0.0,0.0,0.0,0.0,0.0,0.0,0.0,0.0,0.0,0.0,0.0,0.0,0.0,0.0,0.0,0.0,0.0,0.0,0.0,0.0,0.0,0.0,0.0,0.0,0.0,0.0,0.0,0.0,0.0,0.0,0.0,0.0,0.0,0.0,0.0,0.0,0.0,0.0,0.0,0.0,0.0,0.0,0.0,0.0,0.0,0.0,0.0,0.0,0.0,0.0,0.0,0.0,0.0,0.0,0.0,0.0,0.0,0.0,0.0,0.0,0.0,0.0,0.0,0.0,0.0,0.0,0.0,0.0,0.0,0.0,0.0,0.0,0.0,0.0,0.0,0.0,0.0,0.0,0.0,0.0,0.0,0.0,0.0,0.0,0.0,0.0,0.0,0.0,0.0,0.0,0.0,0.0,0.0,0.0,0.0,0.0,0.0,0.0,0.0,0.0,0.0,0.0,0.0,0.0,0.0,0.0,0.0,0.0,0.0,0.0,0.0,0.0,0.0,0.0,0.0,0.0,0.0,0.0,0.0,0.0,0.0,0.0,0.0,0.0,0.0,0.0,0.0,0.0,0.0,0.0,0.0,0.0,0.0,0.0,0.0,0.0,0.0,0.0,0.0,0.0,0.0,0.0,0.0,0.0,0.0,0.0,0.0,0.0,0.0,0.0,0.0,0.0,0.0,0.0,0.0,0.0,0.0,0.0,0.0,0.0,0.0,0.0,0.0,0.0,0.0,0.0,0.0,0.0,0.0,0.0,0.0,0.0,0.0,0.0,0.0,0.0,0.0,0.0,0.0,0.0,0.0,0.0,0.0,0.0,0.0,0.0,0.0,0.0,0.0,0.0,0.0,0.0,0.0,0.0,0.0,0.0,0.0,0.0,0.0,0.0,0.0,0.0,0.0,0.0,0.0,0.0,0.0,0.0,0.0,0.0,0.0,0.0,0.0,0.0,0.0,0.0,0.0,0.0,0.0,0.0,0.0,0.0,0.0,0.0,0.0,0.0,0.0,0.0,0.0,0.0,0.0,0.0,0.0,0.0,0.0,0.0,0.0,0.0,0.0,0.0,0.0,0.0,0.0,0.0,0.0,0.0,0.0,0.0,0.0,0.0,0.0,0.0,0.0,0.0,0.0,0.0,0.0,0.0,0.0,0.0,0.0,0.0,0.0,0.0,0.0,0.0,0.0,0.0,0.0,0.0,0.0,0.0,0.0,0.0,0.0,0.0,0.0,0.0,0.0,0.0,0.0,0.0,0.0,0.0,0.0,0.0,0.0,0.0,0.0,0.0,0.0,0.0,0.0,0.0,0.0,0.0,0.0,0.0,0.0,0.0,0.0,0.0,0.0,0.0,0.0,0.0,0.0,0.0,0.0,0.0,0.0,0.0,0.0,0.0,0.0,0.0,0.0,0.0,0.0,0.0,0.0,0.0,0.0,0.0,0.0,0.0,0.0,0.0,0.0,0.0,0.0,0.0,0.0,0.0,0.0,0.0,0.0,0.0,0.0,0.0,0.0,0.0,0.0,0.0,0.0,0.0,0.0,0.0,0.0,0.0,0.0,0.0,0.0,0.0,0.0,0.0,0.0,0.0,0.0,0.0,0.0,0.0,0.0,0.0,0.0,0.0,0.0,0.0,0.0,0.0,0.0,0.0,0.0,0.0,0.0,0.0,0.0,0.0,0.0,0.0,0.0,0.0,0.0,0.0,0.0,0.0,0.0,0.0,0.0,0.0,0.0,0.0,0.0,0.0,0.0,0.0,0.0,0.0,0.0,0.0,0.0,0.0,0.0,0.0,0.0,0.0,0.0,0.0,0.0,0.0,0.0,0.0,0.0,0.0,0.0,0.0,0.0,0.0,0.0,0.0,0.0,0.0,0.0,0.0,0.0,0.0,0.0,0.0,0.0,0.0,0.0,0.0,0.0,0.0,0.0,0.0,0.0,0.0,0.0,0.0,0.0,0.0,0.0,0.0,0.0,0.0,0.0,0.0,0.0,0.0,0.0,0.0,0.0,0.0,0.0,0.0,0.0,0.0,0.0,0.0,0.0,0.0,0.0,0.0,0.0,0.0,0.0,0.0,0.0,0.0,0.0,0.0,0.0,0.0,0.0,0.0,0.0,0.0,0.0,0.0,0.0,0.0,0.0,0.0,0.0,0.0,0.0,0.0,0.0,0.0,0.0,0.0,0.0,0.0,0.0,0.0,0.0,0.0,0.0,0.0,0.0,0.0,0.0,0.0,0.0,0.0,0.0,0.0,0.0,0.0,0.0,0.0,0.0,0.0,0.0,0.0,0.0,0.0,0.0,0.0,0.0,0.0,0.0,0.0,0.0,0.0,0.0,0.0,0.0,0.0,0.0,0.0,0.0,0.0,0.0,0.0,0.0,0.0,0.0,0.0,0.0,0.0,0.0,0.0,0.0,0.0,0.0,0.0,0.0,0.0,0.0,0.0,0.0,0.0,0.0,0.0,0.0,0.0,0.0,0.0,0.0,0.0,0.0,0.0,0.0,0.0,0.0,0.0,0.0,0.0,0.0,0.0,0.0,0.0,0.0,0.0,0.0,0.0,0.0,0.0,0.0,0.0,0.0,0.0,0.0,0.0,0.0,0.0,0.0,0.0,0.0,0.0,0.0,0.0,0.0,0.0,0.0,0.0,0.0,0.0,0.0,0.0,0.0,0.0,0.0,0.0,0.0,0.0,0.0,0.0,0.0,0.0,0.0,0.0,0.0,0.0,0.0,0.0,0.0,0.0,0.0,0.0,0.0,0.0,0.0,0.0,0.0,0.0,0.0,0.0,0.0,0.0,0.0,0.0,0.0,0.0,0.0,0.0,0.0,0.0,0.0,0.0,0.0,0.0,0.0,0.0,0.0,0.0,0.0,0.0,0.0,0.0,0.0,0.0,0.0,0.0,0.0,0.0,0.0,0.0,0.0,0.0,0.0,0.0,0.0,0.0,0.0,0.0,0.0,0.0,0.0,0.0,0.0,0.0,0.0,0.0,0.0,0.0,0.0,0.0,0.0,0.0,0.0,0.0,0.0,0.0,0.0,0.0,0.0,0.0,0.0,0.0,0.0,0.0,0.0,0.0,0.0,0.0,0.0,0.0,0.0,0.0,0.0,0.0,0.0,0.0,0.0,0.0,0.0,0.0,0.0,0.0,0.0,0.0,0.0,0.0,0.0,0.0,0.0,0.0,0.0,0.0,0.0,0.0,0.0,0.0,0.0,0.0,0.0,0.0,0.0,0.0,0.0,0.0,0.0,0.0,0.0,0.0,0.0,0.0,0.0,0.0,0.0,0.0,0.0,0.0,0.0,0.0,0.0,0.0,0.0,0.0,0.0,0.0,0.0,0.0,0.0,0.0,0.0,0.0,0.0,0.0,0.0,0.0,0.0,0.0,0.0,0.0,0.0,0.0,0.0,0.0,0.0,0.0,0.0,0.0,0.0,0.0,0.0,0.0,0.0,0.0,0.0,0.0,0.0,0.0,0.0,0.0,0.0,0.0,0.0,0.0,0.0,0.0,0.0,0.0,0.0,0.0,0.0,0.0,0.0,0.0,0.0,0.0,0.0,0.0,0.0,0.0,0.0,0.0,0.0,0.0,0.0,0.0,0.0,0.0,0.0,0.0,0.0,0.0,0.0,0.0,0.0,0.0,0.0,0.0,0.0,0.0,0.0,0.0,0.0,0.0,0.0,0.0,0.0,0.0,0.0,0.0,0.0,0.0,0.0,0.0,0.0,0.0,0.0,0.0,0.0,0.0,0.0,0.0,0.0,0.0,0.0,0.0,0.0,0.0,0.0,0.0,0.0,0.0,0.0,0.0,0.0,0.0,0.0,0.0,0.0,0.0,0.0,0.0,0.0,0.0,0.0,0.0,0.0,0.0,0.0,0.0,0.0,0.0,0.0,0.0,0.0,0.0,0.0,0.0,0.0,0.0,0.0,0.0,0.0,0.0,0.0,0.0,0.0,0.0,0.0,0.0,0.0,0.0,0.0,0.0,0.0,0.0,0.0,0.0,0.0,0.0,0.0,0.0,0.0,0.0,0.0,-0.7068,0.0,0.0,0.0,0.0,0.0,0.0,0.0,0.0,0.0,0.0,0.0,0.0,0.0,0.0,0.0,0.0,0.0,0.0,0.0,0.0,0.0,0.0,0.0,0.0,0.0,0.0,0.0,0.0,0.0,0.0,0.0,0.0,0.0,0.0,0.0,0.0,0.0,0.0,0.0,0.0,0.0,0.0,0.0,0.0,0.0,0.0,0.0,0.0,0.0,0.0,0.0,0.0,0.0,0.0,0.0,0.0,0.0,0.0,0.0,0.0,0.0,0.0,0.0,0.0,0.0,0.0,0.0,0.0,0.0,0.0,0.0,0.0,0.0,0.0,0.0,0.0,0.0,0.0,0.0,0.0,0.0,0.0,0.0,0.0,0.0,0.0,0.0,0.0,0.0,0.0,0.0,0.0,0.0,0.0,0.0,0.0,0.0,0.0,0.0,0.0,0.0,0.0,0.0,0.0,0.0,0.0,0.0,0.0,0.0,0.0,-0.5927,-0.6052,-0.5553,-0.6296,-0.8445,0.0,0.0,0.0,0.0,0.0,0.0,0.0,0.0,0.0,0.0,0.0,0.0,0.0,0.0,0.0,0.0,0.0,0.0,0.0,0.0,0.0,0.0,0.0,0.0,0.0,0.0,0.0,0.0,0.0,0.0,0.0,0.0,0.0,0.0,0.0,0.0,0.0,0.0,0.0,0.0,0.0,0.0,0.0,0.0,0.0,0.0,0.0,0.0,0.0,0.0,0.0,0.0,0.0,0.0,0.0,0.0,0.0,0.0,0.0,0.0,0.0,0.0,0.0,0.0,0.0,0.0,0.0,0.0,0.0,0.0,0.0,0.0,0.0,0.0,0.0,0.0,0.0,0.0,0.0,0.0,0.0,0.0,0.0,0.0,0.0,0.0,0.0,0.0,0.0,0.0,0.0,0.0,0.0,0.0,0.0,0.0,0.0,0.0,0.0,0.0,0.0,0.0,0.0,0.0,0.0,0.0,0.0,0.0,0.0,0.0,0.0,0.0,-0.9983,-0.9853,-1.0328,0.0,0.0,0.0,0.0,0.0,0.0,0.0,0.0,0.0,0.0,0.0,0.0,0.0,0.0,0.0,0.0,0.0,0.0,0.0,0.0,0.0,0.0,0.0,0.0,0.0,0.0,0.0,0.0,0.0,0.0,0.0,0.0,0.0,0.0,0.0,0.0,0.0,0.0,0.0,0.0,0.0,0.0,0.0,0.0,0.0,0.0,0.0,0.0,0.0,0.0,0.0,0.0,0.0,0.0,0.0,0.0,0.0,0.0,0.0,0.0,0.0,0.0,0.0,0.0,0.0,0.0,0.0,0.0,0.0,0.0,0.0,0.0,0.0,0.0,0.0,0.0,0.0,0.0,0.0,0.0,0.0,0.0,0.0,0.0,0.0,0.0,0.0,0.0,0.0,0.0,0.0,0.0,0.0,0.0,0.0,0.0,0.0,0.0,0.0,0.0,0.0,0.0,0.0,0.0,0.0,0.0,0.0,0.0,0.0,0.0,-1.0368,-1.0049,-0.9955,0.0,-1.3108,0.0,0.0,0.0,0.0,0.0,0.0,0.0,0.0,0.0,0.0,0.0,0.0,0.0,0.0,0.0,0.0,0.0,0.0,0.0,0.0,0.0,0.0,0.0,0.0,0.0,0.0,0.0,0.0,0.0,0.0,0.0,0.0,0.0,0.0,0.0,0.0,0.0,0.0,0.0,0.0,0.0,0.0,0.0,0.0,0.0,0.0,0.0,0.0,0.0,0.0,0.0,0.0,0.0,0.0,0.0,0.0,0.0,0.0,0.0,0.0,0.0,0.0,0.0,0.0,0.0,0.0,0.0,0.0,0.0,0.0,0.0,0.0,0.0,0.0,0.0,0.0,0.0,0.0,0.0,0.0,0.0,0.0,0.0,0.0,0.0,0.0,0.0,0.0,0.0,0.0,0.0,0.0,0.0,0.0,0.0,0.0,0.0,0.0,0.0,0.0,0.0,0.0,0.0,0.0,0.0,0.0,0.0,0.0,0.0,0.0,-0.9023,-0.8867,-1.4845,-1.8543,0.0,0.0,0.0,0.0,0.0,0.0,0.0,0.0,0.0,0.0,0.0,0.0,0.0,0.0,0.0,0.0,0.0,0.0,0.0,0.0,0.0,0.0,0.0,0.0,0.0,0.0,0.0,0.0,0.0,0.0,0.0,0.0,0.0,0.0,0.0,0.0,0.0,0.0,0.0,0.0,0.0,0.0,0.0,0.0,0.0,0.0,0.0,0.0,0.0,0.0,0.0,0.0,0.0,0.0,0.0,0.0,0.0,0.0,0.0,0.0,0.0,0.0,0.0,0.0,0.0,0.0,0.0,0.0,0.0,0.0,0.0,0.0,0.0,0.0,0.0,0.0,0.0,0.0,0.0,0.0,0.0,0.0,0.0,0.0,0.0,0.0,0.0,0.0,0.0,0.0,0.0,0.0,0.0,0.0,0.0,0.0,0.0,0.0,0.0,0.0,0.0,0.0,0.0,0.0,0.0,0.0,0.0,0.0,0.0,0.0,-0.8069,-1.2271,-1.2344,-1.921,-2.3022,-2.2851,0.0,0.0,0.0,0.0,0.0,0.0,0.0,0.0,0.0,0.0,0.0,0.0,0.0,0.0,0.0,0.0,0.0,0.0,0.0,0.0,0.0,0.0,0.0,0.0,0.0,0.0,0.0,0.0,0.0,0.0,0.0,0.0,0.0,0.0,0.0,0.0,0.0,0.0,0.0,0.0,0.0,0.0,0.0,0.0,0.0,0.0,0.0,0.0,0.0,0.0,0.0,0.0,0.0,0.0,0.0,0.0,0.0,0.0,0.0,0.0,0.0,0.0,0.0,0.0,0.0,0.0,0.0,0.0,0.0,0.0,0.0,0.0,0.0,0.0,0.0,0.0,0.0,0.0,0.0,0.0,0.0,0.0,0.0,0.0,0.0,0.0,0.0,0.0,0.0,0.0,0.0,0.0,0.0,0.0,0.0,0.0,0.0,0.0,0.0,0.0,0.0,0.0,0.0,0.0,0.0,0.0,0.0,0.0,-1.4337,-1.9889,-2.2473,-2.1346,-2.147,-2.1197,0.0,0.0,0.0,0.0,0.0,0.0,0.0,0.0,0.0,0.0,0.0,0.0,0.0,0.0,0.0,0.0,0.0,0.0,0.0,0.0,0.0,0.0,0.0,0.0,0.0,0.0,0.0,0.0,0.0,0.0,0.0,0.0,0.0,0.0,0.0,0.0,0.0,0.0,0.0,0.0,0.0,0.0,0.0,0.0,0.0,0.0,0.0,0.0,0.0,0.0,0.0,0.0,0.0,0.0,0.0,0.0,0.0,0.0,0.0,0.0,0.0,0.0,0.0,0.0,0.0,0.0,0.0,0.0,0.0,0.0,0.0,0.0,0.0,0.0,0.0,0.0,0.0,0.0,0.0,0.0,0.0,0.0,0.0,0.0,0.0,0.0,0.0,0.0,0.0,0.0,0.0,0.0,0.0,0.0,0.0,0.0,0.0,0.0,0.0,0.0,0.0,0.0,0.0,0.0,0.0,0.0,0.0,0.0,0.0,-0.4912,-1.236,-1.7976,-2.0985,-2.0934,-2.0745,0.0,0.0,0.0,0.0,0.0,0.0,0.0,0.0,0.0,0.0,0.0,0.0,0.0,0.0,0.0,0.0,0.0,0.0,0.0,0.0,0.0,0.0,0.0,0.0,0.0,0.0,0.0,0.0,0.0,0.0,0.0,0.0,0.0,0.0,0.0,0.0,0.0,0.0,0.0,0.0,0.0,0.0,0.0,0.0,0.0,0.0,0.0,0.0,0.0,0.0,0.0,0.0,0.0,0.0,0.0,0.0,0.0,0.0,0.0,0.0,0.0,0.0,0.0,0.0,0.0,0.0,0.0,0.0,0.0,0.0,0.0,0.0,0.0,0.0,0.0,0.0,0.0,0.0,0.0,0.0,0.0,0.0,0.0,0.0,0.0,0.0,0.0,0.0,0.0,0.0,0.0,0.0,0.0,0.0,0.0,0.0,0.0,0.0,0.0,0.0,0.0,0.0,0.0,0.0,0.0,0.0,0.0,0.0,0.0,-0.5625,0.0,-1.6302,-1.9843,-1.9826,-1.9722,0.0,0.0,0.0,0.0,0.0,0.0,0.0,0.0,0.0,0.0,0.0,0.0,0.0,0.0,0.0,0.0,0.0,0.0,0.0,0.0,0.0,0.0,0.0,0.0,0.0,0.0,0.0,0.0,0.0,0.0,0.0,0.0,0.0,0.0,0.0,0.0,0.0,0.0,0.0,0.0,0.0,0.0,0.0,0.0,0.0,0.0,0.0,0.0,0.0,0.0,0.0,0.0,0.0,0.0,0.0,0.0,0.0,0.0,0.0,0.0,0.0,0.0,0.0,0.0,0.0,0.0,0.0,0.0,0.0,0.0,0.0,0.0,0.0,0.0,0.0,0.0,0.0,0.0,0.0,0.0,0.0,0.0,0.0,0.0,0.0,0.0,0.0,0.0,0.0,0.0,0.0,0.0,0.0,0.0,0.0,0.0,0.0,0.0,0.0,0.0,0.0,0.0,0.0,0.0,0.0,0.0,0.0,0.0,-1.0322,-1.9778,-1.932,-1.8863,-1.8977,-1.8364,-1.8048,0.0,0.0,0.0,0.0,0.0,0.0,0.0,0.0,0.0,0.0,0.0,0.0,0.0,0.0,0.0,0.0,0.0,0.0,0.0,0.0,0.0,0.0,0.0,0.0,0.0,0.0,0.0,0.0,0.0,0.0,0.0,0.0,0.0,0.0,0.0,0.0,0.0,0.0,0.0,0.0,0.0,0.0,0.0,0.0,0.0,0.0,0.0,0.0,0.0,0.0,0.0,0.0,0.0,0.0,0.0,0.0,0.0,0.0,0.0,0.0,0.0,0.0,0.0,0.0,0.0,0.0,0.0,0.0,0.0,0.0,0.0,0.0,0.0,0.0,0.0,0.0,0.0,0.0,0.0,0.0,0.0,0.0,0.0,0.0,0.0,0.0,0.0,0.0,0.0,0.0,0.0,0.0,0.0,0.0,0.0,0.0,0.0,0.0,0.0,0.0,0.0,0.0,0.0,0.0,0.0,0.0,0.0,0.0,0.0,-1.9107,-1.9043,-1.8521,-1.79,-1.7619,-1.7549,0.0,0.0,0.0,0.0,0.0,0.0,0.0,0.0,0.0,0.0,0.0,0.0,0.0,0.0,0.0,0.0,0.0,0.0,0.0,0.0,0.0,0.0,0.0,0.0,0.0,0.0,0.0,0.0,0.0,0.0,0.0,0.0,0.0,0.0,0.0,0.0,0.0,0.0,0.0,0.0,0.0,0.0,0.0,0.0,0.0,0.0,0.0,0.0,0.0,0.0,0.0,0.0,0.0,0.0,0.0,0.0,0.0,0.0,0.0,0.0,0.0,0.0,0.0,0.0,0.0,0.0,0.0,0.0,0.0,0.0,0.0,0.0,0.0,0.0,0.0,0.0,0.0,0.0,0.0,0.0,0.0,0.0,0.0,0.0,0.0,0.0,0.0,0.0,0.0,0.0,0.0,0.0,0.0,0.0,0.0,0.0,0.0,0.0,0.0,0.0,0.0,0.0,0.0,0.0,0.0,0.0,0.0,0.0,0.0,-1.8473,-1.8934,-1.8616,-1.7993,-1.7915,-1.7967,-1.8103,0.0,0.0,0.0,0.0,0.0,0.0,0.0,0.0,0.0,0.0,0.0,0.0,0.0,0.0,0.0,0.0,0.0,0.0,0.0,0.0,0.0,0.0,0.0,0.0,0.0,0.0,0.0,0.0,0.0,0.0,0.0,0.0,0.0,0.0,0.0,0.0,0.0,0.0,0.0,0.0,0.0,0.0,0.0,0.0,0.0,0.0,0.0,0.0,0.0,0.0,0.0,0.0,0.0,0.0,0.0,0.0,0.0,0.0,0.0,0.0,0.0,0.0,0.0,0.0,0.0,0.0,0.0,0.0,0.0,0.0,0.0,0.0,0.0,0.0,0.0,0.0,0.0,0.0,0.0,0.0,0.0,0.0,0.0,0.0,0.0,0.0,0.0,0.0,0.0,0.0,0.0,0.0,0.0,0.0,0.0,0.0,0.0,0.0,0.0,0.0,0.0,0.0,0.0,0.0,0.0,0.0,0.0,0.0,-1.8824,-1.9224,-1.9176,-1.8863,-1.8936,-1.9026,0.0,0.0,0.0,0.0,0.0,0.0,0.0,0.0,0.0,0.0,0.0,0.0,0.0,0.0,0.0,0.0,0.0,0.0,0.0,0.0,0.0,0.0,0.0,0.0,0.0,0.0,0.0,0.0,0.0,0.0,0.0,0.0,0.0,0.0,0.0,0.0,0.0,0.0,0.0,0.0,0.0,0.0,0.0,0.0,0.0,0.0,0.0,0.0,0.0,0.0,0.0,0.0,0.0,0.0,0.0,0.0,0.0,0.0,0.0,0.0,0.0,0.0,0.0,0.0,0.0,0.0,0.0,0.0,0.0,0.0,0.0,0.0,0.0,0.0,0.0,0.0,0.0,0.0,0.0,0.0,0.0,0.0,0.0,0.0,0.0,0.0,0.0,0.0,0.0,0.0,0.0,0.0,0.0,0.0,0.0,0.0,0.0,0.0,0.0,0.0,0.0,0.0,0.0,0.0,0.0,0.0,0.0,0.0,0.0,-1.9555,-2.008,-1.9609,-1.859,-1.8437,-1.8498,0.0,0.0,0.0,0.0,0.0,0.0,0.0,0.0,0.0,0.0,0.0,0.0,0.0,0.0,0.0,0.0,0.0,0.0,0.0,0.0,0.0,0.0,0.0,0.0,0.0,0.0,0.0,0.0,0.0,0.0,0.0,0.0,0.0,0.0,0.0,0.0,0.0,0.0,0.0,0.0,0.0,0.0,0.0,0.0,0.0,0.0,0.0,0.0,0.0,0.0,0.0,0.0,0.0,0.0,0.0,0.0,0.0,0.0,0.0,0.0,0.0,0.0,0.0,0.0,0.0,0.0,0.0,0.0,0.0,0.0,0.0,0.0,0.0,0.0,0.0,0.0,0.0,0.0,0.0,0.0,0.0,0.0,0.0,0.0,0.0,0.0,0.0,0.0,0.0,0.0,0.0,0.0,0.0,0.0,0.0,0.0,0.0,0.0,0.0,0.0,0.0,0.0,0.0,0.0,0.0,0.0,0.0,0.0,-0.7741,-1.6306,-1.8976,-1.9885,-1.91,-1.8989,-1.9054,0.0,0.0,0.0,0.0,0.0,0.0,0.0,0.0,0.0,0.0,0.0,0.0,0.0,0.0,0.0,0.0,0.0,0.0,0.0,0.0,0.0,0.0,0.0,0.0,0.0,0.0,0.0,0.0,0.0,0.0,0.0,0.0,0.0,0.0,0.0,0.0,0.0,0.0,0.0,0.0,0.0,0.0,0.0,0.0,0.0,0.0,0.0,0.0,0.0,0.0,0.0,0.0,0.0,0.0,0.0,0.0,0.0,0.0,0.0,0.0,0.0,0.0,0.0,0.0,0.0,0.0,0.0,0.0,0.0,0.0,0.0,0.0,0.0,0.0,0.0,0.0,0.0,0.0,0.0,0.0,0.0,0.0,0.0,0.0,0.0,0.0,0.0,0.0,0.0,0.0,0.0,0.0,0.0,0.0,0.0,0.0,0.0,0.0,0.0,0.0,0.0,0.0,0.0,0.0,0.0,0.0,0.0,0.0,-0.5186,-1.0855,-1.6291,-1.9336,-1.9904,-1.9975,-2.0045,0.0,0.0,0.0,0.0,0.0,0.0,0.0,0.0,0.0,0.0,0.0,0.0,0.0,0.0,0.0,0.0,0.0,0.0,0.0,0.0,0.0,0.0,0.0,0.0,0.0,0.0,0.0,0.0,0.0,0.0,0.0,0.0,0.0,0.0,0.0,0.0,0.0,0.0,0.0,0.0,0.0,0.0,0.0,0.0,0.0,0.0,0.0,0.0,0.0,0.0,0.0,0.0,0.0,0.0,0.0,0.0,0.0,0.0,0.0,0.0,0.0,0.0,0.0,0.0,0.0,0.0,0.0,0.0,0.0,0.0,0.0,0.0,0.0,0.0,0.0,0.0,0.0,0.0,0.0,0.0,0.0,0.0,0.0,0.0,0.0,0.0,0.0,0.0,0.0,0.0,0.0,0.0,0.0,0.0,0.0,0.0,0.0,0.0,0.0,0.0,0.0,0.0,0.0,0.0,0.0,0.0,0.0,0.0,-0.0118,-1.0158,-1.1768,-1.4686,-1.9259,-1.9472,-1.9741,0.0,0.0,0.0,0.0,0.0,0.0,0.0,0.0,0.0,0.0,0.0,0.0,0.0,0.0,0.0,0.0,0.0,0.0,0.0,0.0,0.0,0.0,0.0,0.0,0.0,0.0,0.0,0.0,0.0,0.0,0.0,0.0,0.0,0.0,0.0,0.0,0.0,0.0,0.0,0.0,0.0,0.0,0.0,0.0,0.0,0.0,0.0,0.0,-2.3541,0.0,0.0,0.0,0.0,0.0,0.0,0.0,0.0,0.0,0.0,0.0,0.0,0.0,0.0,0.0,0.0,0.0,0.0,0.0,0.0,0.0,0.0,0.0,0.0,0.0,0.0,0.0,0.0,0.0,0.0,0.0,0.0,0.0,0.0,0.0,0.0,0.0,0.0,0.0,0.0,0.0,0.0,0.0,0.0,0.0,0.0,0.0,0.0,0.0,0.0,0.0,0.0,0.0,0.0,0.0,0.0,0.0,0.0,0.0,0.2943,-0.5558,-0.8613,-1.2972,-1.8854,-1.9161,-1.9325,0.0,0.0,0.0,0.0,0.0,0.0,0.0,0.0,0.0,0.0,0.0,0.0,0.0,0.0,0.0,0.0,0.0,0.0,0.0,0.0,0.0,0.0,0.0,0.0,0.0,0.0,0.0,0.0,0.0,0.0,0.0,0.0,0.0,0.0,0.0,0.0,0.0,0.0,0.0,0.0,0.0,0.0,0.0,0.0,0.0,0.0,0.0,0.0,0.0,0.0,0.0,0.0,0.0,0.0,0.0,0.0,0.0,0.0,0.0,0.0,0.0,0.0,0.0,0.0,0.0,0.0,0.0,0.0,0.0,0.0,0.0,0.0,0.0,0.0,0.0,0.0,0.0,0.0,0.0,0.0,0.0,0.0,0.0,0.0,0.0,0.0,0.0,0.0,0.0,0.0,0.0,0.0,0.0,0.0,0.0,0.0,0.0,0.0,0.0,0.0,0.0,0.0,0.0,0.0,0.0,0.0,0.0,1.1364,0.5774,-0.0522,-0.5636,-1.1638,-1.8674,-1.8846,-1.8898,-1.9191,0.0,0.0,0.0,0.0,0.0,0.0,0.0,0.0,0.0,0.0,0.0,0.0,0.0,0.0,0.0,0.0,0.0,0.0,0.0,0.0,0.0,0.0,0.0,0.0,0.0,0.0,0.0,0.0,0.0,0.0,0.0,0.0,0.0,0.0,0.0,0.0,0.0,0.0,-1.9569,-1.9555,0.0,0.0,0.0,0.0,0.0,0.0,0.0,0.0,-2.3576,0.0,0.0,0.0,0.0,0.0,0.0,0.0,0.0,0.0,0.0,0.0,0.0,0.0,0.0,0.0,0.0,0.0,0.0,0.0,0.0,0.0,0.0,0.0,0.0,0.0,0.0,0.0,0.0,0.0,0.0,0.0,0.0,0.0,0.0,0.0,0.0,0.0,0.0,0.0,0.0,0.0,0.0,0.0,0.0,0.0,0.0,0.0,0.0,0.0,0.0,0.0,0.0,0.0,0.0,0.0,0.0,1.6735,1.6335,1.0882,0.0207,-0.107,-0.6834,-1.7384,-1.85,-1.863,-1.8305,0.0,0.0,0.0,0.0,0.0,0.0,0.0,0.0,0.0,0.0,0.0,0.0,0.0,0.0,0.0,0.0,0.0,0.0,0.0,0.0,0.0,0.0,0.0,0.0,0.0,0.0,0.0,0.0,0.0,0.0,0.0,0.0,0.0,0.0,0.0,0.0,0.0,0.0,0.0,-1.9341,-1.9329,0.0,0.0,0.0,0.0,0.0,0.0,0.0,0.0,-2.3389,0.0,0.0,0.0,0.0,0.0,0.0,0.0,0.0,0.0,0.0,0.0,0.0,0.0,0.0,0.0,0.0,0.0,0.0,0.0,0.0,0.0,0.0,0.0,0.0,0.0,0.0,0.0,0.0,0.0,0.0,0.0,0.0,0.0,0.0,0.0,0.0,0.0,0.0,0.0,0.0,0.0,0.0,0.0,0.0,0.0,0.0,0.0,0.0,0.0,0.0,0.0,0.0,0.0,0.0,0.0,1.724,1.8028,1.2551,0.086,0.0477,-0.528,-1.7182,-1.7988,-1.8121,0.0,0.0,0.0,0.0,0.0,0.0,0.0,0.0,0.0,0.0,0.0,0.0,0.0,0.0,0.0,0.0,0.0,0.0,0.0,0.0,0.0,0.0,0.0,0.0,0.0,0.0,0.0,0.0,0.0,0.0,0.0,0.0,0.0,0.0,0.0,0.0,0.0,0.0,0.0,0.0,-1.9529,-1.97,-1.9525,0.0,0.0,0.0,0.0,0.0,0.0,-2.3084,-2.2952,0.0,0.0,0.0,0.0,0.0,0.0,0.0,0.0,0.0,0.0,0.0,0.0,0.0,0.0,0.0,0.0,0.0,0.0,0.0,0.0,0.0,0.0,0.0,0.0,0.0,0.0,0.0,0.0,0.0,0.0,0.0,0.0,0.0,0.0,0.0,0.0,0.0,0.0,0.0,0.0,0.0,0.0,0.0,0.0,0.0,0.0,0.0,0.0,0.0,0.0,0.0,0.0,0.0,0.0,0.0,1.7841,1.8528,1.297,0.125,0.0913,-0.4848,-1.7019,-1.7529,-1.7666,0.0,0.0,0.0,0.0,0.0,0.0,0.0,0.0,0.0,0.0,0.0,0.0,0.0,0.0,0.0,0.0,0.0,0.0,0.0,0.0,0.0,0.0,0.0,0.0,0.0,0.0,0.0,0.0,0.0,0.0,0.0,0.0,0.0,0.0,0.0,0.0,0.0,0.0,0.0,0.0,0.0,-2.0083,-1.9799,-2.0,0.0,0.0,0.0,0.0,-2.288,-2.2773,0.0,0.0,0.0,0.0,0.0,0.0,0.0,0.0,0.0,0.0,0.0,0.0,0.0,0.0,0.0,0.0,0.0,0.0,0.0,0.0,0.0,0.0,0.0,0.0,0.0,0.0,0.0,0.0,0.0,0.0,0.0,0.0,0.0,0.0,0.0,0.0,0.0,0.0,0.0,0.0,0.0,0.0,0.0,0.0,0.0,0.0,0.0,0.0,0.0,0.0,0.0,0.0,0.0,0.0,0.0,0.0,1.8879,1.891,1.297,0.1329,0.0953,-0.4678,-1.6545,-1.731,-1.7434,0.0,0.0,0.0,0.0,0.0,0.0,0.0,0.0,0.0,0.0,0.0,0.0,0.0,0.0,0.0,0.0,0.0,0.0,0.0,0.0,0.0,0.0,0.0,0.0,0.0,0.0,0.0,0.0,0.0,0.0,0.0,0.0,0.0,0.0,0.0,0.0,0.0,0.0,0.0,0.0,0.0,-2.0063,-1.9671,-2.0356,-2.1057,0.0,0.0,-2.1784,-2.2432,-2.2552,0.0,0.0,0.0,0.0,0.0,0.0,0.0,0.0,0.0,0.0,0.0,0.0,0.0,0.0,0.0,0.0,0.0,0.0,0.0,0.0,0.0,0.0,0.0,0.0,0.0,0.0,0.0,0.0,0.0,0.0,0.0,0.0,0.0,0.0,0.0,0.0,0.0,0.0,0.0,0.0,0.0,0.0,0.0,0.0,0.0,0.0,0.0,0.0,0.0,0.0,0.0,0.0,0.0,0.0,0.0,1.9754,2.002,2.0251,1.6049,0.7422,0.7037,0.1147,-1.1074,-1.1582,-1.3419,0.0,0.0,0.0,0.0,0.0,0.0,0.0,0.0,0.0,0.0,0.0,0.0,0.0,0.0,0.0,0.0,0.0,0.0,0.0,0.0,0.0,0.0,0.0,0.0,0.0,0.0,0.0,0.0,0.0,0.0,0.0,0.0,0.0,0.0,0.0,0.0,0.0,0.0,0.0,0.0,0.0,0.0,-1.9947,-2.0657,0.0,0.0,0.0,-2.1592,-2.2286,0.0,0.0,0.0,0.0,0.0,0.0,0.0,0.0,0.0,0.0,0.0,0.0,0.0,0.0,0.0,0.0,0.0,0.0,0.0,0.0,0.0,0.0,0.0,0.0,0.0,0.0,0.0,0.0,0.0,0.0,0.0,0.0,0.0,0.0,0.0,0.0,0.0,0.0,0.0,0.0,0.0,0.0,0.0,0.0,0.0,0.0,0.0,0.0,0.0,0.0,0.0,0.0,0.0,0.0,0.0,0.0,0.0,2.0926,2.1295,1.7517,0.9591,0.9103,0.2995,-0.9342,-0.9694,0.0,0.0,0.0,0.0,0.0,0.0,0.0,0.0,0.0,0.0,0.0,0.0,0.0,0.0,0.0,0.0,0.0,0.0,0.0,0.0,0.0,0.0,0.0,0.0,0.0,0.0,0.0,-2.1811,0.0,0.0,0.0,0.0,0.0,0.0,0.0,0.0,0.0,0.0,0.0,0.0,0.0,0.0,-2.0848,-2.0357,-2.1002,-2.1725,0.0,0.0,-2.1551,-2.2108,-2.1974,-2.1811,0.0,0.0,0.0,0.0,0.0,0.0,0.0,0.0,0.0,0.0,0.0,0.0,0.0,0.0,0.0,0.0,0.0,0.0,0.0,0.0,0.0,0.0,0.0,0.0,0.0,0.0,0.0,0.0,0.0,0.0,0.0,0.0,0.0,0.0,0.0,0.0,0.0,0.0,0.0,0.0,0.0,0.0,0.0,0.0,0.0,0.0,0.0,0.0,0.0,0.0,0.0,0.0,0.0,0.0,0.0,2.1454,2.1474,1.5258,0.2732,0.1972,-0.4132,-1.6478,-1.6561,-1.6434,0.0,0.0,0.0,0.0,0.0,0.0,0.0,0.0,0.0,0.0,0.0,0.0,0.0,0.0,0.0,0.0,0.0,0.0,0.0,0.0,0.0,0.0,0.0,0.0,0.0,0.0,0.0,0.0,0.0,0.0,0.0,0.0,0.0,0.0,0.0,0.0,0.0,0.0,0.0,0.0,0.0,-2.1182,-2.0881,-2.1434,-2.1919,0.0,0.0,-2.1861,-2.1694,-2.1754,-2.1721,-2.1584,0.0,0.0,0.0,0.0,0.0,0.0,0.0,0.0,0.0,0.0,0.0,0.0,0.0,0.0,0.0,0.0,0.0,0.0,0.0,0.0,0.0,0.0,0.0,0.0,0.0,0.0,0.0,0.0,0.0,0.0,0.0,0.0,0.0,0.0,0.0,0.0,0.0,0.0,0.0,0.0,0.0,0.0,0.0,0.0,0.0,0.0,0.0,0.0,0.0,0.0,0.0,0.0,0.0,2.211,2.2095,2.2512,1.7925,0.8442,0.778,0.1294,-1.2101,-1.2123,-1.374,0.0,0.0,0.0,0.0,0.0,0.0,0.0,0.0,0.0,0.0,0.0,0.0,0.0,0.0,0.0,0.0,0.0,0.0,0.0,0.0,0.0,0.0,0.0,0.0,0.0,0.0,0.0,0.0,-2.1151,-2.0416,-1.8385,0.0,0.0,0.0,0.0,0.0,0.0,0.0,0.0,0.0,0.0,-2.0843,-2.0558,-2.1095,0.0,0.0,-2.1688,-2.1675,-2.162,-2.1542,-2.1433,-2.1277,-2.1402,0.0,0.0,0.0,0.0,0.0,0.0,0.0,0.0,0.0,0.0,0.0,0.0,0.0,0.0,0.0,0.0,0.0,0.0,0.0,0.0,0.0,0.0,0.0,0.0,0.0,0.0,0.0,0.0,0.0,0.0,0.0,0.0,0.0,0.0,0.0,0.0,0.0,0.0,0.0,0.0,0.0,0.0,0.0,0.0,0.0,0.0,0.0,0.0,0.0,0.0,0.0,0.0,2.2649,2.2498,2.3127,1.9816,1.2339,1.2115,0.5376,-0.8209,-0.8535,-1.1401,0.0,0.0,0.0,0.0,0.0,0.0,0.0,0.0,0.0,0.0,0.0,0.0,0.0,0.0,0.0,0.0,0.0,0.0,0.0,0.0,0.0,0.0,0.0,0.0,0.0,0.0,0.0,0.0,-1.9204,-1.9007,-2.0895,0.0,0.0,0.0,0.0,0.0,0.0,0.0,0.0,0.0,0.0,-2.0705,-2.0562,-2.0953,-2.1291,-2.1354,-2.1507,-2.1601,-2.1371,-2.1277,-2.1151,-2.1023,0.0,0.0,0.0,0.0,0.0,0.0,0.0,0.0,0.0,0.0,0.0,0.0,0.0,0.0,0.0,0.0,0.0,0.0,0.0,0.0,0.0,0.0,0.0,0.0,0.0,0.0,0.0,0.0,0.0,0.0,2.2217,0.0,0.0,0.0,0.0,0.0,0.0,0.0,0.0,0.0,0.0,0.0,0.0,0.0,0.0,0.0,0.0,0.0,0.0,0.0,0.0,0.0,0.0,2.3024,2.2526,2.3038,1.9877,1.296,1.2665,0.5996,-0.755,-0.7583,-1.0676,-1.81,0.0,0.0,0.0,0.0,0.0,0.0,0.0,0.0,0.0,0.0,0.0,0.0,0.0,0.0,0.0,0.0,0.0,0.0,0.0,0.0,0.0,0.0,0.0,0.0,0.0,0.0,-2.0677,-1.5804,-1.4862,0.0,0.0,0.0,0.0,0.0,0.0,0.0,0.0,0.0,0.0,-1.7081,-2.0991,-2.0799,-2.1102,-2.1165,-2.0847,-2.1472,-2.1688,-2.0942,-2.0877,-2.0877,0.0,0.0,0.0,0.0,0.0,0.0,0.0,0.0,0.0,0.0,0.0,0.0,0.0,0.0,0.0,0.0,0.0,0.0,0.0,0.0,0.0,0.0,0.0,0.0,0.0,0.0,0.0,2.3407,2.3216,0.0,0.0,0.0,0.0,0.0,0.0,0.0,0.0,0.0,0.0,0.0,2.3068,2.2994,0.0,0.0,0.0,0.0,0.0,0.0,0.0,0.0,0.0,0.0,0.0,0.0,2.274,2.2649,2.329,2.0083,1.2981,1.2943,0.843,-0.1085,-0.5391,-1.0891,-1.7858,0.0,0.0,0.0,0.0,0.0,0.0,0.0,0.0,0.0,0.0,0.0,0.0,0.0,0.0,0.0,0.0,0.0,0.0,0.0,0.0,0.0,0.0,0.0,0.0,0.0,-2.0548,0.0,0.0,0.0,0.0,0.0,0.0,0.0,0.0,0.0,0.0,0.0,-1.5556,-1.7423,-1.9405,-1.9086,-1.4823,-1.7903,-1.9131,0.0,0.0,0.0,0.0,0.0,0.0,0.0,0.0,0.0,0.0,0.0,0.0,0.0,0.0,-2.4406,-2.3884,-2.3901,-2.4015,-2.4015,0.0,0.0,0.0,0.0,0.0,0.0,0.0,0.0,0.0,0.0,0.0,0.0,0.0,0.0,2.3638,0.0,2.3098,0.0,0.0,0.0,0.0,0.0,0.0,0.0,0.0,2.3348,2.3494,2.3494,2.3363,2.326,0.0,2.3304,2.3157,0.0,0.0,0.0,0.0,0.0,0.0,0.0,0.0,2.2785,2.2934,2.3465,2.1413,1.6935,1.6974,1.3626,0.6223,-0.2952,-0.9862,-1.4268,-1.661,-1.7675,0.0,0.0,0.0,0.0,0.0,0.0,0.0,0.0,0.0,0.0,0.0,0.0,0.0,0.0,0.0,0.0,0.0,0.0,0.0,0.0,0.0,0.0,0.0,-1.7242,0.0,0.0,0.0,0.0,0.0,0.0,0.0,0.0,0.0,-1.3702,-1.2928,-1.2444,-1.4223,-1.5993,-1.5558,-1.134,0.0,0.0,0.0,0.0,0.0,0.0,0.0,-2.0395,-2.0135,-2.0615,-2.1268,-2.1982,-2.3195,-2.4328,-2.4887,0.0,0.0,-2.4321,-2.4337,-2.439,-2.4374,-2.4638,-2.472,-2.4439,-2.4605,-2.472,0.0,0.0,0.0,0.0,0.0,0.0,0.0,0.0,2.3638,2.358,0.0,2.3406,0.0,0.0,0.0,0.0,0.0,2.3625,0.0,0.0,2.3797,2.3797,2.3797,2.3494,2.3304,2.3319,2.3421,2.3406,2.3406,2.3406,0.0,0.0,0.0,0.0,0.0,0.0,2.3334,2.3319,2.3523,2.3724,2.3849,2.4282,2.0932,1.3324,-0.0094,-0.7435,-0.7915,-1.4387,-1.8017,-1.7977,-1.7554,0.0,0.0,0.0,0.0,0.0,0.0,0.0,0.0,0.0,0.0,0.0,0.0,0.0,0.0,0.0,0.0,0.0,0.0,0.0,0.0,-1.0267,0.0,0.0,0.0,0.0,0.0,0.0,0.0,0.0,0.0,0.0,-0.1748,-0.7189,-0.8858,-0.3458,0.0,0.0,0.0,0.0,-0.3499,-0.9077,-1.0747,-1.3387,-1.914,-2.0021,-2.0041,-2.0142,0.0,0.0,-2.3055,-2.3977,-2.4589,-2.4926,-2.4966,-2.5005,-2.4974,-2.5173,-2.54,-2.54,-2.4952,-2.479,-2.5222,-2.4915,-2.4742,2.4451,0.0,0.0,0.0,0.0,2.412,2.4036,2.3882,2.4204,2.4287,2.4245,2.3867,0.0,0.0,0.0,0.0,0.0,0.0,2.3797,2.3839,2.4051,2.4135,2.4135,2.4051,2.4009,2.3994,2.4036,2.3909,2.3696,2.3696,2.348,2.3083,0.0,0.0,0.0,0.0,2.3363,2.3466,2.3566,2.3739,2.3982,2.4261,2.1193,1.4529,0.5358,-0.1913,-0.6866,-1.4144,-1.8097,-1.7992,-1.2874,0.0,0.0,0.0,0.0,0.0,0.0,0.0,0.0,0.0,0.0,0.0,0.0,0.0,0.0,0.0,0.0,0.0,0.0,0.0,0.7263,0.5522,0.118,0.0,0.0,0.0,0.0,0.0,0.0,0.0,0.0,0.0,0.5412,0.3394,0.1076,0.0,0.0,-0.2244,0.2486,0.0769,-0.164,-0.3306,-0.7937,0.0,0.0,-2.1066,-2.1326,-2.1048,-2.1545,-2.2271,-2.3245,-2.4013,-2.4539,-2.462,-2.4846,-2.5005,-2.5005,-2.5084,-2.513,-2.5114,-2.4971,-2.4907,-2.5082,-2.4955,-2.4907,2.4614,2.4784,2.4338,2.4162,2.4188,2.4328,2.4302,2.4151,2.4385,2.4467,2.4467,2.4135,2.4051,2.4162,2.3839,0.0,0.0,0.0,2.3994,2.4009,2.4234,2.4302,2.4302,2.4302,2.4302,2.4302,2.4036,2.3909,2.3797,2.3436,2.326,2.3216,0.0,0.0,2.3023,2.3171,2.3275,2.3422,2.3494,2.3653,2.3925,2.4302,2.2716,1.8976,1.1991,0.4818,-0.2354,-0.9645,-1.4872,-1.7519,-1.0776,-0.6871,0.0,0.0,0.0,0.0,0.0,0.0,0.0,0.0,0.0,0.0,0.0,-0.0467,-0.069,0.0,0.0,0.0,-0.542,-0.1307,1.6563,1.2582,0.0,0.0,0.0,0.0,0.0,0.0,0.0,0.2043,0.8293,1.2569,1.2235,1.211,0.9706,0.3497,0.3017,0.4758,0.8902,0.0,0.5676,0.0374,-0.402,-1.0056,-1.9335,-2.1234,-2.1539,-2.1686,-2.2039,-2.2566,-2.3287,-2.3767,-2.4177,-2.4441,-2.4645,-2.4862,-2.4982,-2.5005,-2.5005,-2.5005,-2.5005,-2.5005,-2.5005,-2.5005,-2.5005,2.4639,2.5114,2.5029,2.4831,2.463,2.4645,2.4508,2.4302,2.4302,2.4302,2.4302,2.4302,2.4302,2.4302,2.4302,0.0,2.4302,2.4302,2.4302,2.4302,2.4302,2.4302,2.4302,2.4302,2.4302,2.4302,2.3724,2.3551,2.3739,2.2859,2.2632,2.3068,2.3038,2.3008,2.2902,2.3023,2.3157,2.326,2.3422,2.3581,2.3839,2.4451,2.4934,2.5153,1.8645,1.1767,0.4837,-0.2153,-0.8878,-1.4869,-0.887,-0.4897,-0.4204,0.0,0.0,0.0,0.0,0.0,0.0,0.0,0.0,0.0,0.0,0.0,0.0,0.0,0.0,0.0,0.6753,0.0,1.9265,1.3932,0.0,0.0,0.0,0.1273,0.1228,0.6376,0.9723,0.9314,0.0,0.0,1.8284,1.8681,1.6794,1.0784,1.0508,1.0997,1.1404,1.6376,1.5562,0.1996,-0.0043,-0.5119,-1.8557,-2.1124,-2.148,-2.2147,-2.2149,-2.2425,-2.3157,-2.3406,-2.3681,-2.4219,-2.4457,-2.4539,-2.4846,-2.4886,-2.4926,-2.4886,-2.4926,-2.4966,-2.4926,-2.4886,-2.4831,2.4639,2.4533,2.4799,2.4958,2.5036,2.4918,2.4639,2.4302,2.4302,2.4302,2.4302,2.4302,2.4302,2.4302,2.4302,2.4302,2.4302,2.4302,2.4302,2.4302,2.4302,2.4302,2.4302,2.4302,2.4302,2.4261,2.3867,2.3739,2.3739,2.3024,2.2754,2.2934,2.2678,2.2692,2.2888,2.2918,2.3038,2.326,2.3422,2.3625,2.394,2.4343,2.4742,2.5029,1.8437,1.4089,1.2323,0.519,0.0475,-0.0964,0.5445,0.9013,0.8715,1.1126,0.0,0.0,0.0,0.0,0.0,0.0,0.0,0.0,0.0,1.4957,1.473,0.0,1.5161,0.0,1.7477,1.943,2.1058,1.9549,0.0,0.0,1.6717,1.5809,1.5957,1.6955,1.754,1.7483,1.8889,1.9706,1.931,1.9704,1.9561,1.8003,1.7517,1.7544,1.8067,1.9275,1.554,0.314,-0.0404,-0.5718,-1.8779,-2.2351,-2.2746,-2.2981,-2.2834,-2.2773,-2.2994,-2.3201,-2.345,-2.3638,-2.3925,-2.4151,-2.4234,-2.4234,-2.4234,-2.4276,-2.4441,-2.462,-2.462,-2.4441,-2.4177,2.5114,2.5052,2.5114,2.5176,2.5269,2.4799,2.4614,2.4574,2.4574,2.4574,2.4574,2.4558,2.4574,2.4574,2.4558,2.4451,2.4302,2.4302,2.4302,2.4302,2.4302,2.4302,2.4302,2.4302,2.4302,2.4261,2.3967,2.3797,2.3754,2.3068,2.2694,2.2709,2.2449,2.2402,2.2601,2.2737,2.2978,2.3201,2.3378,2.3596,2.3839,2.4193,2.4564,2.4784,2.1377,1.8068,1.5157,1.102,0.5743,-0.0334,0.8941,1.2848,0.9266,1.5798,2.1008,0.0,0.0,0.0,0.0,0.0,0.0,0.0,0.0,0.0,0.0,0.0,2.0482,2.1069,2.1491,2.1789,2.1969,2.1713,2.1465,2.1385,2.1058,2.0893,2.0988,2.0557,2.0173,2.0014,2.0161,2.0134,1.9793,2.018,2.0574,2.0745,2.0449,2.0465,2.0692,1.8661,1.3552,0.6288,-0.0609,-0.8631,-2.0199,-2.248,-2.3024,-2.2949,-2.2963,-2.2992,-2.2902,-2.3053,-2.3201,-2.3377,-2.3595,-2.3782,-2.394,-2.3982,-2.3982,-2.3982,-2.4009,-2.4109,-2.425,-2.4151,-2.394,2.561,2.5848,2.5572,2.5406,2.5346,2.4679,2.4614,2.4902,2.4918,2.4902,2.4942,2.4902,2.4918,2.4902,2.4902,2.4695,2.4317,2.4302,2.4302,2.4276,2.4302,2.4302,2.4276,2.4302,2.4302,2.4276,2.3967,2.3797,2.3839,2.3054,2.2603,2.2558,2.2296,2.2184,2.2184,2.2552,2.2886,2.3082,2.3334,2.3509,2.3595,2.3994,2.441,2.4735,2.5045,2.2455,1.6722,1.6397,1.0525,-0.1355,0.9545,1.3398,0.7052,1.8601,2.5324,0.0,2.4547,0.0,0.0,0.0,0.0,0.0,0.0,0.0,0.0,2.1069,2.1317,2.1868,2.1939,2.2094,2.2435,2.2154,2.1934,2.1934,2.1457,2.1151,2.1151,2.0756,2.0293,1.9876,2.0265,2.0388,2.0013,2.0361,2.0799,2.0957,2.0966,2.1218,2.1348,1.6209,1.128,1.0426,-0.2093,-1.407,-1.993,-2.2049,-2.2572,-2.2558,-2.2723,-2.2978,-2.2888,-2.2888,-2.2978,-2.3246,-2.3334,-2.3465,-2.3812,-2.3855,-2.3812,-2.3754,-2.3508,-2.3465,-2.3797,-2.3855,-2.3839,2.5626,2.54,2.568,2.5605,2.523,2.5075,2.4997,2.4902,2.4839,2.4997,2.5253,2.4958,2.4823,2.4902,2.4902,2.4695,2.4317,2.4302,2.4261,2.4223,2.4261,2.4276,2.4208,2.4276,2.4276,2.4208,2.3925,2.3925,2.4124,2.292,2.2512,2.2799,2.2217,2.1935,2.203,0.0,0.0,0.0,2.3231,2.3436,2.3595,2.3782,2.4094,2.4523,2.462,0.0,2.3436,2.3374,2.2203,1.9767,2.2106,0.0,0.0,0.0,0.0,0.0,0.0,0.0,0.0,0.0,0.0,0.0,2.2207,2.1872,2.201,2.2361,2.2405,2.2058,2.2715,2.3266,2.3325,2.3281,2.3236,2.3236,2.279,2.2527,2.2497,2.205,2.1574,2.1118,2.1131,2.1054,2.0627,2.066,2.0749,2.0947,2.0997,2.1229,2.1807,1.5734,0.9275,0.3161,-0.916,-1.8953,-2.1143,-2.1759,-2.2109,-2.2388,-2.2402,-2.2523,-2.2797,-2.2888,-2.2888,-2.3008,-2.3008,-2.3008,-2.3112,-2.3112,-2.3098,-2.2918,-2.2828,-2.2904,-2.3377,-2.3304,-2.3023,2.7043,0.0,2.6869,2.6737,0.0,2.635,2.6142,2.5828,2.5258,2.523,2.5556,2.5176,2.4997,2.502,2.5059,2.4719,2.4151,2.4135,2.4151,2.4124,2.4078,2.4094,2.4124,2.4094,2.4094,2.4082,2.3696,2.3551,2.3653,2.2649,2.2203,2.2249,2.1935,2.1712,2.1506,2.1888,2.237,2.2857,2.3008,2.3172,2.3246,2.3551,2.3867,2.4261,0.0,0.0,0.0,0.0,0.0,0.0,0.0,0.0,0.0,0.0,0.0,2.5616,2.526,2.4901,2.4621,2.4189,2.3809,2.346,2.3341,2.3148,2.2731,2.3209,2.3349,2.2975,2.3368,2.3595,2.3595,2.3595,2.3595,2.3551,2.3157,2.2889,2.2844,2.242,2.2002,2.1746,2.1444,2.1153,2.0871,2.0699,2.0662,2.0749,2.0785,2.0997,2.0704,1.5527,0.7704,-0.2598,-0.9978,-1.6914,-2.0332,-2.1375,-2.1602,-2.1766,-2.2095,-2.2356,-2.2509,-2.2737,-2.2888,-2.2888,-2.2888,-2.2888,-2.2888,-2.2888,-2.2843,-2.2752,-2.2752,-2.2843,-2.3083,-2.2828,-2.2523,2.8434,2.8434,2.8066,2.7947,2.7907,2.7688,2.7372,2.6928,0.0,0.0,0.0,2.5329,2.5137,2.5114,2.5114,2.4695,2.4024,2.4104,2.4164,2.4164,2.4212,2.4258,2.4303,2.4258,2.4258,2.4288,2.3688,2.3393,2.3304,2.2385,2.1807,2.1616,2.165,2.1471,2.1144,2.1506,2.1949,2.237,2.2709,2.2904,2.2889,2.3334,2.3681,2.3979,2.4219,2.4523,2.4846,2.4886,2.1958,1.5981,2.1689,2.2358,1.6389,2.1922,2.5502,2.5486,2.5486,2.5333,2.4966,2.4926,2.4726,2.4261,2.4219,2.3989,2.3341,2.3732,2.3955,2.3885,2.3711,2.3595,2.3595,2.3595,2.3595,2.3595,2.3157,2.2889,2.2844,2.2452,2.2142,2.1983,2.1636,2.1369,2.1188,2.0871,2.0612,2.0662,2.0699,2.0762,2.0109,1.5355,0.6234,-0.6455,-1.0409,-1.2693,-1.871,-2.0947,-2.118,-2.114,-2.1718,-2.2189,-2.231,-2.2509,-2.2752,-2.2888,-2.2888,-2.2888,-2.2888,-2.2888,-2.2888,-2.2857,-2.2843,-2.2797,-2.2706,-2.2417,-2.2184,2.8162,2.8256,2.8178,2.8178,2.8178,2.8256,2.7994,2.7421,2.6189,2.5647,2.5684,2.5237,2.4887,2.4688,2.4704,2.4451,2.4055,2.4618,2.4803,0.0,2.5364,2.5652,2.5591,2.5682,2.5637,2.5485,2.452,2.4056,2.3783,2.2409,2.165,2.1554,2.1264,2.118,2.1326,2.141,2.1471,2.1554,2.2342,2.2785,2.2889,2.3172,2.3436,2.3638,2.3696,2.3952,2.4385,2.4498,2.4163,2.3264,2.4382,2.4492,2.3551,2.443,2.5084,2.5084,2.5084,2.4966,2.467,2.462,2.44,2.4067,2.4024,2.4021,2.4044,2.4021,2.3997,2.3885,2.3726,2.3595,2.3595,2.3595,2.3595,2.3551,2.3187,2.2844,2.2785,2.2694,2.242,2.1983,2.2156,2.2095,2.1698,2.1326,2.1095,2.1046,2.0885,2.0799,2.0057,1.5366,0.562,-0.6144,-0.9893,-1.2968,-1.8079,-2.051,-2.0403,-2.1118,-2.1104,-2.1431,-2.2123,-2.2263,-2.2417,-2.2843,-2.2843,-2.2888,-2.2888,-2.2888,-2.2843,-2.2706,-2.2661,-2.2555,-2.2184,-2.1996,-2.1949,2.9247,2.9305,2.9305,2.9288,2.9272,2.8918,2.8616,2.8331,2.7369,2.6873,2.6694,2.6286,2.5967,2.5759,2.5478,2.5146,2.4762,2.5107,2.5182,2.5181,2.5511,2.5615,2.5473,2.5535,2.5535,2.5396,2.4356,2.3645,2.3226,2.1876,2.1055,2.0885,2.0636,2.0736,2.1068,2.1068,2.1118,2.118,2.1779,2.2203,2.2388,2.2678,2.2949,2.3187,2.3451,2.3668,2.3894,2.4109,2.4276,2.4369,2.4523,2.4645,2.4726,2.4846,2.491,2.5005,2.5005,2.4846,2.4564,2.4317,2.4151,2.4024,2.3982,2.3982,2.3997,2.3925,2.3855,2.3769,2.3653,2.3551,2.3508,2.3493,2.3465,2.3436,2.3216,2.3083,2.3024,2.3038,2.2859,2.254,2.2434,2.2282,2.2044,2.1759,2.152,2.1506,2.1215,2.1118,2.1313,1.8584,1.2949,0.345,-0.1614,-0.693,-1.3372,-1.4786,-1.6398,-1.9973,-2.0934,-2.1104,-2.1541,-2.165,-2.2044,-2.2417,-2.2523,-2.2661,-2.2797,-2.2888,-2.2843,-2.2812,-2.2661,-2.2463,-2.2278,-2.203,-2.1793,3.0017,3.0017,3.0017,3.0017,2.9968,2.943,2.917,2.9079,2.8567,2.8216,2.7907,2.7248,2.68,2.6582,2.6062,2.5663,2.5379,2.5512,2.5586,2.5601,2.5734,2.5775,2.5644,2.5629,2.5555,2.5253,2.4206,2.337,2.2706,2.1533,2.0709,2.0321,2.0169,2.0271,2.056,2.061,2.0673,2.0785,2.1193,2.152,2.1902,2.2184,2.2495,2.2754,2.3142,2.3363,2.3465,2.3754,2.3897,2.3897,2.4094,2.4261,2.4374,2.4549,2.467,2.4766,2.4766,2.4645,2.4374,2.4109,2.394,2.3882,2.3897,2.3855,2.3754,2.3754,2.3696,2.361,2.3596,2.3553,2.3421,2.3289,2.3304,2.3304,2.326,2.3275,2.3231,2.3246,2.3201,2.3023,2.2678,2.2434,2.2324,2.2077,2.1902,2.1759,2.1541,2.1444,2.1541,2.1202,1.8634,1.3913,0.7504,0.0632,-0.6075,-0.935,-1.2194,-1.7621,-1.976,-2.0578,-2.0957,-2.1202,-2.1541,-2.1921,-2.217,-2.2278,-2.2601,-2.2737,-2.2752,-2.2706,-2.2569,-2.2463,-2.2324,-2.1935,-2.1664,2.947,2.9396,2.9396,2.9425,2.956,2.948,2.9387,2.9313,2.9323,2.9278,2.8907,2.7381,2.6468,2.6047,2.555,2.5357,2.5305,2.5855,2.612,2.6194,2.6775,2.699,2.6931,2.696,2.6629,2.5842,2.4726,2.383,2.3077,2.1855,2.1055,2.056,2.0055,1.9862,1.9901,2.0029,2.008,2.0093,2.0448,2.0947,2.1616,2.2044,2.2278,2.2463,2.2663,2.2844,2.2979,2.3319,2.3553,2.3553,2.3855,2.4024,2.4067,2.4067,2.4067,2.4109,2.4109,2.4024,2.3882,2.3839,2.3739,2.3638,2.3653,2.3625,2.3538,2.3509,2.3509,2.3509,2.354,2.3496,2.3319,2.3113,2.3054,2.326,2.3275,2.3231,2.3112,2.3127,2.3082,2.2947,2.2843,2.2857,2.2752,2.2509,2.2231,2.1983,2.1793,2.165,2.1396,2.1299,2.1148,1.8931,1.4261,0.7711,0.1022,-0.5859,-0.8827,-1.1062,-1.6232,-1.9246,-2.0276,-2.0809,-2.0845,-2.1431,-2.1766,-2.1983,-2.2077,-2.2263,-2.2569,-2.2417,-2.2278,-2.2184,-2.1935,-2.1554,-2.1313,2.9213,2.9152,2.9167,2.9213,2.9243,2.9243,2.9213,2.9213,2.9243,2.9213,2.9058,2.7953,2.7347,2.7061,2.6619,2.622,2.5981,2.6279,2.641,2.641,2.6672,2.675,2.6645,2.6659,2.6381,2.5907,2.4875,2.4013,2.3055,2.1446,2.0396,2.0105,1.9604,1.9344,1.9436,1.9565,1.9681,1.9784,1.9978,2.022,2.056,2.1166,2.1664,2.203,2.2249,2.2495,2.2737,2.2979,2.3216,2.3363,2.3494,2.3668,2.3882,2.3882,2.3925,2.3982,2.3839,2.3739,2.3696,2.3566,2.3494,2.3436,2.3436,2.3392,2.3363,2.329,2.326,2.326,2.3378,2.3363,2.3201,2.3024,2.2951,2.3053,2.3037,2.3007,2.2931,2.2872,2.2797,2.2752,2.2781,2.2826,2.2826,2.2752,2.2678,2.248,2.231,2.1935,2.1827,2.1444,2.1202,2.0908,1.8547,1.4342,0.8158,0.496,-0.0583,-0.7702,-1.2094,-1.4786,-1.9459,-2.0434,-2.051,-2.0904,-2.1237,-2.1444,-2.1575,-2.1983,-2.2324,-2.2123,-2.217,-2.2123,-2.1841,-2.1458,-2.1277,2.9075,2.9013,2.9013,2.9013,2.8982,2.8967,2.8936,2.8811,2.8811,2.8795,2.8748,2.8301,2.7944,2.7695,2.7203,2.6841,2.6736,2.6457,2.6404,2.6457,2.6404,2.6204,2.6096,2.6042,2.5849,2.542,2.4741,2.3951,2.2869,2.1069,2.0012,1.9685,1.9035,1.8709,1.8804,1.8922,1.9112,1.9298,1.9499,1.9592,1.9698,2.0271,2.0867,2.134,2.1698,2.1969,2.217,2.254,2.2814,2.3008,2.3142,2.3304,2.3523,2.361,2.3711,2.3839,2.3653,2.3523,2.3523,2.3348,2.3216,2.3231,2.3231,2.3172,2.3172,2.3098,2.3023,2.3052,2.3112,2.3068,2.3037,2.2889,2.2844,2.2843,2.2766,2.2749,2.2735,2.2661,2.2615,2.2615,2.2689,2.2735,2.2735,2.2752,2.2814,2.2814,2.254,2.2263,2.217,2.1541,2.1042,2.1251,2.0868,1.892,1.4677,1.1204,0.5935,0.0243,-0.4788,-0.9331,-1.5764,-1.7004,-1.9308,-1.9158,-2.0025,-2.0709,-2.0944,-2.1396,-2.1793,-2.1698,-2.1636,-2.1684,-2.1444,-2.1166,-2.1019,2.8935,2.8732,2.8732,2.8779,2.8732,2.8732,2.8479,2.8201,2.8088,2.8103,2.8103,2.8054,2.7806,2.7386,2.6721,2.6721,2.713,2.6379,2.615,2.6404,2.6042,2.5756,2.5467,2.5453,2.508,2.4559,2.4394,2.3662,2.2403,2.1056,2.0175,1.9684,1.8513,1.7822,1.791,1.8054,1.8214,1.8691,1.8985,1.9086,1.9142,1.9574,1.997,2.0271,2.0809,2.1077,2.1188,2.1827,2.2231,2.2278,2.2678,2.2934,2.2994,2.3172,2.3363,2.3451,2.3363,2.3319,2.326,2.3127,2.3083,2.3083,2.2994,2.2889,2.2904,2.2904,2.2828,2.2781,2.2706,2.2721,2.2735,2.2692,2.2692,2.2646,2.2601,2.2615,2.2601,2.2569,2.2615,2.2601,2.2569,2.2569,2.2569,2.2615,2.2601,2.2601,2.2569,2.2417,2.1983,2.1492,2.1091,2.0858,2.0709,2.0568,2.0087,1.6571,1.2358,0.7085,0.1616,-0.1917,-0.6498,-1.0773,-1.4093,-1.7311,-1.8251,-1.9083,-1.9989,-2.051,-2.0795,-2.0858,-2.0759,-2.0709,-2.1055,-2.0573,-2.0472,2.9335,2.9227,2.9212,2.9212,2.9227,2.9227,2.8904,2.8431,2.8431,2.8268,2.8005,2.7905,2.779,2.759,2.6774,2.6616,2.6855,2.6204,2.6002,2.6042,2.5495,2.5118,2.5048,2.4991,2.4727,2.4203,2.4065,2.3269,2.1911,2.0568,1.9804,1.9529,1.8767,1.8291,1.828,1.8386,1.8555,1.8689,1.8924,1.903,1.8996,1.8954,1.8972,1.9073,2.0013,2.0573,2.0759,2.1055,2.1334,2.167,2.2016,2.2342,2.2603,2.2889,2.2994,2.2844,2.2768,2.2632,2.2495,2.2495,2.254,2.2555,2.2646,2.2586,2.2495,2.2449,2.2356,2.2231,2.2137,2.2091,2.2123,2.2296,2.2512,2.2601,2.2509,2.2463,2.2463,2.2417,2.237,2.2324,2.2263,2.2231,2.2278,2.2278,2.2137,2.1983,2.2077,2.203,2.1793,2.1348,2.1042,2.1104,2.0686,2.0385,2.0894,1.9564,1.6581,1.2231,0.7688,0.3892,-0.0392,-0.252,-0.5449,-1.0956,-1.3502,-1.567,-1.6065,-1.8657,-1.9183,-2.0696,-2.0547,-2.0308,-2.0759,-2.022,-2.0156,2.9531,2.9531,2.9531,2.9515,2.9515,2.9515,2.9166,2.8591,2.8575,2.8286,2.7855,2.7705,2.764,2.7539,2.6997,2.6788,2.6788,2.6204,2.5879,2.577,2.5174,2.4721,2.4434,2.4434,2.4261,2.3904,2.3482,2.27,2.1613,2.0169,1.9385,1.9166,1.852,1.815,1.815,1.8262,1.8315,1.8494,1.8588,1.8649,1.8606,1.8518,1.8386,1.8422,1.9097,1.9688,2.0003,2.0194,2.0497,2.0993,2.1251,2.1623,2.2081,2.2374,2.2434,2.2342,2.2263,2.2123,2.1996,2.1983,2.1996,2.1983,2.2123,2.2137,2.1996,2.1996,2.1902,2.1793,2.1746,2.165,2.165,2.186,2.2142,2.2217,2.217,2.217,2.2077,2.1996,2.1949,2.1902,2.1855,2.1855,2.1902,2.1855,2.1759,2.1554,2.1664,2.165,2.1554,2.1153,2.0993,2.1299,2.0573,2.0271,2.0422,1.9698,1.9358,1.5802,1.3996,1.0116,0.6591,0.4878,0.1722,-0.3863,-0.7791,-1.0295,-1.2989,-1.5796,-1.7828,-1.9495,-2.0295,-1.9811,-1.9952,-1.985,-1.9798,2.9531,2.956,2.9531,2.9605,2.9633,2.9677,2.915,2.8496,2.84,2.8107,2.759,2.7437,2.7335,2.7233,2.7115,2.7181,2.7011,2.6326,2.5879,2.5687,2.516,2.4478,2.3806,2.3747,2.3675,2.3556,2.2713,2.2053,2.1451,1.9979,1.8976,1.8426,1.7757,1.7539,1.7282,1.7446,1.7513,1.787,1.8015,1.7971,1.796,1.8235,1.8323,1.8139,1.8196,1.843,1.8845,1.9291,1.9683,2.0105,2.0409,2.0845,2.1321,2.1527,2.1698,2.1841,2.1841,2.1759,2.1698,2.1616,2.1554,2.1554,2.1506,2.1506,2.1616,2.1616,2.1554,2.1506,2.152,2.1471,2.1326,2.1361,2.1458,2.1423,2.1698,2.1712,2.1506,2.141,2.141,2.141,2.141,2.1423,2.1361,2.141,2.1375,2.1264,2.1264,2.1264,2.1326,2.0809,2.0696,2.0832,2.0396,1.9965,1.9875,1.9811,2.0029,1.9699,1.8983,1.6784,1.2937,1.0433,0.7579,0.2598,-0.1781,-0.4424,-0.6873,-0.9545,-1.1243,-1.3017,-1.5392,-1.7392,-1.7099,-1.6789,-1.8883,2.9973,2.9973,2.9973,3.0017,3.0017,3.0,2.9677,2.9152,2.9014,2.8521,2.7795,2.7312,2.7122,2.7181,2.7093,2.7041,2.7041,2.6674,2.6379,2.596,2.5021,2.4421,2.4073,2.3616,2.339,2.3138,2.2298,2.1479,2.0824,1.9932,1.911,1.842,1.8055,1.7873,1.7711,1.775,1.7839,1.7917,1.7947,1.8024,1.8108,1.7961,1.7934,1.791,1.7688,1.7641,1.8115,1.8226,1.8429,1.8804,1.9254,1.9965,2.0646,2.0908,2.0908,2.0921,2.0858,2.0772,2.0723,2.0858,2.0957,2.1055,2.1166,2.1229,2.118,2.118,2.1082,2.0885,2.0848,2.0799,2.0623,2.0759,2.097,2.1375,2.1361,2.1361,2.1229,2.1166,2.1166,2.1104,2.1055,2.0957,2.0908,2.0908,2.0858,2.0673,2.0723,2.0822,2.0623,2.0372,2.022,2.051,1.9965,1.9656,1.9759,1.9552,1.9396,1.954,1.962,1.966,1.6746,1.493,1.2141,0.9455,0.5117,0.1586,-0.0899,-0.3161,-0.5023,-0.6556,-0.856,-1.0293,-1.1887,-1.4407,-1.7497,2.9886,2.9798,2.9782,2.9826,2.9886,2.9886,2.9694,2.9366,2.9187,2.8616,2.783,2.7261,2.6982,2.6959,2.687,2.6765,2.6727,2.6621,2.65,2.619,2.5287,2.4567,2.4105,2.3437,2.309,2.2775,2.1877,2.1037,2.0398,1.9573,1.8798,1.8134,1.8008,1.792,1.7803,1.7803,1.7803,1.7803,1.7794,1.7872,1.7959,1.7734,1.7664,1.7737,1.7372,1.7336,1.7687,1.7501,1.7603,1.8047,1.8522,1.9044,1.9619,1.9888,2.0055,2.0003,2.0118,2.0169,2.0067,2.0207,2.0295,2.0446,2.056,2.061,2.0573,2.0523,2.0435,2.0283,2.0246,2.0182,2.0118,2.0156,2.0459,2.0759,2.0908,2.0871,2.0785,2.0673,2.0547,2.0497,2.0446,2.0396,2.0346,2.0409,2.0359,2.0169,2.022,2.0258,2.0067,1.9926,2.0016,2.0016,1.9759,1.9643,1.9747,1.9331,1.8774,1.8762,1.8898,1.8797,1.7512,1.7375,1.5793,1.4851,1.1606,0.7986,0.5323,0.2658,0.0538,-0.0799,-0.3103,-0.6949,-1.0519,-1.4992,-1.7756,2.935,2.9137,2.9137,2.9213,2.935,2.9335,2.9243,2.9121,2.9014,2.8517,2.7725,2.7122,2.6788,2.6616,2.6578,2.6486,2.6379,2.634,2.634,2.615,2.5632,2.4951,2.3872,2.3078,2.2678,2.2494,2.1639,2.0858,2.0204,1.9365,1.825,1.7735,1.7666,1.7539,1.747,1.747,1.747,1.7461,1.7461,1.7461,1.7539,1.7451,1.756,1.7658,1.7312,1.7242,1.751,1.7233,1.7328,1.7897,1.8013,1.8038,1.8201,1.8738,1.9056,1.9121,1.95,1.9643,1.9695,1.9643,1.9747,1.9901,1.985,1.9798,1.9901,1.9901,1.9914,1.9901,1.985,1.9862,1.985,1.985,1.9901,1.985,2.0207,2.0321,2.0029,1.9875,1.985,1.9798,1.9747,1.9747,1.9747,1.9875,1.9875,1.9759,1.9695,1.9643,1.9592,1.9488,1.9656,1.95,1.9121,1.9069,1.9004,1.8857,1.829,1.7897,1.805,1.8093,1.8004,1.8174,1.7997,1.7361,1.6483,1.3431,1.1333,0.8578,0.527,0.2556,-0.0964,-0.5533,-0.8675,-1.154,-1.4791,2.9167,2.9091,2.9091,2.9121,2.9167,2.9167,2.9121,2.9154,2.9422,2.8799,2.774,2.6843,2.6657,2.6841,2.6472,2.6539,2.6592,2.6379,2.6165,2.6002,2.5784,2.4894,2.3682,2.2775,2.2309,2.2247,2.1737,2.1158,2.0495,2.0096,1.932,1.8046,1.7988,1.7716,1.7176,1.7116,1.7047,1.7047,1.7047,1.7116,1.7245,1.7254,1.7382,1.751,1.7406,1.7417,1.7456,1.7139,1.7113,1.7343,1.7145,1.7234,1.7556,1.7765,1.8038,1.8213,1.8387,1.8536,1.8792,1.8845,1.9121,1.9695,1.9488,1.954,1.9888,1.9656,1.9656,1.9759,1.9798,1.9798,1.9798,1.9798,1.9695,1.9436,1.9643,1.9811,1.9617,1.946,1.9344,1.9344,1.9384,1.9279,1.9239,1.9291,1.9344,1.9186,1.9016,1.8845,1.8845,1.8685,1.8709,1.8483,1.8213,1.8159,1.8104,1.8116,1.7788,1.7134,1.7134,1.7401,1.7413,1.7533,1.7126,1.6501,1.6265,1.3995,1.476,1.4057,1.0387,0.5632,0.3898,0.0845,-0.0963,-0.3558,-0.8259,2.8889,2.8811,2.8811,2.8811,2.8811,2.8811,2.8842,2.8967,2.9136,2.8652,2.7545,2.6718,2.6313,2.6204,2.5934,2.5934,2.6096,2.5893,2.5674,2.5508,2.516,2.4394,2.3458,2.2469,2.2011,2.1937,2.1675,2.1146,2.056,2.0431,1.9704,1.8777,1.8519,1.8172,1.7706,1.7314,1.7176,1.7038,1.683,1.6691,1.6821,1.6821,1.6968,1.7107,1.7107,1.7185,1.7267,1.7035,1.6879,1.6709,1.6532,1.6607,1.6751,1.7011,1.7179,1.7412,1.7567,1.7831,1.8093,1.8201,1.8525,1.9174,1.9121,1.9384,1.9695,1.9552,1.9448,1.9759,1.9643,1.9643,1.9747,1.9643,1.9331,1.9028,1.9081,1.9198,1.9158,1.9052,1.8987,1.8922,1.8857,1.875,1.8655,1.8643,1.859,1.8494,1.8375,1.8255,1.8201,1.7897,1.7689,1.7567,1.7512,1.7512,1.7501,1.7457,1.7401,1.6797,1.64,1.6627,1.6415,1.6543,1.6285,1.5827,1.5642,1.5479,1.5525,1.5032,1.2067,0.8722,0.831,0.6437,0.3608,0.1864,-0.2536,2.8573,2.8411,2.8411,2.8411,2.8444,2.8411,2.8541,2.8636,2.8565,2.8076,2.7363,2.6634,2.609,2.5328,2.5439,2.5174,2.5174,2.523,2.5048,2.4821,2.4421,2.3767,2.3135,2.2285,2.1812,2.1686,2.1474,2.1083,2.0688,2.0355,1.9901,1.9309,1.911,1.89,1.8432,1.8046,1.7647,1.7235,1.683,1.6482,1.6412,1.6412,1.6551,1.6673,1.6742,1.6821,1.6954,1.6889,1.6571,1.6085,1.6162,1.6178,1.6026,1.6321,1.6555,1.6705,1.6965,1.729,1.749,1.7545,1.7886,1.8471,1.8697,1.9016,1.9384,1.9331,1.9344,1.9708,1.9436,1.95,1.9643,1.9436,1.9081,1.8827,1.8721,1.8614,1.8732,1.8679,1.8506,1.8494,1.8213,1.8038,1.7995,1.7886,1.7788,1.7897,1.7722,1.7556,1.7446,1.7234,1.7134,1.7067,1.7011,1.6965,1.6909,1.6797,1.6797,1.6513,1.5999,1.5768,1.5235,1.5206,1.5206,1.4993,1.4449,1.3841,1.3434,1.2443,1.127,1.0347,0.8897,0.6948,0.4913,0.4227,0.1326,2.8444,2.8411,2.8411,2.8411,2.8411,2.8411,2.8396,2.8444,2.8442,2.8134,2.753,2.6607,2.627,2.6283,2.5425,2.516,2.5314,2.5048,2.4878,2.4523,2.3852,2.3292,2.2798,2.2211,2.1839,2.1537,2.1348,2.1158,2.0967,2.0828,2.0571,1.9966,1.9835,1.9507,1.8967,1.8576,1.8104,1.7647,1.7235,1.683,1.6403,1.6412,1.6473,1.6673,1.6673,1.6612,1.6542,1.6609,1.6532,1.6309,1.6268,1.6134,1.5984,1.6058,1.6148,1.6073,1.6165,1.6374,1.656,1.6842,1.7168,1.7918,1.8309,1.8471,1.8874,1.9069,1.9239,1.9552,1.9552,1.9604,1.9708,1.9004,1.8815,1.8881,1.859,1.8494,1.8721,1.8398,1.8127,1.8007,1.7678,1.7401,1.7401,1.7346,1.729,1.729,1.7123,1.6899,1.674,1.6581,1.657,1.6513,1.6389,1.6343,1.6296,1.6181,1.6171,1.6056,1.5652,1.5245,1.4656,1.4252,1.4441,1.3856,1.3009,1.2589,1.2567,1.1769,1.1044,1.0194,0.945,0.8088,0.6864,0.638,0.5538,2.8541,2.87,2.8493,2.8541,2.8668,2.8493,2.8411,2.8411,2.8411,2.8088,2.753,2.6858,2.6457,2.5986,2.5356,2.509,2.4878,2.4664,2.4505,2.4261,2.3865,2.3497,2.2992,2.2494,2.2013,2.14,2.1221,2.1233,2.1233,2.1169,2.0967,2.0635,2.0571,2.0302,1.977,1.9299,1.889,1.8442,1.7842,1.7432,1.7157,1.689,1.689,1.7088,1.7235,1.7176,1.7166,1.7038,1.6995,1.6868,1.6645,1.6384,1.6065,1.6076,1.5988,1.584,1.5861,1.6133,1.6378,1.6637,1.7123,1.8038,1.8363,1.8792,1.9109,1.9291,1.946,1.9708,1.9708,1.9656,1.9656,1.9574,1.9312,1.8987,1.875,1.8709,1.8815,1.8387,1.7995,1.7843,1.7457,1.7145,1.7032,1.7078,1.6786,1.6786,1.6627,1.64,1.6353,1.6192,1.6077,1.5961,1.5836,1.572,1.5672,1.5614,1.5546,1.542,1.5186,1.4893,1.4529,1.4168,1.3865,1.3375,1.2948,1.2632,1.2469,1.1658,1.1009,1.0394,0.9793,0.9198,0.8466,0.7458,0.6736,2.8668,2.9044,2.8621,2.8668,2.8997,2.8621,2.8411,2.8348,2.8348,2.8024,2.7479,2.7297,2.6491,2.555,2.5245,2.4765,2.4274,2.4171,2.4171,2.4112,2.4054,2.37,2.3258,2.2823,2.2137,2.1285,2.1094,2.1031,2.0967,2.1019,2.0839,2.0967,2.0967,2.0635,2.0366,2.002,1.942,1.8967,1.8432,1.8027,1.7901,1.7628,1.7687,1.7774,1.7988,1.7998,1.793,1.7794,1.7716,1.7598,1.7314,1.6938,1.6693,1.6443,1.6388,1.6211,1.6476,1.6767,1.7048,1.7088,1.75,1.8642,1.8839,1.9093,1.9448,1.9552,1.9668,1.9772,1.9759,1.9604,1.9617,1.9688,1.9636,1.9287,1.9093,1.904,1.8987,1.859,1.8321,1.8104,1.7722,1.7401,1.7134,1.7022,1.6616,1.6275,1.6181,1.6077,1.6077,1.6019,1.6066,1.5961,1.5894,1.5488,1.5391,1.5205,1.5137,1.502,1.4775,1.4597,1.4359,1.4132,1.3874,1.3706,1.3397,1.3003,1.2549,1.192,1.1289,1.0698,1.0272,0.9873,0.9167,0.8377,0.7824,2.8653,2.909,2.8621,2.8653,2.8997,2.8605,2.8348,2.8235,2.8235,2.8103,2.7825,2.7225,2.6611,2.5863,2.5258,2.4721,2.4229,2.4125,2.4125,2.4054,2.3995,2.37,2.3403,2.3017,2.2334,2.1451,2.1019,2.07,2.0431,2.0291,2.0431,2.0302,2.0366,2.0302,2.0172,1.9846,1.9507,1.9166,1.8767,1.8499,1.823,1.8287,1.8355,1.8442,1.8643,1.8643,1.8519,1.8509,1.8432,1.8114,1.8182,1.815,1.7999,1.7655,1.7554,1.7513,1.7646,1.7796,1.8035,1.7962,1.7983,1.8306,1.8623,1.8726,1.897,1.9198,1.946,1.9565,1.9617,1.9565,1.9617,1.9865,1.9828,1.9599,1.9364,1.9259,1.9393,1.9081,1.8643,1.8471,1.8093,1.7722,1.7457,1.7234,1.7112,1.6877,1.6832,1.6786,1.6786,1.6729,1.6662,1.6446,1.6114,1.5662,1.5205,1.4961,1.4834,1.4725,1.4547,1.4369,1.4189,1.4088,1.3917,1.3678,1.349,1.3186,1.2704,1.2231,1.184,1.152,1.1038,1.0541,0.9974,0.934,0.8811,2.8668,2.9044,2.8621,2.8605,2.8858,2.8462,2.8201,2.8103,2.8103,2.8039,2.7905,2.764,2.7071,2.6467,2.5809,2.5021,2.4332,2.4125,2.4054,2.3995,2.3878,2.376,2.345,2.3078,2.258,2.1939,2.1376,2.0752,2.0172,2.0096,2.0096,2.0096,2.0096,2.0096,2.0096,1.9977,1.9715,1.9441,1.9243,1.9121,1.8854,1.8977,1.9044,1.911,1.9309,1.9431,1.9365,1.9187,1.9121,1.8931,1.8854,1.8977,1.9104,1.9013,1.8699,1.8438,1.8468,1.8599,1.8791,1.8663,1.8809,1.9149,1.9142,1.9105,1.9161,1.9322,1.9352,1.9393,1.9433,1.9648,1.992,2.0172,2.0374,2.0358,1.9956,1.9785,1.9752,1.9397,1.9141,1.8827,1.8267,1.7886,1.7733,1.7623,1.7545,1.749,1.7424,1.7435,1.7446,1.7324,1.7157,1.6775,1.6446,1.5941,1.543,1.5128,1.4883,1.4656,1.4488,1.4309,1.4123,1.409,1.3838,1.3496,1.338,1.3467,1.3333,1.2953,1.26,1.2277,1.1938,1.1494,1.0876,1.0313,0.9735,2.8605,2.8997,2.8525,2.8558,2.8858,2.8365,2.8137,2.8088,2.8005,2.7955,2.7905,2.784,2.7458,2.6797,2.604,2.5175,2.4287,2.4229,2.4054,2.3936,2.3819,2.376,2.3569,2.3198,2.2702,2.2261,2.1865,2.125,2.0484,2.0161,2.0096,2.0031,2.0031,1.9911,1.9846,1.9781,1.9911,1.9846,1.9726,1.9605,1.9671,1.9671,1.9736,1.9736,1.9977,2.0096,2.0107,1.9922,1.9791,1.966,1.9507,1.9562,2.0096,2.0226,1.977,1.9137,1.9137,1.9299,1.9471,1.9456,1.965,2.0053,1.9828,1.9797,1.9674,1.9509,1.9364,1.9507,1.9601,1.9731,2.0147,2.0704,2.0958,2.0865,2.0588,2.0275,2.0054,1.9768,1.9446,1.9042,1.8367,1.817,1.817,1.8224,1.8278,1.8116,1.7995,1.7886,1.7886,1.7722,1.7556,1.7112,1.6662,1.6285,1.5826,1.542,1.5118,1.4883,1.4775,1.4597,1.439,1.4239,1.3907,1.368,1.3785,1.3816,1.3777,1.3473,1.2853,1.2514,1.2656,1.2213,1.1359,1.0835,1.0343,2.8317,2.8685,2.8235,2.8542,2.9104,2.8365,2.8171,2.8334,2.7974,2.779,2.7675,2.7625,2.7306,2.6654,2.5687,2.5104,2.4791,2.4403,2.4112,2.3995,2.3819,2.376,2.376,2.333,2.2884,2.2506,2.2237,2.1678,2.106,2.0549,2.0161,2.0096,1.9781,1.9264,1.9518,1.9518,1.9198,1.9274,1.9473,1.9671,1.9911,1.9977,2.0107,2.0248,2.0237,2.0161,2.0366,2.0313,2.0248,2.0118,2.0237,2.0442,2.0571,2.0506,2.0752,2.076,2.0939,2.0968,2.0814,2.0565,2.0419,2.0579,2.0323,2.0088,1.9944,1.974,1.9626,2.002,2.0004,2.0048,2.033,2.0913,2.1124,2.1117,2.0909,2.0611,2.0318,1.9837,1.9582,1.9352,1.8785,1.881,1.8893,1.8946,1.8946,1.8744,1.8572,1.8452,1.8278,1.8061,1.7843,1.7401,1.6955,1.6503,1.6171,1.5768,1.5468,1.5177,1.4942,1.4834,1.4653,1.4478,1.4243,1.4118,1.4171,1.3924,1.3461,1.3134,1.2766,1.2647,1.2591,1.2158,1.1565,1.1181,1.0823,2.8494,2.8253,2.8088,2.8171,2.8431,2.8024,2.7925,2.7959,2.7775,2.7625,2.761,2.756,2.7255,2.6669,2.6136,2.5591,2.5061,2.4734,2.4332,2.4054,2.3819,2.37,2.3582,2.339,2.3078,2.2811,2.2689,2.2628,2.1939,2.125,2.0677,2.0613,2.0355,2.0096,1.9704,1.9639,1.9452,1.9274,1.9274,1.9396,1.9528,1.9726,1.9857,2.0053,2.0053,2.0172,2.0237,2.0302,2.0377,2.0366,2.0571,2.0711,2.0903,2.0967,2.1031,2.1158,2.1158,2.121,2.1227,2.1042,2.1024,2.0896,2.061,2.0215,2.0006,1.9959,1.9875,2.0052,2.0316,2.0423,2.0617,2.1174,2.1391,2.1427,2.1151,2.0911,2.0514,1.9937,1.9526,1.9353,1.9257,1.9279,1.9247,1.9105,1.8999,1.8839,1.8679,1.856,1.8344,1.8116,1.7909,1.7645,1.719,1.6786,1.6513,1.6181,1.5836,1.5536,1.5059,1.4951,1.4893,1.4725,1.4647,1.4401,1.4297,1.3881,1.3211,1.299,1.2892,1.2759,1.2533,1.2133,1.1678,1.1443,1.1109,2.8716,2.8088,2.8073,2.8024,2.7925,2.784,2.776,2.7795,2.761,2.7524,2.7524,2.7473,2.7203,2.6841,2.6563,2.6028,2.5384,2.5048,2.4593,2.4144,2.3819,2.3641,2.3463,2.3343,2.3198,2.3125,2.3005,2.2944,2.2702,2.2199,2.1565,2.1376,2.0996,2.0805,2.0484,2.0355,2.0161,1.9846,1.9781,1.9649,1.9518,1.966,1.966,1.9726,1.9791,1.9901,1.9977,1.9977,2.0107,2.0248,2.0366,2.0571,2.0764,2.0839,2.0967,2.1031,2.1094,2.1233,2.1233,2.1187,2.1233,2.1118,2.0945,2.0592,2.0424,2.0322,2.037,2.051,2.0547,2.0771,2.103,2.1449,2.1556,2.1542,2.1348,2.116,2.0877,2.0497,2.0033,1.9758,1.9636,1.9552,1.9478,1.9182,1.904,1.8881,1.8774,1.8667,1.8398,1.8127,1.8018,1.7755,1.7479,1.7134,1.6976,1.6637,1.6296,1.5951,1.5536,1.542,1.5478,1.5362,1.5235,1.4942,1.4579,1.4114,1.3697,1.3371,1.311,1.2993,1.277,1.231,1.192,1.1697,1.1442,2.8795,2.8304,2.8304,2.8255,2.8207,2.7795,2.7845,2.8061,2.7625,2.7452,2.7401,2.7284,2.7218,2.7049,2.6669,2.6336,2.6136,2.5021,2.4681,2.4363,2.3878,2.3654,2.3522,2.3318,2.3125,2.3125,2.3125,2.3125,2.3065,2.2884,2.2433,2.2051,2.169,2.1262,2.0996,2.0921,2.0869,2.0613,2.0677,2.042,2.0161,2.0031,1.9977,1.966,1.9462,1.933,1.9671,1.9791,1.9977,2.0053,2.0291,2.0484,2.0752,2.0892,2.1019,2.1094,2.1285,2.1423,2.1423,2.1296,2.1233,2.1221,2.1152,2.1026,2.0966,2.0688,2.0807,2.1078,2.0956,2.1014,2.1245,2.1542,2.1753,2.1705,2.1685,2.1592,2.1463,2.1426,2.0913,2.0312,2.0072,2.0014,1.9897,1.9641,1.9368,1.9198,1.8827,1.8732,1.8302,1.8084,1.803,1.7931,1.7767,1.7545,1.749,1.7145,1.6751,1.6581,1.6343,1.6343,1.6467,1.6228,1.5826,1.5478,1.5118,1.4688,1.4282,1.4188,1.3924,1.3481,1.3046,1.2672,1.2256,1.1974,1.1682,2.9645,2.9196,2.8919,2.8463,2.783,2.766,2.771,2.7795,2.7539,2.7335,2.7299,2.7218,2.7167,2.7115,2.7011,2.6616,2.6283,2.5906,2.5398,2.4991,2.466,2.4268,2.4008,2.3509,2.3283,2.3138,2.3125,2.3125,2.3125,2.3125,2.3005,2.2628,2.231,2.2063,2.1803,2.1365,2.1187,2.1198,2.1135,2.0933,2.0869,2.0741,2.0677,2.056,2.042,2.0355,2.056,2.056,2.0624,2.0741,2.0858,2.0996,2.1135,2.1336,2.1411,2.1474,2.1663,2.1788,2.1726,2.1486,2.1233,2.1233,2.1233,2.1285,2.14,2.1065,2.1065,2.1197,2.114,2.1156,2.1244,2.1773,2.2207,2.1999,2.1966,2.1969,2.2007,2.1932,2.1645,2.0976,2.0694,2.0587,2.0347,2.0131,1.9823,1.9525,1.9105,1.8732,1.8356,1.8096,1.815,1.8139,1.7975,1.7755,1.7656,1.7423,1.7078,1.7032,1.6987,1.6874,1.6761,1.6761,1.6353,1.6056,1.5768,1.5468,1.5225,1.5118,1.4706,1.4103,1.3563,1.3103,1.272,1.2266,1.2246,3.0156,2.9572,2.9393,2.8748,2.7845,2.766,2.756,2.7575,2.7488,2.7299,2.7144,2.713,2.713,2.7078,2.7026,2.687,2.6472,2.619,2.592,2.5536,2.5213,2.4815,2.43,2.3936,2.3607,2.3271,2.3125,2.3125,2.3125,2.3125,2.3065,2.3065,2.3065,2.2689,2.2433,2.199,2.169,2.1702,2.1702,2.1502,2.1491,2.1428,2.1187,2.1123,2.0933,2.0933,2.0944,2.0944,2.1071,2.1187,2.1376,2.1514,2.1714,2.1788,2.1851,2.1975,2.2037,2.2099,2.2111,2.1851,2.1474,2.1714,2.1526,2.1514,2.1577,2.1588,2.1717,2.1667,2.1495,2.1283,2.1479,2.2209,2.2419,2.2261,2.231,2.2396,2.2481,2.2416,2.2101,2.1636,2.1445,2.13,2.0811,2.0578,2.0131,1.9772,1.9356,1.8999,1.8583,1.8367,1.8313,1.8302,1.8302,1.803,1.7755,1.7634,1.7468,1.72,1.7155,1.6874,1.6761,1.6807,1.6761,1.6306,1.6134,1.6181,1.6009,1.571,1.5225,1.4628,1.4145,1.3734,1.3183,1.2858,1.3154,2.9924,2.9212,2.9528,2.9134,2.8207,2.7795,2.7625,2.7575,2.7437,2.7248,2.7003,2.7003,2.6951,2.6884,2.6884,2.6779,2.6674,2.6272,2.6002,2.5936,2.58,2.5057,2.4487,2.4125,2.3798,2.3271,2.3125,2.3125,2.3125,2.3125,2.3125,2.3125,2.3065,2.3078,2.3078,2.3065,2.3005,2.3017,2.2957,2.2567,2.2237,2.2113,2.1815,2.1565,2.1514,2.1577,2.1565,2.1565,2.169,2.169,2.169,2.169,2.1577,2.1313,2.1439,2.1815,2.1514,2.1651,2.2061,2.1975,2.2075,2.2249,2.2002,2.2002,2.2359,2.2482,2.2347,2.2163,2.186,2.1812,2.2165,2.2641,2.2714,2.2689,2.2738,2.2907,2.3037,2.3072,2.2761,2.2375,2.2304,2.2111,2.1551,2.1003,2.0488,2.008,1.9668,1.9263,1.8905,1.8744,1.8679,1.8625,1.8667,1.856,1.8344,1.8073,1.7854,1.7601,1.7434,1.7368,1.719,1.7134,1.692,1.6545,1.6648,1.6842,1.657,1.6296,1.5979,1.5718,1.4864,1.4332,1.3786,1.3579,1.3984,2.9393,2.9074,2.8919,2.8591,2.8158,2.811,2.7879,2.7575,2.7372,2.7144,2.6899,2.6846,2.6832,2.6779,2.6794,2.6794,2.6727,2.6727,2.6515,2.6476,2.6351,2.5661,2.5016,2.4416,2.3975,2.333,2.3138,2.3125,2.3125,2.3185,2.3125,2.3125,2.3125,2.3125,2.3065,2.3125,2.3065,2.3065,2.3065,2.2944,2.275,2.275,2.2628,2.231,2.2445,2.2445,2.2445,2.2445,2.2506,2.2506,2.2494,2.2445,2.2261,2.2002,2.2137,2.2334,2.2149,2.1963,2.2161,2.2137,2.2285,2.2396,2.2433,2.2421,2.2604,2.2604,2.2604,2.2652,2.2408,2.2408,2.2506,2.3311,2.347,2.3283,2.3378,2.3616,2.3767,2.3754,2.3593,2.3127,2.2923,2.2296,2.1681,2.1211,2.0783,2.0398,2.0029,1.9668,1.9251,1.921,1.9158,1.9105,1.9093,1.9093,1.8975,1.8655,1.8452,1.8236,1.8236,1.8333,1.8116,1.7611,1.7556,1.7401,1.7457,1.7512,1.7234,1.7011,1.7123,1.6821,1.5968,1.5342,1.4972,1.4859,1.506,2.8935,2.8748,2.8543,2.8158,2.783,2.7944,2.781,2.7473,2.7284,2.7078,2.6884,2.6899,2.6846,2.6832,2.6794,2.6794,2.6794,2.6794,2.6794,2.6808,2.6808,2.6129,2.5439,2.4791,2.4447,2.378,2.3484,2.3484,2.3543,2.3484,2.3318,2.3125,2.3125,2.3125,2.3125,2.3125,2.3125,2.3125,2.3065,2.3065,2.3065,2.3065,2.3065,2.3078,2.3138,2.3198,2.3258,2.339,2.345,2.345,2.3378,2.3318,2.309,2.2896,2.2896,2.2896,2.2957,2.2763,2.2763,2.2884,2.303,2.303,2.2871,2.2859,2.298,2.3233,2.322,2.316,2.31,2.31,2.3258,2.3999,2.3901,2.37,2.376,2.3995,2.4112,2.4099,2.4105,2.3647,2.3201,2.2546,2.1838,2.1394,2.0938,2.0654,2.0385,2.0016,1.9656,1.9617,1.9565,1.9512,1.9512,1.9512,1.9344,1.9093,1.8934,1.8827,1.8815,1.8815,1.8483,1.7875,1.8038,1.8135,1.7984,1.7886,1.7831,1.7776,1.7722,1.7501,1.6944,1.6436,1.6151,1.5936,1.5831,2.8559,2.8174,2.8496,2.8076,2.7321,2.7386,2.7335,2.7181,2.7167,2.7144,2.6951,2.6951,2.6899,2.6794,2.6794,2.6794,2.6794,2.6794,2.6794,2.6794,2.6799,2.6301,2.5729,2.5147,2.4637,2.4509,2.4221,2.3603,2.3956,2.3721,2.3424,2.3198,2.3125,2.3125,2.3125,2.3125,2.3125,2.3125,2.3125,2.3125,2.3125,2.3125,2.3125,2.3138,2.3198,2.3198,2.3198,2.3258,2.3258,2.3198,2.3198,2.3258,2.3138,2.275,2.3065,2.3258,2.3378,2.3378,2.3258,2.3258,2.345,2.333,2.333,2.345,2.3628,2.3806,2.3734,2.3793,2.3806,2.3865,2.408,2.4093,2.4093,2.3995,2.4054,2.4112,2.4229,2.4274,2.4274,2.4041,2.3576,2.2984,2.2286,2.1773,2.1366,2.1077,2.0742,2.022,1.9914,1.9862,1.9823,1.9823,1.9875,1.9875,1.972,1.946,1.9291,1.9186,1.8857,1.8792,1.8405,1.8405,1.862,1.862,1.8363,1.8255,1.8429,1.8321,1.8104,1.7831,1.7733,1.7224,1.681,1.6275,1.6143,2.761,2.7458,2.7595,2.7372,2.7093,2.6989,2.6989,2.7041,2.7041,2.7003,2.6846,2.6832,2.6846,2.6794,2.6794,2.6794,2.6794,2.6794,2.6794,2.6794,2.6779,2.6096,2.5591,2.5133,2.4496,2.3989,2.3649,2.3603,2.3437,2.3424,2.3424,2.3125,2.3125,2.3125,2.3125,2.3125,2.3125,2.3125,2.3125,2.3125,2.3125,2.3125,2.3125,2.3138,2.3198,2.3258,2.3271,2.3318,2.3378,2.3437,2.3437,2.3437,2.2969,2.2848,2.2969,2.2775,2.3017,2.3258,2.2811,2.3078,2.333,2.3378,2.3378,2.376,2.4008,2.4067,2.4125,2.4125,2.4125,2.4125,2.4112,2.4054,2.4054,2.4067,2.4112,2.4157,2.4274,2.4492,2.4536,2.47,2.4282,2.3754,2.3031,2.2234,2.1825,2.1519,2.1154,2.0693,2.0207,2.0118,1.9978,1.9978,1.9965,1.9914,1.9926,1.972,1.9604,1.9488,1.9214,1.9044,1.9162,1.9214,1.9267,1.9162,1.8951,1.9016,1.9186,1.9016,1.8685,1.8709,1.856,1.7984,1.7435,1.6963,1.6864,2.7181,2.7093,2.7093,2.6989,2.6899,2.6846,2.6846,2.6899,2.6951,2.6899,2.6794,2.6794,2.6794,2.6794,2.6794,2.6794,2.6794,2.6794,2.6794,2.6794,2.6794,2.6433,2.5865,2.537,2.5021,2.4337,2.3872,2.393,2.3543,2.3198,2.3125,2.3125,2.3125,2.3125,2.3125,2.3125,2.3125,2.3125,2.3125,2.3125,2.3125,2.3125,2.3125,2.3138,2.3258,2.3271,2.3271,2.3378,2.3378,2.3378,2.3378,2.3318,2.309,2.315,2.315,2.3078,2.321,2.3258,2.3065,2.3125,2.3185,2.3245,2.3556,2.3878,2.4008,2.4125,2.4125,2.4125,2.4125,2.4112,2.4054,2.4054,2.4054,2.4008,2.4099,2.4144,2.4421,2.4708,2.5007,2.5343,2.5108,2.46,2.3879,2.2991,2.2524,2.2569,2.2288,2.1767,2.1029,2.0374,2.0144,2.0029,1.9914,1.9862,1.9862,1.9875,1.9759,1.9695,1.9643,1.9579,1.9798,1.9747,1.9592,1.9592,1.9643,1.9604,1.9512,1.9552,1.9396,1.9405,1.9458,1.9227,1.8649,1.7991,1.8107,2.7248,2.7093,2.6937,2.6922,2.6832,2.6832,2.6779,2.6794,2.6794,2.6794,2.6794,2.6794,2.6794,2.6794,2.6794,2.6794,2.6794,2.6794,2.6794,2.6794,2.6794,2.6553,2.6286,2.6111,2.5481,2.5495,2.5203,2.4452,2.406,2.3721,2.3365,2.3185,2.3125,2.3125,2.3125,2.3125,2.3125,2.3125,2.3125,2.3125,2.3125,2.3125,2.3125,2.3125,2.3125,2.3138,2.3138,2.3138,2.3138,2.3198,2.3245,2.3365,2.3603,2.3721,2.378,2.378,2.3897,2.3884,2.3767,2.378,2.3793,2.3806,2.3878,2.3878,2.3936,2.4054,2.4112,2.4112,2.4125,2.4274,2.4332,2.4416,2.4487,2.4563,2.465,2.4851,2.5133,2.5412,2.5618,2.5863,2.5644,2.5242,2.4912,2.4079,2.3564,2.3647,2.3204,2.2636,2.2137,2.1159,2.0553,2.0271,1.9978,1.9875,1.9862,1.9862,1.9798,1.9798,1.9798,1.9798,1.9798,1.9798,1.9798,1.9798,1.9747,1.9708,1.9668,1.9911,2.0101,1.9927,2.0085,2.037,1.9994,1.9294,1.9437,2.8027,2.7978,2.753,2.7327,2.7291,2.6974,2.6832,2.6794,2.6794,2.6779,2.6794,2.6794,2.6794,2.6794,2.6794,2.6794,2.6794,2.6794,2.6794,2.6794,2.6794,2.6621,2.6286,2.6125,2.5715,2.53,2.5007,2.4908,2.4624,2.4176,2.3839,2.378,2.3543,2.3305,2.3305,2.3305,2.3305,2.3365,2.3352,2.3305,2.3305,2.3185,2.3125,2.3125,2.3125,2.3125,2.3125,2.3125,2.3484,2.3826,2.3884,2.4118,2.4567,2.4738,2.4781,2.4838,2.4794,2.4724,2.4681,2.4465,2.4305,2.4189,2.4086,2.3806,2.3747,2.3982,2.4112,2.4112,2.4171,2.439,2.462,2.4775,2.4959,2.5061,2.5189,2.5508,2.5837,2.6068,2.6244,2.619,2.6068,2.5887,2.5689,2.5328,2.4833,2.4232,2.3585,2.3144,2.3196,2.256,2.1446,2.0991,2.0118,1.9939,1.9952,1.9952,2.0042,1.9952,1.9901,1.985,1.9811,2.0042,2.0194,1.9901,1.9798,2.0003,2.0361,2.0798,2.0862,2.0807,2.1138,2.1617,2.1622,2.1124,2.1165,2.8352,2.8255,2.7997,2.7715,2.7515,2.7479,2.7342,2.7152,2.7115,2.7011,2.6846,2.6794,2.6794,2.6794,2.6794,2.6794,2.6794,2.6794,2.6794,2.6794,2.6779,2.6621,2.6394,2.6233,2.5948,2.5522,2.5119,2.4951,2.5021,2.4794,2.4465,2.4408,2.4047,2.3872,2.3872,2.393,2.3872,2.3989,2.3872,2.3872,2.3754,2.3531,2.3185,2.3125,2.3125,2.3125,2.3125,2.3125,2.3305,2.3767,2.3884,2.4452,2.4851,2.5077,2.5175,2.5231,2.5231,2.5287,2.5231,2.5077,2.4794,2.4681,2.4567,2.4452,2.4567,2.4751,2.4376,2.4332,2.4112,2.4274,2.4664,2.4862,2.5131,2.5314,2.5412,2.5563,2.6068,2.651,2.663,2.6645,2.6592,2.651,2.6313,2.6232,2.584,2.5759,2.4976,2.4351,2.4243,2.4055,2.2931,2.2033,2.1419,2.0977,2.1143,2.0845,2.0396,2.0245,2.0284,1.999,2.0003,2.0359,2.0534,2.0359,2.041,2.078,2.1191,2.1625,2.2047,2.2088,2.2498,2.3016,2.2867,2.2737,2.2815,2.84,2.8304,2.8192,2.7997,2.7665,2.7997,2.7963,2.7665,2.7615,2.7327,2.6974,2.6922,2.6884,2.6794,2.6794,2.6794,2.6794,2.6794,2.6794,2.6794,2.6794,2.6727,2.6727,2.6674,2.634,2.5988,2.5646,2.5467,2.5412,2.5189,2.509,2.5021,2.4908,2.4851,2.4908,2.4851,2.461,2.4724,2.4724,2.4838,2.4496,2.3989,2.3649,2.3412,2.3352,2.3352,2.3352,2.3352,2.3352,2.3872,2.4439,2.5021,2.537,2.5646,2.5632,2.5742,2.5756,2.5687,2.5577,2.5467,2.5342,2.5287,2.5287,2.5287,2.5342,2.5189,2.4821,2.4607,2.4376,2.4492,2.4878,2.5203,2.5412,2.5783,2.5837,2.5892,2.6457,2.6959,2.6974,2.7041,2.6989,2.6989,2.6922,2.6855,2.6817,2.6832,2.6649,2.6098,2.5616,2.537,2.4755,2.402,2.3427,2.3073,2.2491,2.1955,2.1308,2.1414,2.1444,2.0656,2.0259,2.0712,2.0983,2.0871,2.105,2.1542,2.2042,2.2536,2.2886,2.328,2.3837,2.4232,2.3983,2.3973,2.4213,2.8352,2.8255,2.7849,2.7815,2.8046,2.7815,2.7849,2.811,2.8094,2.7849,2.7429,2.7342,2.7203,2.6794,2.6794,2.6794,2.6794,2.6794,2.6794,2.6794,2.6794,2.6794,2.6794,2.6779,2.6727,2.65,2.634,2.6447,2.6082,2.5825,2.5481,2.5189,2.4567,2.4452,2.4408,2.4523,2.4851,2.5077,2.5231,2.5231,2.5119,2.4781,2.4738,2.461,2.4667,2.4667,2.4667,2.461,2.4993,2.5508,2.5906,2.615,2.6272,2.6326,2.6379,2.6312,2.6379,2.6379,2.6258,2.6082,2.6014,2.596,2.5837,2.5508,2.5563,2.5563,2.5314,2.5258,2.5203,2.5412,2.5742,2.5892,2.6162,2.6707,2.6982,2.6916,2.7188,2.7269,2.7233,2.7284,2.7269,2.7269,2.7218,2.7203,2.7218,2.7218,2.7218,2.6748,2.6578,2.6474,2.6379,2.5833,2.5271,2.4311,2.3417,2.3094,2.2685,2.2753,2.2634,2.2081,2.1619,2.1314,2.1421,2.1727,2.1903,2.2297,2.2816,2.3654,2.3944,2.4387,2.5089,2.5411,2.5149,2.4969,2.5148]}]]